ECMWFNIL_con_mucape_000.txt.gz
CAPE
3466 3338 3182 2968 2914 2691 2360 2325 2196 2036 2176 1935 1802 1488 1461 1466 1078 970 828 695 563 510 471 394 227 129 64 70 76 66 105 79 166 204 184 125 127 52 80 66 94 98
3768 3671 3478 2987 2883 2934 2875 2502 2565 2254 2186 2304 2017 1677 1568 1280 986 884 824 648 587 479 486 361 293 173 105 66 82 131 182 221 210 239 380 384 324 246 175 144 72 106
3961 3734 3633 3197 2710 2870 2741 2638 2491 2599 2232 2420 2168 1913 1612 1409 1085 958 839 695 552 538 456 398 336 264 142 97 116 88 109 269 281 162 338 307 323 152 229 48 226 118
4656 4037 3472 3128 2763 2604 2528 2459 2756 3082 2221 2520 2370 2000 1690 1312 1067 1025 818 651 647 620 525 421 314 218 183 125 137 116 86 110 48 58 197 356 340 208 98 92 44 32
4680 4526 3930 3373 2986 2612 2646 2806 2624 3059 2208 2349 2644 2201 2040 1476 1122 1012 854 875 786 780 710 506 320 200 263 216 184 164 134 126 67 117 114 131 180 152 92 68 40 34
5054 4728 4440 3985 3730 3590 3351 3299 3403 3179 3258 2935 2977 2408 2000 1878 1363 810 932 1010 930 751 599 486 380 302 267 338 295 299 138 100 68 135 134 172 124 40 29 36 69 61
4906 4826 4541 4436 4533 4508 4105 3738 3841 3584 3187 3020 2662 2205 1758 1796 1524 1132 1212 1076 854 753 620 545 494 312 165 175 165 183 232 232 195 209 236 170 165 123 52 46 81 66
5074 5138 4981 4878 4646 4449 4128 4035 3528 2987 2698 2575 2167 2057 1806 1678 1688 1467 1290 1130 842 847 775 569 511 391 75 50 62 156 241 209 236 241 267 232 194 147 102 82 58 64
5157 4914 4684 4572 4447 4333 3689 3101 2887 2450 2252 2106 1466 1186 1356 1284 1370 1261 1530 1541 1290 1124 1012 805 542 319 160 22 78 245 293 239 192 203 194 161 129 164 86 67 57 78
4663 4608 4352 4007 3822 3470 3096 2659 2358 1980 1966 1874 896 466 764 731 831 916 996 1162 1132 1165 1166 845 610 453 200 89 206 328 344 293 235 278 243 157 189 200 111 58 45 75
4745 4258 3984 3784 3195 2842 2618 2003 1930 2554 2031 1209 426 410 468 676 680 652 768 977 1060 968 1022 817 475 440 378 275 307 351 401 286 312 367 298 241 277 278 199 140 89 64
3889 3480 3356 2674 2685 2496 1930 1109 1405 1599 2130 1340 365 379 238 250 332 465 394 590 830 982 992 808 661 501 465 524 366 372 365 358 354 387 315 289 298 349 324 264 198 143
3618 3186 2870 2741 2844 2446 1282 892 700 389 430 704 244 36 97 358 946 670 456 692 657 741 820 714 666 558 569 737 690 490 430 520 421 389 412 395 379 365 301 169 112 90
3437 3301 2873 2764 2470 2892 1048 177 214 131 375 686 287 205 439 720 208 0 0 263 522 711 679 644 662 692 740 840 1028 729 602 603 500 456 498 399 362 464 404 187 78 67
3249 2992 2762 2527 2620 2318 804 140 83 116 427 619 692 394 280 215 0 66 200 390 660 772 706 707 846 814 819 1125 1209 1027 932 774 550 547 590 498 324 162 532 434 520 251
3212 2852 2542 2374 2430 2298 1183 455 176 320 735 662 458 259 83 38 0 0 214 368 573 678 742 849 852 820 1078 795 1000 1324 1328 1202 798 484 451 458 380 466 495 568 558 492
2775 2606 2280 2168 2218 2260 2040 1546 1198 534 126 318 322 132 1 0 0 0 90 354 422 731 900 942 1010 955 667 602 619 654 1165 1264 1084 967 606 546 410 706 430 472 852 835
3279 2943 2852 2789 2720 2638 2361 1724 1346 784 512 622 514 249 103 70 63 104 284 351 512 769 580 462 924 700 370 364 358 308 276 781 1090 1158 906 844 1107 711 1014 1440 1234 1204
3090 2938 2839 2734 2615 2408 2146 1800 1586 1064 858 682 741 686 444 286 150 375 557 637 716 646 320 268 724 548 273 258 256 234 194 223 179 438 904 1209 1287 1452 1301 1204 1464 1442
3070 2958 2795 2626 2367 2124 2020 1838 1560 1080 656 478 440 557 586 548 577 616 678 887 828 669 504 649 882 511 223 192 188 216 332 383 305 159 351 647 756 1051 1296 1212 1313 1432
3297 3073 2874 2686 2470 2157 1930 1730 1303 1095 858 634 453 626 686 654 674 821 689 806 860 457 756 956 776 269 166 98 178 224 180 307 458 378 637 984 1196 1089 985 838 890 862
3272 3137 2904 2708 2478 2166 1876 1480 1148 1015 913 874 612 546 462 542 700 630 714 726 531 458 585 960 466 134 97 117 135 114 153 303 540 772 908 1088 1274 1354 1072 959 931 761
3204 3094 2930 2522 2371 2258 1890 1308 986 1002 1198 1237 961 516 607 570 588 527 595 758 646 702 639 595 576 288 84 95 135 225 252 803 776 600 618 625 555 1036 986 920 800 594
2917 2727 2696 2370 2287 2205 1754 1256 1300 1385 1368 1234 1045 732 580 596 591 614 738 726 497 597 533 664 553 484 42 81 116 123 434 940 1100 1296 838 578 504 1094 1105 798 455 83
2486 2384 2241 2251 2224 2128 1529 1219 1223 1217 1178 1163 1061 972 894 911 608 459 589 642 466 334 282 149 131 546 130 5 68 80 489 1173 1036 800 735 397 364 571 854 524 290 68
2004 1862 1986 2056 2106 1872 1520 1030 898 902 929 990 934 887 766 619 505 498 412 449 377 302 280 164 28 528 576 63 9 22 113 985 920 592 454 256 157 528 534 548 252 126

ECMWFNIL_con_mucape_003.txt.gz
CAPE
3433 3428 3425 3028 2949 2994 2866 2502 2368 2284 2054 1944 1986 1793 1530 1685 1029 776 428 435 388 354 453 497 360 254 87 94 100 52 124 126 46 37 90 40 76 28 10 21 30 97
3345 3446 3389 3048 3076 3096 3086 2680 2496 2351 2021 1925 1852 1720 1520 1234 860 697 612 537 414 366 455 514 477 272 138 87 103 73 80 60 68 14 33 170 296 290 136 141 111 142
3278 3420 3271 2969 2828 2967 2657 2438 2387 2044 1901 1687 1570 1494 1414 1215 1197 758 774 611 512 398 445 409 253 171 143 119 140 95 70 152 57 32 194 311 370 252 306 76 40 88
3529 3470 3241 3043 2771 2680 2638 2412 2191 2116 1803 1542 1062 1404 1388 1024 1038 1056 964 799 652 532 534 351 224 177 142 139 180 192 112 116 82 118 123 261 328 345 249 238 194 129
3491 3516 3178 3015 2838 2646 2466 2039 1786 1912 1626 1480 1180 1654 1529 1291 1110 1054 918 782 733 614 518 304 223 186 320 185 178 216 196 94 84 276 204 27 113 182 218 202 148 136
3705 3675 3630 3287 2967 2804 2201 1818 1712 2036 1487 1441 1778 1852 1760 1518 871 841 1096 736 627 490 388 272 245 192 178 238 309 370 144 86 70 111 55 58 72 10 7 38 75 110
3308 3468 3634 3174 2836 2600 2453 1920 1870 1994 1732 2362 2801 2553 2259 1764 1408 1145 1168 996 769 709 541 564 637 441 292 296 582 631 720 357 216 146 114 116 137 148 116 135 126 136
3443 3241 3422 3336 2900 2890 2177 2115 2326 2059 2004 2852 2618 2426 2314 1687 1557 1044 976 1040 814 889 1074 966 1074 827 422 290 426 518 381 327 281 266 162 158 281 282 254 201 178 176
3647 3488 3535 3262 2395 2167 2253 2710 2578 2619 2672 2508 2320 2286 2310 1927 1713 1372 1445 1229 978 932 1029 793 844 686 526 381 287 272 270 219 228 288 345 313 300 310 237 180 198 271
4297 3718 3114 2821 2608 2879 3109 2558 3337 2583 2282 2358 2218 2422 2144 2283 2174 1660 1640 1500 1139 1008 904 963 940 676 630 374 178 105 164 264 354 375 317 324 313 278 229 192 224 302
3924 3533 3333 3131 2959 2678 2596 3171 2624 2097 1770 1924 2006 1736 1610 1946 1961 2022 2110 1904 1500 1400 1386 1424 1106 999 766 263 68 55 112 256 399 432 330 288 407 460 336 329 231 226
4431 3339 3820 3601 2572 2231 2707 2993 2300 1703 1716 1548 1251 888 1568 1772 1776 1683 1682 1907 1805 1766 1718 1496 1150 958 558 197 32 77 160 280 410 443 387 414 514 466 608 630 412 483
4106 3969 4279 3666 3154 3018 3241 2819 2207 1905 1747 1468 1383 1431 1464 1534 1326 1288 1226 1556 1580 1548 1417 1368 937 446 200 92 151 256 330 453 458 353 282 424 513 400 396 371 489 549
4036 4188 3782 3781 3283 3634 3237 2655 2341 2095 1982 1952 2012 1924 1282 1112 1018 1031 1157 1030 1006 906 722 448 190 98 62 42 103 307 484 566 500 303 267 460 658 719 592 377 337 266
4829 4276 4088 3922 3791 3450 2940 2336 2301 2588 2685 2706 2252 1650 1096 951 793 805 766 522 451 307 147 143 119 176 144 59 68 373 608 564 633 749 628 570 704 736 809 787 704 567
5188 4461 4335 4068 4106 3664 3057 2478 2255 2360 2329 2432 2092 1584 1186 1037 812 795 714 464 494 448 270 128 146 176 46 0 64 362 771 887 792 814 830 817 876 912 807 644 517 605
4876 4355 4113 3815 3370 3074 2720 2746 2622 2628 2598 2342 2054 1932 1651 1505 1363 1439 912 635 554 593 438 419 357 64 0 0 19 568 912 1105 970 978 865 802 867 937 1004 782 584 569
4153 3890 3706 3412 3002 2701 2493 2484 2570 2626 2473 2372 2140 1905 2060 1883 1793 1624 857 381 382 442 534 527 228 73 0 0 441 642 941 1068 1012 958 777 1026 836 602 750 775 758 753
4212 3951 3664 3377 3186 2988 2767 2622 2540 2442 2366 2290 2226 2087 1904 1893 1720 1392 854 462 518 597 469 350 195 0 0 376 578 641 619 738 752 782 756 890 864 910 700 893 1430 1656
3836 3607 3386 3190 3083 2938 2873 2776 2614 2558 2459 2378 2240 2046 2045 1802 1485 1262 1024 801 765 704 448 272 340 61 0 298 505 523 499 542 993 1030 948 784 1108 1080 842 1094 1379 1231
3932 3532 3195 3135 3335 3178 2832 2652 2600 2542 2492 2331 2085 1742 1703 1580 1344 1134 1051 995 775 632 550 360 179 84 0 0 128 307 293 232 712 870 1006 1107 1168 1274 1058 936 1191 988
3428 3316 3268 3366 3293 3244 3161 3067 2887 2482 2356 2116 1821 1502 1566 1453 1204 804 797 921 867 691 647 535 346 0 0 0 12 282 202 102 620 1044 1098 1014 1186 1018 998 1215 1245 1034
3456 3358 3423 3330 3449 3399 3130 2876 2782 2911 2667 2394 1761 1330 1110 1101 1048 829 1016 1058 990 925 778 789 398 205 0 0 22 131 81 473 688 1008 1131 1272 1362 1353 1470 1336 1058 553
3113 2764 2946 3022 2908 2928 2914 2886 2782 2643 2526 2112 1932 1388 1020 796 935 1010 1099 1137 1018 947 756 646 473 892 0 0 160 158 80 574 840 730 1082 534 1098 1448 1438 1338 1070 598
2842 2894 3070 2804 2650 2627 2474 2323 2153 2079 1886 1821 1534 1593 1484 1143 712 710 669 759 482 751 488 560 390 1439 279 198 212 0 0 673 874 697 321 1339 1713 1521 1170 946 1114 602
3042 3121 2889 2720 2700 2553 2398 2280 2003 1836 1416 1562 1477 1311 1085 1032 879 818 909 832 642 884 840 574 424 927 503 228 0 0 0 933 583 1357 870 769 101 203 790 720 793 532

ECMWFNIL_con_mucape_006.txt.gz
CAPE
3988 3962 3870 3586 3458 3094 3491 3518 3067 2802 2880 2700 2540 2544 2359 2277 2170 1816 1488 1116 975 964 919 1184 760 1025 716 762 672 417 649 230 772 679 251 559 272 173 45 30 56 534
3985 3977 3815 3665 3888 3683 3613 3355 3082 2822 3028 2966 2591 2772 2583 2007 1786 1553 1229 1306 1202 976 1145 926 1199 926 688 529 637 603 532 625 388 116 642 603 280 458 155 454 173 477
3966 4046 3937 3624 3698 3354 2661 2967 3190 2972 2965 2700 2828 2397 2218 1825 1582 1423 1262 1060 924 760 1164 992 1024 882 710 763 706 530 751 493 469 162 914 550 926 561 704 228 478 336
3956 4039 3688 3308 3154 3251 3040 3067 3214 2890 2528 2548 2015 2015 1689 1322 1474 1168 1400 1498 1089 1080 894 876 785 594 646 604 899 807 573 632 577 499 323 916 1118 687 623 641 463 398
3889 3963 3621 3395 3133 3343 3113 2905 2466 2600 2012 2224 1875 1818 1772 1677 1600 1077 1313 1240 1391 1089 908 799 830 629 700 582 744 1002 676 790 710 848 872 723 1066 933 703 637 602 503
3845 3951 3801 3437 3401 3321 3104 2751 2457 2325 1916 1994 1698 1883 1828 1754 1327 1396 1176 1213 1130 634 742 673 625 525 643 734 619 643 583 422 404 583 557 438 433 534 429 775 651 480
3729 3883 3791 3504 3416 3360 2953 2687 2411 2293 1900 1695 1760 1708 1788 1627 1450 1519 1381 1245 786 748 632 560 572 484 578 758 703 737 750 606 606 860 538 639 631 437 294 350 812 1034
3477 3814 3773 3577 3327 3281 2812 2564 2401 2391 2224 1856 1785 2011 1818 1687 1718 1520 1450 1247 849 916 878 748 753 822 529 763 862 828 586 554 644 832 913 927 941 935 929 678 667 667
3505 3662 3677 3508 3163 2973 2508 2338 2581 2442 2091 1895 1570 1986 1919 1884 1877 1429 1415 1283 1010 991 1038 971 1078 948 540 529 740 848 696 408 382 588 658 513 446 614 689 784 730 691
3650 3553 3254 3027 2792 2663 2188 2067 2132 2021 2000 2103 2002 2029 2151 2330 2332 1421 1446 1365 1200 1275 1166 1004 1206 1046 765 730 769 816 729 713 627 678 677 664 595 579 573 624 697 791
3536 3442 3339 3080 2644 2392 2138 1770 1733 1584 1763 2572 2662 2343 2667 2872 2618 1606 1552 1451 1321 1556 1364 1204 1271 1148 1040 746 755 684 715 612 583 690 752 816 810 832 861 876 892 680
3470 3148 2997 3102 2818 2622 2235 1974 1773 1698 1896 2167 2386 2620 2911 3002 2488 1764 1787 1598 1331 1339 1239 1227 1249 1214 1040 724 498 392 351 292 432 605 670 748 705 704 842 861 764 878
3366 3286 3330 3310 3207 2987 2765 2317 1863 1719 1834 2320 2336 2552 2577 3134 2460 2062 1766 1405 1239 1068 1012 1098 1268 1191 1094 909 542 287 244 254 262 476 623 778 684 626 622 724 743 733
3376 3543 3524 3421 3262 3132 2804 2414 2234 2278 2394 2620 2321 2212 2517 2880 2599 2159 1829 1563 1304 1249 1082 1212 1443 1250 1219 986 486 249 293 351 416 482 552 669 658 698 601 297 472 698
3792 3914 3877 3738 3233 2884 2897 2758 2608 2866 3224 2960 2507 2279 2664 2602 2458 2361 2029 1773 1736 1680 1547 1571 1310 991 980 738 385 256 280 345 552 663 715 690 632 513 644 793 998 746
4293 4340 4260 4050 3608 3172 3100 3169 2845 2913 3196 3046 2671 2461 2375 2300 2079 1886 1765 1660 1919 1792 1555 1541 1256 994 717 360 164 222 283 349 519 681 721 664 686 720 762 1099 994 758
4662 4738 4614 4338 4018 3632 3308 3270 3322 3347 3138 2930 2708 2670 2470 2034 1674 1510 942 998 1530 1183 1127 997 994 547 18 0 0 52 240 395 543 767 828 951 880 861 914 892 804 651
4762 4881 4764 4670 4428 4127 3819 3644 3587 3466 3244 3032 3175 3202 2559 1931 1539 1090 719 744 1019 711 833 886 739 421 211 0 0 0 152 505 678 821 886 930 831 830 1065 1025 909 718
4948 5082 4930 4767 4658 4429 4302 4208 3857 3687 3696 3701 3387 2980 2356 1914 1195 1223 1321 1472 1549 1376 1101 983 900 504 220 0 0 0 8 404 708 934 966 842 849 893 991 1029 1111 1059
4878 5227 5128 4985 4776 4843 4783 4314 3848 3592 3338 3197 2977 2722 2573 2178 1540 1550 1686 1867 1901 1621 1402 1305 998 591 252 0 0 0 0 121 786 948 929 923 961 1014 947 774 867 791
5442 5810 5327 5168 5249 4842 4367 4146 3840 3655 3391 3151 2503 2442 2499 2432 2152 2154 2022 2114 2021 1902 1682 1376 874 480 90 0 0 0 0 21 828 838 990 1143 1229 802 619 610 640 699
5852 5785 5206 4826 4516 4378 4264 4046 3764 3552 3284 3210 2917 2615 2481 2462 2466 2375 2328 2241 2125 1931 1653 1228 760 404 93 0 0 0 0 166 908 1151 1218 1242 1091 856 1112 1394 1291 1306
5282 5074 4740 4524 4365 4140 4078 3946 3756 3629 3568 3488 3119 2833 2689 2622 2532 2443 2370 2283 2186 1866 1482 1082 793 539 174 0 0 0 0 512 1024 1057 1063 1009 842 998 1379 1327 1212 1332
4990 4792 4625 4509 4308 4223 3935 3792 3807 3887 3900 3365 3188 2947 2781 2619 2468 2420 2282 2111 1910 1698 1407 1138 900 626 395 202 0 0 88 655 741 881 929 968 1172 1246 926 1028 1174 1698
4548 4434 4331 4240 4132 4032 3917 3900 3787 3703 3533 3364 3150 2927 2753 2582 2416 2260 2019 1857 1614 1471 1250 1151 925 669 489 351 14 0 25 653 906 859 1087 1112 1030 941 664 690 1052 1684
4477 4434 4317 4208 3967 3970 3832 3793 3618 3520 3431 3148 2698 2525 2492 2389 2177 1453 1414 1114 1058 1334 1280 839 863 781 470 407 318 0 1 803 1023 1180 1025 971 602 799 1205 1203 1400 1372

ECMWFNIL_con_mucape_009.txt.gz
CAPE
2763 2788 2658 2300 2127 2194 2056 1967 2045 2037 1925 1877 1898 1744 1826 1742 1586 1483 1164 1087 600 409 198 174 95 234 60 44 321 110 20 54 29 0 0 30 0 11 30 36 58 85
2874 2821 2741 2412 2304 2031 2272 1897 1972 1925 1830 1730 1877 1706 1815 1695 1592 1355 1080 1088 236 107 132 30 19 128 53 14 35 40 120 12 190 34 18 49 0 0 6 2 15 72
2960 2885 2747 2577 2422 2150 2389 1964 1914 1952 1799 1781 1815 1676 1776 1586 1571 1312 1184 999 183 102 169 10 76 145 33 57 19 29 77 30 22 24 62 47 37 5 161 153 202 141
2935 2923 2767 2644 2470 2293 2400 2161 1888 2018 1781 1861 1753 1799 1408 1574 1488 1368 1129 809 569 170 129 68 126 121 62 64 17 56 43 4 37 19 214 159 90 1 34 100 155 72
2913 2898 2778 2668 2448 2401 2367 2234 1963 1980 1871 1908 1758 1815 1465 1416 1412 1262 1089 718 346 276 152 200 167 135 110 123 10 7 75 10 30 48 59 210 345 127 130 129 106 135
2932 2898 2800 2691 2478 2404 2344 2217 2036 1956 1889 1992 1877 1702 1595 1277 1045 1146 978 562 307 339 208 246 171 141 111 148 178 53 46 30 15 60 50 17 306 190 290 90 63 41
2908 2914 2839 2703 2506 2447 2276 2152 2140 1993 1852 1913 1922 1679 1567 1444 1089 809 635 447 374 332 237 257 200 151 110 75 144 320 76 69 31 130 111 58 230 340 213 136 71 67
2906 2875 2891 2716 2534 2442 2276 2070 2158 2007 1847 1784 1793 1701 1530 1419 1249 902 648 546 476 270 205 221 226 180 136 100 78 84 180 183 108 148 69 36 19 6 19 43 282 252
2812 2863 2870 2780 2574 2440 2376 2166 2087 1998 1849 1700 1602 1496 1439 1366 1191 930 722 597 486 314 211 209 338 262 174 160 119 66 99 186 159 235 117 14 52 36 35 43 70 164
2744 2780 2845 2801 2628 2474 2427 2313 2122 2001 1857 1679 1535 1438 1344 1259 1120 900 786 661 495 381 337 292 276 278 217 199 172 155 90 114 106 146 239 183 127 171 365 409 234 130
2747 2721 2765 2805 2659 2528 2469 2371 2213 2055 1906 1751 1602 1497 1400 1284 1084 967 876 725 563 413 323 291 303 194 177 221 238 241 162 124 102 84 123 145 100 58 228 123 202 296
2790 2720 2731 2773 2690 2548 2498 2374 2230 2081 1941 1805 1637 1522 1433 1312 1283 1113 982 858 691 562 471 329 360 262 189 168 250 278 229 173 138 133 148 155 148 122 174 168 145 126
2803 2714 2699 2746 2740 2583 2461 2369 2188 2045 1931 1837 1689 1526 1406 1293 1361 1226 1065 959 805 671 532 380 426 408 286 158 175 229 245 202 185 168 193 290 328 310 315 331 357 411
2868 2730 2667 2691 2729 2660 2485 2360 2206 1982 1899 1823 1721 1579 1444 1433 1531 1400 1199 1030 888 747 610 480 446 502 349 217 242 280 276 134 119 127 127 164 290 391 405 408 399 354
2912 2839 2734 2712 2721 2682 2528 2362 2212 2023 1867 1781 1682 1598 1454 1538 1754 1645 1382 1204 1060 894 712 584 457 571 473 287 305 249 41 32 7 31 56 93 184 289 294 220 306 316
2863 2874 2790 2772 2772 2714 2600 2436 2261 2051 1857 1749 1653 1588 1684 1773 2032 1913 1665 1455 1268 1085 886 702 580 648 669 400 345 289 193 177 0 0 9 42 143 327 346 308 275 272
2765 2816 2790 2777 2791 2790 2725 2569 2408 2217 1993 1757 1596 1600 1702 1859 2201 2181 2026 1814 1571 1328 1108 881 670 726 703 621 315 475 286 0 0 0 16 47 157 317 355 335 322 293
2734 2820 2824 2773 2778 2829 2812 2732 2582 2423 2241 2001 1851 1876 1800 1906 2202 2261 2179 2029 1844 1602 1334 1046 669 480 638 519 526 380 0 61 141 96 86 119 283 339 336 312 422 424
2717 2791 2869 2845 2825 2826 2835 2820 2732 2592 2415 2196 2244 2176 2036 2018 2162 2191 2150 2022 1850 1664 1464 1207 974 836 674 616 477 332 108 6 1 57 190 280 374 392 366 366 454 428
2740 2794 2862 2932 2928 2883 2835 2815 2776 2696 2577 2426 2352 2464 2336 2226 2156 2158 2151 2071 1959 1846 1703 1369 1320 1256 1213 1181 856 320 311 0 2 61 141 340 431 507 524 558 545 446
2772 2852 2901 3018 3079 3048 2933 2817 2770 2726 2654 2546 2393 2522 2566 2514 2466 2409 2322 2186 1937 1826 1827 1718 1651 1636 1479 1237 1041 936 356 398 47 165 232 456 535 582 614 675 652 598
2713 2906 3016 3172 3283 3260 3160 2992 2801 2682 2724 2748 2639 2577 2523 2462 2424 2332 2250 2143 2033 1892 1887 1952 1896 1844 1758 1640 1636 1505 1184 732 299 178 393 592 656 636 657 676 698 668
2558 2959 3207 3398 3486 3477 3406 3313 3190 2944 2929 2887 2792 2727 2687 2634 2555 2397 2319 2252 2187 2244 2177 2124 2032 2022 2059 1936 1826 1674 1541 939 527 534 418 738 804 747 717 680 651 604
2470 3027 3376 3580 3670 3689 3654 3584 3469 3314 3133 2985 2882 2804 2734 2666 2525 2404 2437 2181 2202 2316 2364 2374 2337 2234 2150 1931 1643 1656 1514 1311 962 787 644 549 791 739 681 653 767 1175
2837 3264 3540 3709 3826 3861 3836 3754 3649 3544 3400 3242 3096 2963 2873 2783 2719 2940 2964 2596 2408 2499 2502 2372 2304 2088 1842 1839 1676 1514 1349 1155 1106 922 711 502 742 723 684 669 851 1304
3360 3604 3767 3863 3922 3966 3907 3853 3761 3694 3599 3497 3401 3297 3209 3118 3090 3274 3084 2696 2561 2521 2520 2294 2064 1920 1737 1648 1402 1192 1092 887 797 722 617 542 666 670 639 615 649 694

ECMWFNIL_con_mucape_012.txt.gz
CAPE
1957 1887 1819 1702 1591 1534 1482 1550 1662 1802 1840 1896 2038 2073 2136 2175 2121 2006 1997 1834 1404 1289 1337 953 304 31 28 1 0 0 0 0 0 0 0 0 0 0 0 0 0 0
2025 1952 1870 1786 1685 1585 1507 1600 1672 1763 1831 1818 1924 2035 2085 2030 1949 1924 1924 1782 1330 1017 1019 719 3 1 0 0 0 0 0 0 0 0 0 0 0 0 0 0 0 0
2047 1999 1943 1865 1767 1726 1632 1656 1704 1727 1768 1755 1747 1845 1856 1901 1898 1904 1842 1695 1258 919 834 443 0 0 0 0 0 0 0 0 0 0 0 0 0 0 0 0 0 0
2055 2038 1994 1956 1845 1760 1752 1729 1763 1727 1677 1650 1552 1557 1634 1741 1787 1695 1664 1557 1110 959 832 434 0 0 0 0 0 0 0 0 0 0 0 0 0 0 0 0 4 11
2055 2038 2019 2030 1969 1822 1799 1792 1767 1727 1646 1531 1422 1428 1484 1530 1536 1522 1491 1354 1125 1065 863 515 0 0 0 0 0 0 0 0 0 0 0 0 0 0 0 5 5 0
2072 2056 2063 2080 2079 1964 1845 1818 1778 1725 1616 1489 1392 1392 1417 1478 1474 1463 1422 1296 1173 1091 799 0 0 0 0 0 0 0 0 0 0 0 0 0 0 6 0 1 0 0
2175 2144 2159 2145 2137 2065 1948 1856 1802 1716 1607 1472 1359 1402 1365 1438 1454 1422 1357 1282 1190 1081 0 0 0 0 0 0 0 0 0 0 0 0 0 0 6 63 13 6 0 0
2220 2195 2227 2225 2194 2139 2046 1923 1842 1739 1598 1445 1386 1391 1394 1405 1421 1403 1298 1196 1141 1055 602 0 0 0 0 0 0 0 0 0 0 0 0 0 0 24 7 15 0 0
2283 2232 2238 2281 2253 2189 2117 2012 1899 1773 1630 1467 1425 1398 1413 1415 1435 1392 1345 1248 1139 1050 772 51 0 0 0 0 0 0 0 0 0 0 0 0 0 0 7 6 6 4
2358 2293 2269 2304 2315 2271 2195 2107 1997 1889 1715 1570 1514 1457 1440 1416 1372 1395 1408 1349 1222 1082 843 618 494 0 0 0 0 0 0 0 0 0 0 0 0 0 0 0 2 4
2364 2341 2324 2330 2331 2313 2282 2192 2080 1973 1856 1734 1617 1557 1497 1454 1361 1280 1278 1269 1195 1120 1019 830 582 8 0 78 0 0 1 2 1 0 2 0 0 0 6 0 0 0
2359 2340 2355 2365 2368 2341 2317 2252 2140 2019 1953 1849 1713 1652 1615 1520 1447 1350 1256 1161 1143 1130 1078 926 609 445 422 389 0 0 0 10 10 10 21 24 5 0 0 1 0 0
2410 2359 2362 2389 2402 2399 2352 2290 2199 2074 1982 1938 1848 1750 1703 1684 1604 1498 1379 1257 1155 1064 936 762 639 558 531 455 3 0 0 2 11 6 6 18 21 12 1 1 0 0
2484 2399 2387 2409 2422 2424 2408 2339 2256 2135 2022 1954 1898 1846 1797 1748 1702 1597 1498 1421 1409 1337 1149 954 806 695 637 526 430 404 291 97 220 14 0 3 11 12 6 2 0 0
2541 2472 2417 2400 2418 2448 2451 2410 2321 2201 2087 1985 1912 1888 1841 1788 1672 1632 1601 1582 1567 1498 1354 1160 966 813 716 594 563 518 433 362 316 64 0 2 12 18 25 36 48 44
2620 2552 2481 2413 2399 2430 2462 2465 2383 2275 2169 2068 1971 1939 1914 1843 1746 1650 1601 1598 1572 1490 1372 1244 1067 909 800 729 705 665 620 558 442 358 140 8 31 38 47 36 54 63
2690 2638 2552 2492 2429 2414 2430 2454 2418 2353 2262 2167 2087 2020 1997 1934 1854 1752 1686 1609 1538 1487 1414 1305 1168 1028 927 879 822 763 710 660 567 465 338 21 52 235 39 46 41 24
2732 2696 2648 2609 2529 2468 2439 2457 2446 2404 2346 2292 2206 2127 2068 2002 1933 1865 1796 1727 1681 1607 1516 1392 1271 1125 1051 1010 951 874 764 708 658 535 413 306 286 291 87 50 49 27
2762 2711 2698 2679 2638 2566 2511 2482 2472 2427 2392 2332 2303 2262 2206 2122 2038 1940 1848 1782 1722 1662 1574 1468 1352 1240 1155 1098 1050 941 740 774 669 551 433 346 64 20 303 149 32 26
2790 2744 2724 2706 2686 2637 2551 2491 2479 2462 2424 2360 2340 2335 2267 2188 2118 2032 1945 1861 1772 1704 1635 1543 1454 1366 1296 1162 1287 1177 1128 933 856 764 514 462 496 326 474 243 2 7
2839 2786 2753 2702 2675 2665 2635 2558 2506 2452 2435 2423 2413 2391 2341 2269 2176 2122 2057 1961 1883 1806 1724 1650 1584 1445 1655 1658 1546 1511 1458 919 800 531 439 446 544 589 394 212 45 32
2874 2831 2764 2708 2677 2702 2689 2650 2590 2549 2533 2535 2502 2462 2410 2352 2305 2230 2174 2092 1987 1892 1876 1842 1830 1784 1767 1754 1723 1755 1696 1258 698 637 635 112 95 291 476 442 300 224
2835 2811 2782 2751 2720 2716 2721 2716 2685 2661 2667 2649 2606 2562 2539 2536 2510 2472 2409 2345 2259 2184 2115 2091 2037 2008 2023 2026 2112 2009 1787 1421 1462 1124 567 453 654 617 518 502 348 254
2784 2817 2815 2782 2743 2745 2714 2704 2705 2748 2787 2758 2722 2724 2714 2728 2678 2662 2623 2545 2490 2402 2325 2210 2196 2272 2329 2230 2157 2148 2138 1275 868 826 910 467 642 680 602 432 318 659
2730 2809 2827 2810 2810 2798 2771 2746 2758 2817 2846 2845 2862 2862 2872 2864 2871 2857 2804 2746 2734 2678 2543 2448 2463 2502 2481 2425 2268 2292 1937 1134 880 1021 698 686 766 675 544 428 466 810
2596 2722 2780 2819 2845 2863 2869 2859 2866 2872 2872 2917 2954 2968 3028 3048 3040 2988 2969 2987 2940 2867 2733 2774 2714 2840 2736 2616 2406 2149 1988 1322 1077 1369 1142 925 587 487 331 515 671 742

ECMWFNIL_con_mucape_015.txt.gz
CAPE
1418 1415 1433 1423 1427 1395 1287 1179 1295 1376 1416 1485 1559 1583 1652 1746 1769 1876 2036 2108 2120 2145 2220 2175 1575 1002 726 170 485 524 10 0 0 0 0 0 0 0 0 0 0 0
1524 1529 1539 1532 1533 1518 1438 1267 1300 1392 1463 1453 1489 1573 1660 1741 1817 1856 2009 2109 2174 2220 2258 2028 1424 861 724 674 707 541 0 0 0 0 0 0 0 0 0 0 0 0
1616 1608 1615 1600 1583 1566 1516 1433 1354 1393 1421 1396 1486 1634 1752 1807 1860 1911 1993 2085 2166 2194 2152 1972 1513 881 707 731 749 248 0 0 0 0 0 0 0 0 0 0 0 0
1648 1644 1644 1635 1607 1563 1540 1522 1515 1504 1447 1407 1503 1669 1771 1864 1926 1978 2004 2067 2138 2181 2146 1971 1593 1012 752 728 508 0 0 0 0 0 0 0 0 0 0 0 0 0
1671 1658 1644 1636 1620 1578 1540 1552 1582 1584 1518 1386 1521 1652 1773 1842 1895 1938 1981 2050 2127 2169 2122 1974 1638 1073 896 809 419 0 0 0 0 0 0 0 0 0 0 0 0 0
1629 1673 1683 1672 1658 1656 1621 1584 1595 1588 1540 1421 1509 1606 1734 1804 1843 1865 1934 2012 2085 2102 2068 1960 1668 1171 1037 992 807 369 0 0 0 0 0 0 0 0 0 0 0 0
1597 1664 1720 1726 1730 1734 1710 1691 1670 1631 1586 1523 1523 1576 1662 1757 1818 1852 1880 1929 1925 1934 1996 1971 1724 1233 1058 1005 811 0 0 0 0 0 0 0 0 0 0 0 0 0
1660 1682 1747 1783 1795 1807 1803 1774 1748 1713 1671 1608 1562 1584 1619 1710 1782 1811 1812 1788 1753 1776 1890 1896 1725 1291 980 940 745 20 0 0 0 0 0 0 0 0 0 0 0 0
1769 1766 1799 1837 1852 1862 1871 1857 1820 1782 1741 1712 1691 1667 1653 1698 1719 1708 1688 1670 1651 1672 1738 1757 1652 1334 975 888 758 524 0 0 0 0 0 0 0 0 0 0 0 0
1841 1832 1836 1878 1906 1919 1943 1931 1885 1835 1799 1764 1772 1749 1721 1693 1631 1584 1555 1547 1547 1545 1569 1606 1521 1253 1021 886 731 547 400 0 0 0 0 0 0 0 0 0 0 0
1915 1900 1904 1919 1943 1964 1979 1987 1970 1919 1872 1844 1822 1816 1780 1718 1615 1516 1483 1442 1430 1429 1447 1461 1403 1207 1026 843 645 523 451 169 0 0 0 0 0 0 0 0 0 0
1976 1990 1991 1996 2004 2014 2021 2019 2030 1995 1955 1934 1904 1852 1838 1763 1678 1582 1460 1448 1409 1380 1355 1328 1269 1149 978 728 548 536 461 0 0 0 0 0 0 0 0 0 0 0
2046 2062 2067 2062 2080 2084 2080 2085 2086 2055 2022 2003 1964 1932 1874 1805 1740 1652 1550 1443 1419 1362 1318 1267 1178 1098 1021 862 704 467 0 0 0 0 0 0 0 0 0 0 0 0
2131 2144 2138 2142 2147 2148 2153 2166 2151 2129 2102 2052 2017 1985 1934 1842 1749 1667 1600 1502 1435 1398 1368 1316 1239 1144 1092 1025 808 405 0 0 0 376 0 0 0 66 174 0 0 0
2225 2220 2235 2232 2220 2198 2209 2215 2213 2194 2148 2105 2082 2043 1985 1918 1807 1696 1610 1551 1512 1484 1456 1415 1362 1287 1213 1146 992 718 626 585 485 480 300 313 353 238 181 96 0 0
2319 2308 2306 2319 2304 2286 2268 2267 2274 2256 2206 2165 2142 2122 2093 2032 1930 1820 1723 1650 1611 1579 1543 1502 1470 1418 1340 1256 1160 1011 887 801 603 587 504 472 359 254 180 0 0 1
2427 2398 2367 2363 2368 2361 2361 2350 2317 2287 2256 2238 2214 2206 2181 2148 2068 1969 1881 1828 1765 1700 1621 1576 1568 1545 1438 1326 1212 1133 1048 960 751 653 603 628 586 382 0 0 0 0
2527 2486 2440 2414 2410 2426 2428 2409 2377 2332 2301 2284 2264 2229 2223 2217 2171 2074 1992 1927 1874 1827 1772 1732 1712 1651 1524 1388 1296 1230 1210 1102 966 859 706 686 698 466 193 292 296 332
2614 2578 2529 2493 2472 2468 2459 2449 2420 2384 2354 2322 2293 2267 2249 2235 2202 2139 2078 2016 1944 1888 1857 1870 1864 1774 1635 1446 1368 1357 1348 1294 1194 1070 893 859 864 768 512 164 129 424
2666 2646 2631 2597 2549 2508 2498 2490 2438 2425 2391 2359 2326 2285 2267 2231 2185 2159 2124 2057 1978 1933 1908 1870 1841 1796 1690 1570 1489 1432 1385 1247 1002 1038 1126 892 864 723 596 329 306 299
2718 2705 2696 2672 2620 2579 2554 2503 2453 2456 2434 2401 2355 2320 2284 2242 2197 2172 2139 2078 2002 1927 1894 1878 1846 1810 1731 1675 1618 1556 1486 1338 1108 865 931 733 695 660 501 375 227 258
2750 2748 2736 2705 2676 2647 2594 2535 2480 2450 2455 2442 2398 2347 2294 2245 2191 2151 2114 2080 2032 1985 1954 1948 1903 1863 1802 1757 1698 1622 1514 1455 1230 1172 971 839 746 387 107 99 210 296
2749 2754 2738 2728 2708 2684 2637 2568 2512 2486 2455 2423 2401 2356 2328 2265 2200 2149 2136 2126 2096 2069 2050 2012 1979 1936 1901 1840 1773 1678 1609 1532 1473 1441 1251 1200 998 868 432 331 179 0
2736 2757 2746 2733 2723 2710 2686 2626 2587 2549 2514 2456 2421 2364 2333 2312 2241 2202 2179 2178 2143 2118 2085 2041 2046 2027 1995 1947 1861 1785 1662 1688 1493 1428 1468 1312 888 659 358 364 295 60
2705 2765 2764 2744 2749 2735 2702 2668 2628 2616 2578 2515 2456 2395 2388 2321 2268 2241 2239 2210 2196 2193 2140 2106 2091 2055 2032 1994 1953 1946 1910 1717 1513 1432 1177 1256 930 657 421 0 0 179
2672 2765 2795 2776 2759 2735 2705 2676 2635 2627 2628 2572 2521 2477 2437 2367 2317 2300 2252 2220 2226 2229 2192 2187 2167 2139 2145 2178 2250 2241 2149 1933 1703 1325 1262 1150 994 699 484 319 110 4

ECMWFNIL_con_mucape_021.txt.gz
CAPE
2164 2101 1978 1950 1961 1925 1994 2094 1995 2086 2308 2186 2266 2424 2649 2999 3126 3143 3176 3270 3406 3427 3480 3496 3377 3269 3118 3049 2865 2644 2445 2395 2248 2060 1824 1421 1267 965 946 868 902 705
2075 2083 1989 1975 1984 2052 2130 2116 2105 2059 2311 2374 2285 2503 2787 2989 3054 3024 3152 3236 3368 3310 3472 3369 3368 3318 3183 2928 2818 2584 2505 2326 2324 1891 1726 1532 1410 1222 952 1095 1002 812
1987 1993 2030 1969 1933 1975 1710 1894 2060 2176 2186 2246 2320 2485 2572 2662 2713 2866 3054 3114 3178 3060 3339 3364 3306 3304 3169 2968 2822 2540 2420 2388 2213 1852 1492 1548 1351 1232 1132 750 890 948
1906 1952 1880 1781 1836 1894 1851 1978 2079 2098 2001 2164 2241 2260 2294 2347 2498 2746 2892 2982 3094 3154 3236 3289 3186 3161 3122 2919 2738 2493 2434 2400 2201 1819 1470 1526 1461 1244 1107 998 755 808
1848 1880 1836 1871 1869 2006 2071 2047 1873 1931 1950 2021 2152 2260 2447 2520 2602 2537 2690 2954 3002 3151 3274 3309 3268 3120 3075 2828 2634 2456 2286 2278 1933 1787 1552 1505 1480 1194 1063 1037 951 799
1871 1886 1920 1921 1991 2104 2056 1978 1935 1900 1972 1840 2176 2206 2296 2473 2505 2430 2632 2688 2816 2799 2952 3124 3196 2988 2891 2762 2520 2392 2153 2013 1883 1769 1387 1423 1304 1009 829 950 922 820
1880 1915 1875 1847 1908 2031 2050 1983 2024 2025 1986 1985 2192 2232 2243 2334 2482 2540 2658 2676 2630 2785 2852 3103 3198 3014 2774 2677 2462 2346 2202 2000 1892 1782 1268 1326 1326 1144 758 819 845 784
1728 1753 1787 1758 1787 1844 1972 2022 2058 2148 2124 2150 2146 2290 2298 2249 2504 2529 2670 2713 2614 2880 3018 3188 3265 3113 2688 2486 2433 2320 2228 1845 1952 1924 1246 1296 1255 1252 1016 726 792 808
1728 1842 1874 1864 1804 1781 1842 1860 2045 2119 2108 2218 2070 1992 2284 2239 2442 2481 2713 2830 2738 2950 3134 3172 3235 3078 2711 2464 2413 2336 2208 1902 1951 1937 1600 1277 1221 1194 1088 868 755 765
1967 1949 1843 1801 1774 1766 1782 1763 1803 2004 2178 2162 2028 1944 2210 2291 2406 2548 2777 2938 2824 2954 3117 3084 3090 2948 2739 2426 2417 2330 2204 1910 1908 1904 1780 1303 1212 1166 1048 950 799 806
1926 1932 1912 1859 1789 1742 1806 1780 1791 1868 2035 2042 1993 2012 2167 2353 2435 2620 2829 2940 2776 2893 3005 3012 2960 2868 2746 2391 2314 2258 2200 2012 1824 1823 1769 1475 1188 1263 902 1018 877 820
2012 1907 1876 1888 1848 1880 1879 1877 1880 1923 2025 2089 2034 2089 2179 2298 2501 2553 2632 2831 2810 2835 2959 2995 2916 2820 2714 2494 2205 2102 2072 2013 1834 1735 1700 1594 1308 1220 1118 1034 961 892
1947 1967 2043 2014 2117 2065 2112 2090 2041 2006 2022 2117 2081 2085 2142 2284 2389 2562 2572 2690 2810 2815 2848 2922 2914 2779 2702 2558 2293 2114 2046 1995 1791 1680 1662 1532 1446 1220 1028 956 870 888
2005 2126 2228 2276 2288 2336 2362 2273 2212 2202 2236 2252 2254 2188 2148 2242 2324 2476 2607 2576 2684 2746 2770 2838 2872 2778 2706 2591 2309 2090 1988 1948 1769 1600 1594 1523 1482 1381 1059 860 814 758
2295 2304 2411 2458 2460 2579 2582 2510 2460 2470 2456 2446 2440 2334 2242 2283 2321 2363 2457 2471 2490 2596 2644 2642 2624 2601 2588 2505 2302 2078 1992 1848 1756 1618 1494 1475 1444 1395 1267 928 761 672
2664 2654 2744 2692 2586 2662 2825 2735 2640 2632 2622 2636 2640 2501 2422 2364 2380 2370 2333 2400 2393 2410 2474 2444 2430 2464 2063 1703 1682 2029 1941 1768 1665 1609 1479 1384 1358 1320 1279 1102 795 659
2702 2671 2648 2703 2647 2731 2709 2741 2739 2770 2780 2792 2711 2630 2480 2533 2507 2446 2280 2310 2306 2338 2320 2254 2114 2204 1694 1521 1434 1391 1718 1760 1621 1528 1399 1310 1296 1302 1281 1081 815 634
2616 2715 2754 2787 2793 2748 2774 2782 2721 2722 2780 2804 2746 2655 2646 2594 2519 2498 2508 2319 2280 2292 2294 2262 2139 1832 1592 1485 1416 1391 1361 1640 1644 1522 1322 1223 1220 1246 1260 1070 822 566
2814 2834 2808 2851 2900 2788 2758 2767 2827 2816 2813 2790 2727 2766 2642 2614 2643 2554 2536 2382 2268 2170 2148 2108 2219 1778 1566 1489 1438 1397 1371 1327 1644 1516 1289 1184 1169 1197 1218 1154 940 634
2857 2744 2769 2871 2927 2892 2898 2905 2844 2827 2770 2750 2723 2736 2697 2647 2548 2616 2570 2472 2292 2208 2032 2205 2020 1827 1598 1508 1462 1442 1399 1364 1566 1566 1434 1248 1200 1193 1197 1150 1030 697
2950 2885 2883 2945 2967 2994 2991 2951 2870 2872 2849 2807 2698 2699 2707 2618 2573 2581 2503 2383 2230 2083 2094 1979 1994 1779 1636 1558 1516 1466 1411 1340 1305 1574 1533 1343 1295 1287 1236 1140 1036 753
2870 2961 3004 3019 2982 2944 2974 2956 2968 2985 2987 2914 2787 2729 2670 2612 2560 2551 2561 2530 2369 2200 2101 1989 2027 1793 1665 1593 1572 1536 1445 1356 1314 1574 1541 1358 1376 1358 1341 1304 1236 1081
2833 2949 3028 3019 3004 3019 3022 2948 2997 3096 3110 3014 2846 2832 2698 2576 2311 2262 2308 2563 2408 2299 2136 2058 2080 1840 1728 1635 1591 1568 1504 1438 1363 1325 1526 1402 1420 1435 1394 1398 1380 1323
3021 3077 3108 3036 3050 3057 3087 3036 3011 3064 3072 2995 2972 2878 2709 2667 2548 2501 2614 2497 2296 2260 2182 2172 2269 1926 1773 1690 1645 1560 1524 1502 1456 1393 1406 1506 1622 1520 1423 1450 1447 1445
3279 3244 3203 3190 3201 3220 3101 3100 3037 3090 3033 2970 2890 2866 2796 2750 2549 2649 2492 2450 2516 2418 2242 2090 2197 2166 1865 1793 1753 1707 1597 1528 1500 1481 1460 1488 1569 1510 1440 1498 1526 1527
2962 3116 3225 3252 3318 3178 3134 3178 3197 3088 3105 3038 2953 2898 2912 2756 2685 2509 2560 2657 2383 2546 2344 2117 2197 2440 1988 1884 1874 1824 1752 1641 1583 1553 1568 1563 1525 1502 1519 1550 1556 1591

ECMWFNIL_con_mucape_024.txt.gz
CAPE
3201 3370 3410 3302 3337 3037 3030 3057 2964 2910 2961 2664 2716 2921 2848 3101 3128 2785 3139 3387 3687 3578 3423 3467 3467 3422 3265 3066 3250 3088 2613 2663 2476 2207 2233 2012 1946 1636 1111 716 591 467
3037 3080 2946 3125 3321 3209 3148 3179 3272 3017 3104 2966 2686 2660 3034 2993 3354 3208 3300 3550 3833 3666 3613 3380 3441 3511 3275 2696 3148 3042 2879 2742 2735 2410 2316 2138 2046 1900 1175 1005 882 765
3037 3006 3082 3174 3344 3290 2988 3093 3253 3243 3004 2998 2882 2737 2818 3140 3289 3594 3564 3636 3487 3285 3410 3402 3448 3576 3368 3054 3202 3238 2841 3001 2797 2269 2404 2363 2266 2050 1393 949 939 932
3147 3110 3077 3268 3135 3181 3145 3026 3122 3191 3038 2935 3081 2886 2725 2813 3256 3613 3754 3628 3328 3382 3204 3308 3238 3055 3266 3258 3389 3258 2987 3106 2876 2669 2531 2502 2475 2138 1526 1116 848 767
3114 2959 3134 3447 3202 3066 3190 3072 2938 3064 3099 2869 2934 3054 2990 3032 3337 3362 3561 3729 3529 3400 3468 3442 3451 3194 3320 3391 3548 3357 3020 3107 2983 2987 2698 2571 2557 2177 1702 1307 1015 795
3323 3342 3452 3373 3284 3139 3030 3111 3155 2964 3101 2790 2968 3035 3091 3313 3254 3120 3265 3438 3616 3212 2976 3237 3440 3246 3163 3461 3562 3363 3006 2873 2848 3050 2911 2694 2478 2203 1647 1375 1365 1020
3206 3334 3327 3355 3210 3132 3237 3136 3153 2981 2943 3026 3027 3039 3104 3306 3446 3389 3212 3328 3292 3412 2963 3177 3524 3440 3307 3438 3513 3428 3410 3398 2992 2838 2842 2787 2521 2220 1750 1358 1591 1352
3092 3146 3311 3220 3160 3064 3162 3110 3101 3107 3094 3122 2913 3191 3174 3092 3527 3481 3298 3336 3291 3438 3454 3325 3682 3814 3458 3456 3643 3634 3694 3672 3218 2912 2954 2908 2463 2392 2234 1541 1716 1572
3084 3116 3142 3122 3030 3038 2855 2840 3032 3214 3115 3039 2964 2876 3229 3156 3303 3471 3542 3518 3483 3460 3643 3513 3691 4115 3855 3678 3702 3820 3811 3432 3134 3123 3100 2977 2524 2508 2460 2005 1676 1624
3077 2968 2874 2920 2829 2794 2766 2746 2774 2973 3072 2969 2913 2742 2986 3265 3196 3385 3609 3720 3626 3619 3700 3716 3795 4000 4139 3838 3922 3933 3922 3609 3380 3320 3424 3326 3014 2786 2496 2211 1873 1687
2800 2794 2789 2862 2751 2641 2640 2642 2670 2723 2877 2960 2926 2806 2746 3110 3344 3371 3586 3862 3772 3730 3737 3882 3912 4161 4251 3954 3814 3914 3833 3448 3396 3463 3473 3417 3141 2899 2416 2319 2101 1689
2794 2754 2568 2620 2660 2617 2493 2468 2450 2497 2658 2860 2928 2889 2912 2876 3364 3408 3414 3808 3905 3865 3794 3870 3985 4154 4256 4097 3582 3601 3678 3452 3374 3531 3440 3427 3266 2941 2701 2418 2285 1933
2658 2728 2708 2543 2686 2660 2585 2422 2364 2319 2426 2648 2842 2912 2945 2918 2974 3508 3452 3639 3963 3952 3800 3926 3998 4008 4202 4210 3921 3544 3564 3585 3218 3463 3467 3378 3303 2961 2706 2499 2313 2104
2682 2896 2929 2781 2750 2886 2759 2586 2465 2484 2563 2609 2790 2942 2881 2884 2938 3353 3606 3520 3810 3972 3856 3881 3958 3919 4156 4285 4213 3758 3519 3686 3511 3282 3450 3394 3272 3021 2662 2449 2384 2179
3036 3015 3054 3011 2812 3027 3010 2891 2873 2909 2804 2807 2914 3024 3042 2993 2938 3149 3602 3650 3562 3849 3820 3735 3773 3927 3986 4143 4215 3964 3638 3516 3633 3372 3431 3414 3314 3082 2869 2576 2459 2340
3178 3170 3226 3264 3252 3193 3314 3212 3002 2986 3020 3026 2988 3165 3317 3205 3134 3171 3366 3600 3651 3776 3829 3710 3668 3833 3439 3183 3465 3918 3827 3472 3524 3502 3450 3354 3392 3236 2951 2791 2540 2369
3458 3424 3481 3618 3544 3510 3456 3492 3322 3257 3215 3255 3267 3336 3497 3468 3331 3261 3237 3438 3544 3603 3722 3713 3496 3353 2902 2804 3028 3034 3490 3790 3518 3615 3610 3446 3352 3415 3174 2860 2758 2494
3696 3815 3812 3825 3814 3732 3631 3670 3617 3466 3521 3579 3438 3434 3662 3612 3452 3415 3483 3352 3507 3578 3531 3575 3505 2736 2430 2502 2692 2648 2604 3372 3550 3472 3528 3476 3393 3383 3288 2980 2768 2692
4070 3974 4000 3991 4067 3974 3936 4023 3894 3815 3720 3676 3636 3701 3716 3816 3763 3576 3571 3411 3385 3554 3531 3475 3349 2660 2378 2341 2378 2436 2304 2382 3275 3443 3348 3410 3364 3366 3331 3135 2920 2742
4385 4246 4171 4201 4229 4131 4065 4122 4138 3984 3810 3836 3761 3833 3750 3735 3467 3464 3414 3157 3373 3272 3436 3596 3486 2885 2436 2246 2197 2266 2234 2102 2925 3309 3367 3319 3335 3360 3309 3194 3128 2932
4448 4242 4218 4363 4376 4268 4274 4245 4141 4032 3952 3859 3659 3709 3769 3574 3229 3418 3494 2944 2902 2954 2731 2766 3156 2893 2594 2303 2197 2176 2128 2034 2378 2842 3226 3352 3339 3310 3294 3171 3202 3100
4304 4339 4333 4224 4226 4276 4230 4139 4085 4102 4088 3879 3673 3611 3540 3343 3327 3134 2898 3120 3107 2746 2996 2995 3005 2685 2611 2448 2261 2108 2037 1967 2035 2584 2958 3109 3232 3257 3229 3158 3094 3192
4294 4292 4106 4052 4054 4234 4222 4101 4095 4134 4054 3948 3884 3693 3556 3453 3215 2963 2801 2924 2739 3017 3022 2953 2703 2771 2353 2266 2141 2109 2083 2015 1986 2339 2730 3024 3097 3166 3018 2947 3039 3148
4148 4058 4095 4046 4146 4246 4246 4136 4031 4060 4118 3990 3913 3746 3478 3515 3435 3380 3235 2846 3018 2859 2745 2840 2730 2846 2516 2329 2130 2068 2077 2065 2021 2246 2443 2784 3000 2820 2630 2592 2620 2447
3986 3971 4046 4125 4175 4201 4194 4162 3996 4056 3938 3933 3864 3764 3651 3675 3460 3382 3298 3248 2931 2645 2541 2609 2754 2705 2551 2472 2286 2194 2097 2074 2221 2231 2292 2692 2881 2847 2706 2567 2650 2290
3851 4036 4145 4196 4238 4175 4086 4065 4004 3862 3944 3889 3875 3686 3723 3612 3218 3269 3140 3023 2794 2781 3044 2578 2584 3264 2587 2556 2428 2326 2225 2111 2315 2242 2382 2633 2840 2612 2610 2672 2702 2761

ECMWFNIL_con_mucape_027.txt.gz
CAPE
3136 3222 3131 2796 2799 2798 2741 2810 3174 3569 3527 2755 2590 2932 2980 2754 2568 2039 2290 2492 3059 3232 3120 3057 3219 3342 3590 3430 3300 3135 2629 2682 2515 2550 2619 2218 1654 1038 1115 1141 845 468
3399 3369 3375 3226 3197 3140 3110 2899 3089 3304 3522 3342 2472 2475 2951 2909 2762 2370 2468 2747 3060 3464 3576 3115 3332 3512 3492 2947 3099 3075 2954 2690 2930 2458 2660 2372 1835 1450 1290 1395 971 536
3543 3478 3578 3440 3294 3302 2954 3010 3135 3260 3260 3386 2954 2388 2557 3030 3067 3052 2685 2911 3128 3432 3776 3452 3264 3569 3454 2985 2953 3024 2799 2964 2882 2266 2609 2304 1701 1618 1689 1303 1082 851
3748 3857 3504 3426 3344 3355 3215 3058 3183 3349 3309 3278 3367 2804 2278 2497 3139 3418 3333 3367 3121 3408 3557 3467 3062 3190 3450 3308 3166 3017 2956 3066 3042 2733 2640 2489 2202 1905 1677 1631 1260 1036
3791 3874 3762 3578 3368 3580 3633 3184 3190 3353 3529 3407 3313 3248 2827 2674 2993 3315 3579 3420 3489 3631 3462 3231 3177 2895 3247 3373 3306 3248 3041 3014 3018 3035 2856 2716 2542 2133 1759 1795 1652 1292
3641 3713 3799 3628 3834 3724 3328 3472 3547 3476 3597 3304 3181 3147 3091 2982 2823 3121 3495 3634 3617 3490 2834 3009 3257 2978 3045 3399 3444 3353 3189 2804 2713 3100 3068 2981 2537 2039 1710 1848 1812 1415
3491 3702 3717 3788 3877 3476 3535 3788 3796 3590 3607 3478 3221 3114 3166 3304 3258 3149 3435 3767 3653 3621 3024 2989 3373 3360 3123 3338 3577 3587 3650 3228 2838 3041 3290 3122 2880 2282 1827 1905 1964 1603
3525 3675 3727 3851 3732 3629 3825 3754 3744 3769 3689 3595 3157 3264 3112 3302 3602 3533 3449 3589 3667 3835 3474 2992 3432 3556 3302 3112 3480 3731 3828 3482 3151 2956 3395 3360 3006 2651 2212 1874 1928 1980
3648 3818 3990 3791 3617 3341 3510 3478 3830 3941 3733 3521 3326 3016 3439 3218 3532 3788 3851 3811 3766 3767 3890 3320 3551 3624 3641 3442 3424 3704 3875 3564 3495 3139 3300 3394 3005 2759 2343 2140 2058 2068
3787 3710 3659 3482 3354 3241 3344 3350 3388 3712 3856 3480 3200 2957 3194 3670 3504 3828 4132 4135 3855 3821 3924 3824 3573 3712 3846 3596 3557 3659 3880 3891 3695 3534 3246 3150 2920 2757 2521 2339 2174 2212
3676 3621 3583 3597 3325 3150 3282 3238 3037 3087 3486 3513 3350 2894 2692 3372 3764 3756 4145 4361 4080 3956 3984 4009 3776 3807 4144 4048 3762 3584 3927 3879 3818 3684 3438 3323 3137 2966 2667 2644 2472 2296
3784 3348 3330 3566 3538 3248 3111 3085 2849 2506 2890 3354 3367 3153 2857 2623 3718 3816 3930 4438 4442 4205 4099 4122 4192 4129 4121 4095 3760 3423 3725 3932 3889 3740 3652 3464 3489 3250 2942 2823 2745 2562
3597 3386 3424 3449 3725 3407 3140 3014 2656 2361 2317 2754 3310 3211 2997 2741 3041 3970 3966 4224 4626 4408 4159 4323 4401 4244 4336 4372 4076 3728 3802 4047 3772 3651 3595 3576 3569 3371 3201 3103 2928 2875
3563 3762 3812 3858 3878 3993 3679 3102 2936 2634 2475 2542 3221 3469 3241 3059 2899 3634 4021 3979 4403 4540 4449 4406 4420 4375 4485 4525 4455 4020 3798 3993 4088 3676 3558 3535 3636 3551 3290 3058 3056 3074
4151 3904 4056 4040 3869 4262 4031 3548 3462 3500 3330 3077 3631 3622 3492 3303 3172 3219 3914 4102 4246 4567 4546 4411 4361 4423 4242 4398 4610 4495 3911 3814 4207 3837 3435 3424 3638 3494 3344 2949 2904 2954
4701 4487 4424 4357 4078 4415 4633 4274 3514 3592 3423 3739 3649 3524 3772 3671 3690 3414 3535 4148 4264 4338 4470 4436 4337 4335 4060 3977 4182 4611 4266 3757 3952 4117 3740 3374 3585 3630 3211 3148 2913 2741
4664 4542 4578 4624 4475 4233 4471 4630 4270 3666 3788 4085 3879 3651 3952 4257 3803 3412 3397 3743 4053 4192 4337 4344 4306 4336 3914 3754 3936 4026 4308 4162 3821 4014 3997 3593 3461 3771 3617 3283 3065 2747
4672 4667 4698 4800 4749 4530 4539 4667 4422 4082 3991 3961 3717 3554 4038 3709 3746 3752 3857 3472 3782 4027 4017 4234 4424 3984 3746 3673 3649 3714 3800 4305 4100 3735 3894 3871 3575 3525 3613 3428 3180 3055
4890 4752 4798 4844 4946 4801 4624 4708 4624 4298 4004 3822 3773 3762 3543 4018 4229 3982 3959 3783 3782 4085 4012 3981 4215 3850 3709 3527 3424 3437 3487 3540 3870 3958 3762 3941 3812 3539 3646 3646 3408 3199
5111 4963 4966 5097 5220 5044 4750 4678 4617 4448 4111 3938 3953 3991 3854 4017 3993 4213 4213 4159 3922 4000 4271 4274 4281 3893 3734 3473 3360 3269 3261 3265 3767 3926 3994 3806 3902 3870 3740 3648 3615 3405
5197 5168 5274 5276 5335 5222 5023 4793 4781 4751 4403 4003 3841 4017 4035 3999 4088 4335 4340 4198 4065 3857 4071 4230 4033 3814 3750 3628 3338 3197 3073 2979 3728 3706 3808 3952 3953 3988 3958 3667 3726 3602
5119 5344 5359 5367 5300 5368 5130 4937 4892 4952 4728 4340 4064 3918 4069 4103 4226 4205 4261 4229 4315 4237 3796 3688 3419 3273 3492 3599 3484 3184 2954 2840 3394 3690 3652 3750 4008 4073 3953 3940 3772 3829
5077 5329 5362 5357 5371 5363 5238 4983 4972 5082 4995 4618 4277 4078 4099 4150 4035 4026 3997 3665 3969 3995 3522 3578 3526 3431 3184 3296 3467 3383 3078 2750 3288 3619 3663 3712 3871 4077 3947 3846 3854 3918
5235 5411 5490 5400 5348 5376 5374 5089 4914 4973 4984 4771 4421 4178 3934 4143 4042 3976 3912 3742 3276 3606 3552 3657 3505 3421 3089 3045 3219 3278 3191 3007 3288 3478 3595 3731 3751 3854 4001 3927 3783 3253
5199 5355 5489 5470 5507 5489 5380 5201 4886 4940 4913 4753 4533 4329 4079 4031 3994 4006 3961 3951 3860 3785 3221 3198 3562 3491 3232 3138 3049 2969 3052 3056 3281 3400 3500 3612 3609 3675 3807 3755 3790 3476
5085 5554 5536 5504 5451 5430 5361 5252 4994 4790 4821 4674 4564 4385 4145 3945 3914 3884 4052 4059 3884 3563 3469 3222 3448 3910 3124 3092 3064 3029 2969 2952 3408 3413 3336 3359 3525 3315 3352 3381 3358 3467

ECMWFNIL_con_mucape_030.txt.gz
CAPE
3297 3302 3346 3332 3060 2522 2357 2715 3362 3459 3466 3063 3318 3324 3170 3338 3137 2822 2718 3100 3448 3486 3502 3796 3746 4208 4066 4136 4257 3938 3627 3097 2687 3310 3012 2935 2638 2173 1601 959 944 806
3263 3387 3305 3262 3145 2788 2735 2738 3017 3496 3872 3766 3326 3497 3660 3628 3341 3158 2976 2976 3424 3411 3518 3666 3863 3831 3871 3782 4083 3807 3925 3637 3394 2863 3046 3016 2770 2293 1781 1420 1206 1056
3182 3445 3606 3245 2934 2899 2257 2668 2884 3455 3875 3856 3688 3689 3786 3576 3488 3169 3384 3129 3224 3096 3682 3514 3724 3908 3881 4017 4052 3785 3760 3672 3269 2272 3027 3037 2637 2286 1859 1200 1343 1351
3228 3276 3078 2819 2649 2658 2500 2531 2762 3167 3344 3854 3627 3328 3226 3005 3207 3336 3133 3493 3179 3231 3572 3698 3435 3583 3899 3994 4055 3841 3694 3797 3367 3128 3194 3128 2924 2416 1912 1776 1498 1398
3359 3298 3088 2921 2736 2810 2667 2477 2369 2864 2914 3130 3712 3431 2980 3098 3596 3428 3234 3341 3519 3608 3862 3923 3829 3652 3974 3960 3826 3577 3472 3734 3522 3588 3414 3185 3071 2646 2172 1938 1988 1547
3524 3315 3229 3251 3082 3102 2955 2673 2722 2591 2750 2612 3467 3551 3299 2942 3593 3351 3480 3213 3338 3444 3351 3793 3942 3536 3962 4048 3886 3536 3301 3285 3287 3659 3542 3288 2920 2540 2098 2073 2206 2051
3504 3525 3250 3267 3207 3222 3248 3084 2888 2790 2969 2876 3267 3438 3431 3043 2955 3260 3664 3556 2960 2988 3135 3491 3843 3525 3530 3877 3881 3660 3604 3546 3440 3665 3542 3370 3095 2752 2241 2238 2284 2154
3340 3339 3404 3099 2972 3041 3103 3182 3269 3086 3057 3282 3314 3507 3611 3334 3018 2906 3616 3956 3646 3389 3353 3728 3980 3769 3629 3645 3839 3871 3717 3614 3515 3776 3580 3449 3308 3157 2623 2220 2459 2254
3660 3511 3392 3190 2556 2622 2764 2678 3226 3392 3240 3409 3305 3351 3612 3415 3384 2906 3165 3950 3882 3905 3915 3769 3919 3853 3497 3447 3796 3858 3690 3375 3302 3497 3592 3474 3451 3310 2994 2449 2441 2446
3664 3549 3424 2913 2986 3240 2758 2497 2810 3015 3306 3313 3318 3236 3595 3462 3592 3394 3305 3619 3992 4153 4245 3929 3852 3840 3646 3474 3735 3868 3800 3793 3614 3451 3446 3448 3406 3405 3186 2704 2328 2465
3364 3424 3660 3606 3320 3057 2996 2874 2742 2629 3016 3103 2952 3153 3385 3505 3509 3840 3894 3804 3868 4177 4386 4230 3848 3874 3718 3494 3638 3854 3863 3830 3786 3695 3498 3478 3532 3563 3242 2950 2516 2319
3494 3164 3215 3370 3148 2706 2944 2768 2611 2581 3216 3505 3342 3316 3281 3387 3529 3705 4043 4138 3884 3935 4263 4392 4089 3904 3871 3706 3487 3599 3840 3846 3814 3762 3658 3560 3608 3685 3549 3153 2808 2440
3607 3286 3080 3020 3214 2918 2898 2852 2810 2682 2868 3171 3435 3364 3177 3153 3566 3576 3828 4335 4207 4026 4016 4224 4286 3980 3914 3951 3794 3612 3720 3891 3848 3864 3715 3662 3629 3621 3524 3270 2957 2718
3512 3701 3377 3389 3356 3275 3178 2898 2778 2923 2828 3264 3735 3610 3359 2967 3292 3765 3702 4075 4429 4220 4089 4081 4225 4161 4041 4099 4059 3942 3876 3922 3891 3900 3746 3752 3611 3524 3339 3087 2959 2806
3900 3928 3696 3498 3514 3553 3378 3105 3031 3154 3096 3227 3734 3778 3371 3152 2958 3679 3920 3839 4239 4486 4291 4098 4080 4120 3995 3992 4118 4138 4043 3894 3940 3885 3898 3837 3685 3472 3448 3295 3080 2812
4190 4080 3956 3687 3572 3736 3650 3425 3271 3445 3378 3297 3356 3813 3768 3580 3160 3002 3790 3945 3899 4419 4574 4356 4093 4008 3717 3612 3693 3925 3928 3674 3771 3908 3942 3862 3763 3588 3476 3509 3354 2979
4520 4416 4300 4061 3848 3825 3923 3803 3586 3589 3645 3481 3346 3612 3878 3909 3759 3381 2970 3660 3905 4064 4490 4437 4219 3998 3732 3600 3582 3543 3712 3591 3549 4020 4018 3826 3731 3734 3598 3608 3491 3183
4697 4648 4612 4475 4197 4054 4184 4163 3868 3687 3767 3762 3461 3459 3915 4070 3924 3839 3482 3316 4013 4041 4073 4484 4476 3988 3854 3970 3785 3506 3447 3572 3501 3748 4130 4014 3777 3717 3667 3540 3489 3382
4971 4879 4809 4802 4661 4344 4267 4426 4328 3954 3814 3790 3601 3531 3697 4134 4168 4013 3915 3605 3725 4268 4190 4317 4548 4262 4114 4013 3931 3839 3736 3554 3746 3526 3626 3990 3883 3660 3559 3562 3453 3399
5239 5076 4978 4973 5009 4831 4492 4472 4511 4314 3934 3754 3708 3736 3872 4058 4160 4127 4011 3954 3770 4060 4381 4386 4361 4197 4184 4027 3902 3812 3751 3519 3723 3862 3538 3547 3847 3843 3528 3429 3513 3378
5438 5268 5158 5154 5274 5203 4874 4581 4592 4601 4430 4051 3697 3756 3760 4004 4135 4198 4173 4058 3945 3900 4313 4509 4116 4135 4136 4039 3930 3834 3673 3559 3463 3824 3905 3791 3791 3930 3845 3496 3493 3537
5518 5470 5365 5304 5414 5424 5167 4798 4669 4865 4791 4468 3841 3483 3640 3814 4168 3986 4162 4246 4211 4055 3871 4032 4075 3865 4063 4142 4066 3910 3775 3610 3420 3676 3713 3818 3907 3835 4001 3916 3591 3532
5520 5558 5579 5509 5528 5580 5425 5050 4911 5136 5159 4812 4269 3981 4023 3901 3854 3726 3847 4086 4285 4294 4097 3858 3869 3715 3664 3771 3924 4011 3908 3708 3448 3541 3638 3570 3609 3859 4063 4114 3947 3705
5415 5603 5718 5686 5762 5864 5791 5519 5260 5152 5127 4899 4493 3979 3476 3550 3573 3726 3694 3729 3932 4286 4255 4186 3998 3893 3645 3648 3751 3873 3929 3916 3722 3518 3694 3628 3480 3576 3851 4029 4049 3751
5384 5688 5941 5878 5908 6097 5960 5718 5245 5214 5038 5114 4479 4058 3730 3792 3930 4044 3989 3997 3777 4101 4174 4109 4058 3928 3777 3756 3829 3908 3942 3957 3868 3682 3688 3719 3624 3592 3680 3820 3956 3770
5213 5692 6043 6080 6074 5991 6004 5814 5496 5133 5295 5060 4711 4104 3954 3722 3839 4077 4356 4290 4159 4150 4242 3990 4097 4281 3961 3853 3835 3789 3746 3807 3832 3780 3640 3745 3803 3719 3711 3678 3723 3953

ECMWFNIL_con_mucape_033.txt.gz
CAPE
1972 2013 2107 1889 1831 1818 2094 1845 1868 1758 2208 2115 2282 2292 2292 2317 2306 2206 2192 2330 2662 2701 2991 3132 3102 3216 2985 2938 2991 2574 2534 2517 2133 1909 2135 2179 1769 1497 1669 1241 339 129
2068 2109 2228 2096 1948 2015 2225 2114 2008 1900 1871 2305 2226 2235 2520 2487 2533 2298 2178 2404 2644 2694 2768 3137 3054 3036 3145 3070 3250 2764 2268 2432 2202 2334 2056 2336 2064 1723 1561 1423 284 152
2150 2209 2245 2251 2054 2073 2074 2333 2313 2056 1941 1949 2405 2390 2293 2749 2659 2444 2195 2352 2610 2669 2653 2892 2972 2859 3148 3152 3305 3026 2626 2314 2060 2346 2155 2173 2189 1957 1526 1588 875 335
2216 2268 2298 2308 2218 2114 1977 1980 2458 2435 2305 2143 2198 2633 2542 2543 2730 2505 2273 2498 2499 2618 2610 2619 2834 2787 2916 3095 3170 3160 2758 2743 2303 2367 2248 2133 2232 2070 1753 1576 1417 947
2208 2279 2300 2306 2293 2243 2032 1770 1788 2396 2619 2586 2404 2577 2835 2631 2590 2553 2283 2089 2220 2469 2519 2551 2617 2836 2785 2858 3053 3048 2862 2681 2656 2448 2332 2213 2252 2134 2000 1662 1540 1195
2174 2210 2283 2280 2245 2216 2158 1842 1652 1686 2223 2772 2786 2634 2808 2880 2619 2577 2415 2335 2195 2318 2400 2551 2542 2743 2867 2801 3062 3013 2874 2752 2708 2527 2428 2246 2222 2171 2052 1800 1594 1328
2209 2195 2237 2255 2195 2111 2084 1947 1701 1628 1751 2136 2794 2799 2630 2865 2854 2618 2497 2362 2468 2344 2413 2594 2662 2644 2886 2844 2969 3057 2952 2841 2790 2643 2472 2467 2239 2208 2101 1991 1783 1442
2305 2244 2228 2254 2252 2097 1996 1942 1789 1672 1680 1798 2196 2833 2724 2518 2688 2793 2524 2338 2386 2511 2442 2639 2797 2768 2822 2913 2906 2939 2952 2864 2832 2792 2542 2563 2478 2279 2142 2026 1939 1544
2360 2299 2213 2215 2214 2146 2022 1940 1852 1718 1690 1797 1835 2299 2834 2653 2342 2448 2793 2545 2236 2404 2549 2682 2897 2910 2872 2971 2973 2938 2847 2746 2719 2764 2710 2599 2620 2439 2230 2064 1900 1726
2469 2400 2305 2206 2176 2152 2096 2024 1956 1788 1710 1817 1880 1941 2554 2863 2620 2185 2459 2871 2522 2228 2410 2621 2923 3042 2965 2962 3039 3038 2912 2720 2602 2644 2707 2654 2619 2577 2384 2158 1960 1759
2648 2539 2441 2312 2196 2142 2128 2102 2071 2008 1870 1839 1959 2005 2223 2682 2830 2545 2076 2632 2935 2577 2354 2397 2674 3044 3062 2950 2956 3029 2993 2820 2636 2596 2710 2721 2635 2593 2499 2325 2131 1928
2787 2698 2551 2435 2270 2132 2081 2105 2086 2097 2118 2018 2004 2140 2232 2466 2723 2742 2461 2110 2766 2976 2712 2485 2486 2848 3062 2991 2871 2920 2983 2924 2767 2621 2620 2766 2742 2629 2570 2473 2327 2128
2827 2747 2651 2500 2369 2180 2006 1973 1980 1970 2148 2251 2156 2164 2286 2493 2663 2716 2638 2316 2213 2770 3041 2910 2704 2731 2969 3040 2912 2830 2926 2953 2867 2727 2626 2616 2735 2713 2629 2596 2495 2332
2840 2759 2663 2558 2417 2234 2004 1885 1888 1876 1943 2244 2331 2229 2230 2372 2716 2731 2730 2606 2322 2323 2754 3077 3058 2884 2851 2970 2958 2808 2831 2956 2922 2824 2741 2671 2643 2679 2664 2647 2635 2533
2837 2739 2652 2593 2537 2338 2151 2093 2113 2040 1982 2093 2323 2312 2234 2245 2480 2752 2764 2762 2662 2436 2405 2714 3075 3131 2962 2890 2924 2856 2738 2886 2940 2885 2817 2790 2745 2685 2678 2661 2677 2648
2846 2706 2620 2585 2640 2572 2394 2270 2292 2304 2170 2103 2338 2414 2305 2271 2326 2608 2752 2773 2838 2814 2641 2583 2765 3085 3154 2999 2893 2862 2766 2760 2905 2929 2883 2824 2796 2754 2722 2731 2751 2741
2887 2759 2671 2586 2604 2698 2626 2416 2284 2279 2273 2180 2351 2692 2662 2536 2466 2450 2657 2736 2777 2927 2977 2853 2777 2850 3101 3215 3052 2913 2824 2752 2785 2921 2940 2920 2846 2777 2742 2753 2796 2808
3128 2923 2859 2702 2537 2560 2632 2557 2346 2213 2208 2258 2337 2745 2928 2859 2734 2561 2550 2706 2739 2783 2982 3096 3034 2896 2924 3162 3241 3100 2933 2850 2841 2868 2974 2988 2953 2879 2806 2762 2776 2804
3488 3182 3066 2965 2695 2513 2564 2578 2450 2287 2223 2274 2376 2589 2994 3044 2959 2804 2621 2654 2849 2818 2799 3008 3159 3110 3052 3060 3203 3249 3137 2932 2876 2916 2970 3052 3034 2995 2941 2876 2805 2787
3683 3449 3179 3162 3020 2742 2615 2688 2617 2410 2265 2310 2411 2468 2756 3104 3114 2998 2823 2664 2775 2984 2937 2861 3002 3168 3227 3178 3159 3221 3242 3137 2886 2891 2895 2914 3022 3064 3031 2998 2944 2839
3839 3648 3432 3335 3262 3064 2798 2729 2784 2686 2458 2379 2460 2526 2538 2771 3099 3131 3035 2874 2695 2743 3031 3078 3013 3094 3280 3333 3282 3244 3246 3225 3040 2853 2820 2800 2790 2927 3057 3024 2977 2938
3913 3790 3613 3529 3466 3346 3115 2913 2883 2900 2796 2601 2529 2583 2585 2560 2724 2994 3094 3039 2933 2770 2695 2944 3255 3286 3358 3461 3480 3408 3328 3264 3128 2960 2812 2728 2677 2674 2844 3047 3026 2940
3986 3896 3777 3697 3660 3604 3441 3216 3060 3067 3069 2947 2776 2670 2685 2668 2629 2726 2941 3078 3089 3027 2884 2768 2901 3316 3571 3649 3710 3676 3590 3446 3286 3122 2964 2832 2762 2749 2751 2840 3042 3107
4134 4059 3962 3876 3862 3835 3765 3603 3382 3273 3317 3320 3150 2921 2759 2753 2764 2762 2816 2951 3107 3158 3113 3035 2910 2937 3334 3697 3838 3944 3945 3823 3679 3521 3356 3190 3027 2958 2965 2966 2972 3053
4309 4284 4175 4091 4065 4045 4026 4000 3862 3681 3588 3668 3565 3348 3072 2879 2872 2878 2869 2901 3016 3144 3265 3244 3167 3086 3083 3273 3642 3876 3993 4031 3973 3893 3760 3638 3522 3384 3207 3112 3082 3088
4478 4502 4415 4321 4276 4266 4307 4303 4248 4098 3992 3954 3932 3743 3548 3270 3070 3038 3045 3024 3007 3058 3184 3353 3381 3353 3310 3250 3230 3386 3678 3895 3958 3982 3944 3876 3814 3698 3568 3416 3285 3170

ECMWFNIL_con_mucape_036.txt.gz
CAPE
1083 1072 1231 1148 1100 1187 1182 1041 1000 964 837 881 1138 1375 1593 1720 1759 1907 2002 2223 2534 2592 2667 2830 2923 2894 2898 2865 2770 2687 2666 2592 2436 2206 1875 1479 1230 1209 1222 1158 904 0
1041 1045 1193 1284 1172 1140 1145 1039 962 1053 1091 968 1205 1385 1574 1756 1824 1864 1967 2032 2421 2588 2574 2666 2841 2900 2905 2893 2737 2597 2582 2590 2494 2235 2061 1964 1623 1390 1381 1209 1003 440
1056 1066 1106 1262 1298 1183 1128 1050 944 994 1220 1314 1302 1511 1612 1799 1872 1882 1916 1946 2121 2510 2567 2597 2684 2822 2880 2863 2744 2579 2548 2548 2438 2167 2126 2119 1916 1566 1517 1422 1196 1051
1152 1168 1151 1209 1305 1290 1140 1228 1203 1118 1024 1416 1588 1629 1720 1862 1896 1913 1891 2153 1956 2209 2456 2584 2658 2692 2779 2834 2768 2612 2566 2505 2431 2312 2228 2144 1986 1802 1602 1576 1336 1173
1226 1284 1289 1277 1313 1330 1274 1292 1367 1313 1214 1186 1603 1801 1850 1978 1977 1974 1925 1918 1964 2032 2193 2370 2598 2678 2685 2753 2811 2726 2669 2607 2540 2418 2298 2129 1962 1860 1759 1663 1600 1313
1318 1353 1405 1429 1438 1427 1401 1393 1478 1487 1398 1281 1322 1854 1964 2096 2116 2068 2030 1942 1983 2057 2159 2235 2369 2578 2644 2690 2762 2773 2753 2702 2640 2507 2359 2215 2047 1874 1763 1735 1762 1514
1415 1467 1515 1544 1572 1584 1521 1473 1507 1659 1624 1474 1378 1499 2014 2128 2267 2222 2152 2036 1995 2085 2191 2256 2292 2384 2520 2584 2635 2678 2674 2673 2657 2598 2495 2333 2135 1955 1798 1813 1802 1730
1510 1568 1620 1647 1656 1675 1678 1590 1530 1629 1842 1800 1643 1522 1690 2080 2137 2294 2325 2224 2125 2109 2156 2249 2302 2325 2378 2460 2475 2486 2534 2542 2570 2606 2570 2473 2331 2098 1870 1888 1867 1817
1652 1648 1688 1722 1733 1738 1735 1711 1627 1542 1707 2001 1995 1838 1748 1886 2075 2060 2119 2262 2254 2209 2163 2138 2211 2271 2297 2360 2396 2386 2399 2443 2469 2503 2532 2497 2423 2287 2079 1982 1949 1916
1778 1746 1744 1772 1811 1819 1796 1788 1738 1622 1515 1685 2067 2143 2084 1989 2081 2198 2151 2116 2143 2172 2162 2123 2092 2149 2208 2247 2324 2340 2339 2368 2414 2433 2445 2442 2403 2340 2214 2090 2021 1966
1828 1848 1834 1829 1841 1847 1853 1817 1793 1745 1601 1440 1462 1800 2184 2280 2181 2241 2348 2306 2216 2164 2170 2148 2114 2091 2150 2188 2253 2337 2349 2345 2369 2412 2435 2447 2418 2356 2265 2146 2053 1995
1833 1876 1893 1900 1874 1866 1868 1850 1804 1736 1674 1574 1423 1334 1446 1988 2334 2271 2274 2424 2435 2341 2272 2254 2231 2162 2161 2219 2250 2335 2399 2399 2382 2374 2394 2440 2464 2430 2344 2232 2115 2024
1909 1899 1911 1932 1930 1913 1868 1853 1823 1750 1658 1593 1512 1408 1330 1394 1888 2282 2235 2183 2367 2486 2443 2376 2343 2285 2242 2304 2339 2370 2446 2480 2473 2406 2358 2350 2393 2428 2398 2326 2225 2105
2062 2017 1978 1959 1955 1943 1887 1852 1818 1779 1711 1601 1511 1445 1382 1363 1478 1943 2257 2210 2116 2222 2408 2419 2380 2347 2300 2376 2442 2456 2486 2552 2558 2516 2444 2374 2330 2340 2356 2342 2285 2205
2144 2148 2110 2074 2039 2002 1951 1874 1811 1789 1748 1674 1575 1501 1430 1426 1453 1618 2000 2231 2196 2058 2082 2316 2376 2320 2284 2305 2478 2555 2534 2540 2582 2604 2589 2516 2427 2346 2316 2323 2304 2254
2218 2221 2228 2216 2170 2116 2050 1978 1878 1791 1745 1710 1671 1621 1540 1487 1503 1579 1770 2034 2199 2202 2099 2078 2284 2410 2352 2303 2314 2513 2595 2573 2572 2622 2651 2631 2549 2460 2380 2333 2358 2331
2353 2304 2325 2326 2295 2227 2159 2087 1991 1867 1760 1706 1685 1692 1687 1611 1580 1620 1747 1906 2067 2190 2207 2140 2100 2267 2481 2496 2402 2358 2464 2555 2576 2592 2629 2668 2627 2570 2490 2408 2362 2376
2598 2466 2429 2414 2371 2338 2278 2190 2100 1987 1845 1716 1657 1652 1733 1768 1724 1683 1740 1901 2038 2130 2194 2205 2162 2136 2238 2514 2602 2537 2452 2468 2533 2559 2590 2638 2661 2640 2591 2504 2437 2383
2830 2852 2832 2733 2528 2431 2367 2286 2203 2095 1955 1785 1660 1609 1638 1795 1839 1814 1790 1842 2013 2180 2257 2301 2303 2250 2200 2254 2507 2670 2671 2587 2486 2526 2553 2588 2640 2664 2649 2612 2547 2479
3198 3211 3219 3161 3056 2888 2623 2411 2325 2217 2076 1916 1728 1624 1608 1691 1850 1914 1902 1870 1922 2070 2232 2333 2406 2425 2412 2343 2324 2492 2692 2780 2665 2562 2528 2506 2524 2598 2658 2664 2629 2561
3574 3531 3473 3409 3326 3225 3070 2806 2429 2314 2197 2062 1886 1780 1722 1728 1842 1947 1981 1983 1970 2011 2082 2194 2300 2414 2519 2545 2510 2441 2481 2688 2757 2676 2596 2543 2505 2498 2553 2644 2659 2652
3747 3704 3642 3566 3494 3403 3277 3089 2866 2558 2348 2222 2077 1962 1923 1897 1951 2064 2151 2162 2126 2075 2082 2127 2216 2314 2441 2582 2666 2686 2627 2550 2600 2627 2616 2597 2593 2596 2561 2570 2622 2678
3812 3781 3742 3683 3610 3530 3392 3236 3070 2916 2682 2374 2258 2123 2031 2007 2048 2162 2337 2428 2430 2378 2291 2252 2274 2351 2423 2488 2602 2741 2802 2769 2710 2636 2599 2608 2646 2672 2670 2635 2630 2670
3850 3844 3810 3755 3689 3588 3456 3325 3193 3065 2924 2700 2438 2295 2188 2090 2072 2116 2255 2457 2598 2636 2601 2539 2479 2455 2520 2630 2668 2686 2785 2837 2841 2788 2736 2678 2659 2669 2704 2716 2698 2676
3770 3838 3831 3773 3714 3617 3518 3420 3318 3200 3048 2908 2770 2559 2340 2171 2124 2150 2192 2297 2476 2641 2746 2750 2712 2663 2617 2605 2770 2878 2903 2898 2882 2872 2832 2802 2773 2763 2756 2762 2773 2754
3527 3779 3825 3800 3744 3667 3582 3513 3415 3313 3204 3072 2940 2788 2631 2482 2381 2289 2186 2289 2321 2435 2564 2708 2787 2811 2801 2774 2728 2811 2993 3078 3095 3085 3054 3029 3013 3015 3018 3028 3034 3060

ECMWFNIL_con_mucape_039.txt.gz
CAPE
1171 1119 1094 1078 1080 1080 1035 1010 994 884 803 790 1032 1216 1344 1403 1452 1560 1631 1675 1796 2012 2176 2295 2430 2503 2545 2610 2633 2613 2513 2460 2438 2390 2288 2174 2203 2038 1450 1094 1064 907
1194 1125 1098 1085 1065 1057 1046 1020 993 919 781 702 814 1051 1216 1318 1381 1483 1576 1649 1772 1965 2101 2234 2353 2448 2494 2531 2580 2596 2563 2545 2543 2486 2435 2350 2330 2228 1732 1322 1122 1070
1232 1192 1136 1106 1083 1054 1044 1038 1016 986 868 723 650 837 1084 1249 1342 1393 1508 1582 1689 1884 2036 2140 2256 2391 2448 2466 2504 2540 2567 2590 2590 2547 2432 2386 2432 2342 2098 1818 1499 1240
1257 1223 1194 1154 1128 1086 1028 1011 1044 1044 996 855 708 644 889 1195 1317 1374 1436 1776 1599 1764 1976 2097 2158 2260 2379 2431 2424 2442 2487 2542 2603 2596 2446 2400 2423 2426 2280 2066 2025 1721
1281 1267 1226 1201 1166 1107 1016 951 1003 1044 1072 1031 885 742 901 1110 1310 1373 1424 1499 1578 1643 1864 2070 2152 2176 2249 2357 2395 2381 2391 2463 2532 2600 2528 2383 2398 2393 2338 2165 2144 2050
1293 1272 1252 1225 1172 1115 1060 968 976 997 1014 1054 1059 935 965 1086 1272 1362 1427 1456 1539 1594 1687 1908 2090 2166 2191 2235 2325 2360 2343 2370 2433 2507 2561 2487 2378 2358 2362 2301 2235 2123
1268 1254 1251 1227 1192 1128 1068 1054 1024 1021 1019 1016 1020 1033 1149 1190 1271 1378 1462 1477 1512 1579 1614 1721 1898 2054 2163 2208 2230 2281 2341 2358 2399 2421 2455 2496 2452 2386 2386 2403 2360 2228
1209 1200 1192 1180 1146 1082 1042 1105 1109 1099 1110 1070 1032 994 1308 1372 1366 1413 1470 1522 1535 1558 1609 1650 1733 1842 1997 2164 2219 2229 2270 2325 2387 2436 2460 2483 2504 2470 2453 2462 2446 2357
1111 1098 1092 1090 1068 1044 1020 1059 1107 1155 1169 1176 1156 1066 1105 1452 1534 1534 1548 1571 1577 1569 1596 1642 1691 1740 1809 1952 2107 2194 2236 2272 2332 2403 2453 2475 2469 2446 2441 2444 2439 2406
1083 1079 1076 1079 1090 1106 1104 1108 1121 1136 1194 1253 1291 1234 1169 1205 1515 1649 1699 1708 1686 1654 1625 1644 1686 1740 1791 1844 1949 2071 2152 2196 2264 2346 2405 2422 2414 2366 2331 2332 2326 2316
1089 1081 1089 1117 1146 1165 1189 1206 1221 1219 1213 1292 1360 1400 1347 1259 1283 1564 1748 1829 1843 1791 1741 1704 1700 1750 1820 1880 1934 2008 2082 2127 2169 2229 2298 2352 2358 2334 2294 2231 2186 2162
1224 1179 1157 1175 1199 1225 1253 1277 1317 1339 1340 1330 1350 1451 1548 1508 1404 1411 1612 1793 1892 1931 1889 1826 1772 1760 1818 1894 1954 2004 2050 2096 2122 2132 2158 2203 2244 2267 2262 2242 2204 2150
1361 1345 1305 1285 1312 1328 1328 1336 1354 1392 1422 1412 1385 1408 1507 1667 1723 1646 1600 1659 1752 1845 1904 1923 1897 1864 1843 1857 1909 1963 2013 2063 2093 2106 2114 2102 2122 2162 2181 2194 2192 2179
1410 1441 1444 1425 1411 1419 1424 1420 1426 1435 1452 1467 1452 1416 1398 1484 1714 1866 1883 1800 1772 1776 1787 1770 1773 1793 1823 1847 1862 1898 1944 1998 2042 2075 2078 2077 2063 2067 2103 2143 2175 2189
1426 1471 1522 1543 1537 1523 1523 1510 1510 1502 1505 1508 1491 1465 1406 1375 1394 1588 1862 2002 1986 1917 1890 1898 1887 1832 1796 1814 1849 1890 1921 1971 2012 2048 2073 2085 2081 2076 2088 2118 2160 2195
1520 1528 1535 1600 1624 1624 1605 1596 1569 1566 1563 1560 1543 1531 1499 1450 1380 1341 1382 1592 1847 1984 2004 1985 1999 2030 2000 1930 1910 1936 1986 2028 2058 2078 2103 2116 2125 2130 2151 2168 2175 2183
1699 1695 1663 1633 1640 1611 1679 1672 1647 1627 1619 1615 1609 1588 1562 1528 1478 1422 1353 1303 1331 1502 1721 1848 1886 1917 2023 2088 2091 2068 2052 2087 2122 2156 2166 2181 2204 2236 2244 2244 2244 2235
1852 1833 1788 1819 1849 1867 1810 1705 1725 1711 1691 1670 1656 1641 1616 1566 1547 1495 1444 1380 1310 1285 1366 1530 1680 1739 1798 1928 2080 2145 2160 2126 2142 2194 2220 2240 2273 2322 2349 2340 2328 2314
1969 1966 1963 2075 2128 2111 2101 2028 1904 1785 1765 1727 1694 1680 1655 1652 1614 1556 1508 1448 1382 1333 1302 1351 1498 1611 1735 1802 1880 2011 2123 2170 2121 2136 2211 2264 2298 2341 2384 2406 2415 2428
2131 2088 2197 2300 2336 2336 2304 2255 2183 2071 1918 1798 1756 1731 1709 1687 1663 1641 1602 1557 1496 1424 1369 1353 1411 1523 1680 1799 1860 1890 1968 2088 2138 2087 2089 2175 2259 2307 2355 2394 2432 2461
2349 2297 2430 2494 2532 2522 2485 2484 2491 2426 2327 2188 2012 1866 1804 1759 1724 1715 1695 1662 1612 1556 1511 1468 1465 1508 1632 1753 1847 1908 1946 1974 2072 2128 2132 2135 2183 2252 2309 2347 2392 2431
2629 2520 2606 2664 2676 2683 2702 2751 2807 2853 2834 2792 2643 2452 2264 2046 1845 1771 1735 1702 1685 1674 1651 1607 1564 1582 1666 1764 1853 1934 1985 2008 2026 2062 2108 2141 2166 2203 2254 2309 2362 2415
2802 2742 2809 2856 2888 2902 2926 2954 2991 3043 3074 3058 3029 2933 2750 2516 2284 2052 1872 1769 1714 1706 1716 1701 1679 1688 1711 1773 1893 1998 2066 2113 2126 2126 2129 2124 2134 2163 2210 2279 2357 2407
2878 2920 2965 3003 3031 3058 3076 3109 3150 3187 3243 3252 3253 3171 3047 2887 2690 2474 2222 1965 1805 1722 1689 1722 1742 1757 1782 1800 1837 1957 2062 2125 2168 2205 2222 2235 2240 2243 2262 2298 2349 2410
3280 3234 3090 3110 3154 3169 3206 3250 3284 3333 3347 3354 3362 3329 3283 3176 3032 2857 2633 2372 2104 1863 1728 1728 1768 1806 1844 1878 1895 1929 1997 2074 2113 2155 2179 2219 2262 2297 2340 2373 2422 2453
3539 3486 3429 3378 3258 3335 3370 3413 3436 3450 3453 3465 3455 3412 3390 3317 3229 3094 2948 2764 2568 2383 2251 2146 2031 1933 2016 2029 2050 2048 2064 2110 2156 2202 2246 2283 2336 2388 2437 2477 2515 2552

ECMWFNIL_con_mucape_042.txt.gz
CAPE
960 932 921 945 970 964 935 902 899 890 886 868 954 1106 1240 1354 1375 1428 1495 1523 1573 1719 1922 2057 2241 2262 2318 2363 2410 2361 2389 2436 2481 2468 2378 2287 2234 2090 1974 1966 1899 1643
1090 1065 1030 1014 1000 978 959 930 929 932 908 868 860 974 1100 1226 1274 1382 1434 1477 1624 1732 1839 2005 2163 2294 2327 2350 2338 2390 2440 2469 2515 2488 2430 2320 2281 2240 2199 2174 2226 2236
1156 1141 1116 1082 1026 990 983 997 989 975 931 888 851 844 960 1164 1226 1280 1380 1445 1508 1666 1795 1966 2108 2259 2294 2318 2303 2368 2394 2427 2478 2492 2460 2408 2401 2392 2368 2310 2330 2357
1190 1171 1151 1116 1058 1014 1009 1010 1008 993 949 924 906 897 851 1088 1190 1224 1293 1741 1461 1522 1708 1880 2062 2172 2283 2300 2279 2290 2316 2350 2386 2414 2444 2442 2458 2479 2456 2416 2414 2438
1183 1178 1152 1116 1092 1064 1046 1022 1034 1022 1003 987 946 920 878 997 1145 1147 1221 1364 1482 1466 1540 1780 1934 2066 2208 2309 2275 2293 2242 2292 2333 2364 2388 2425 2474 2502 2512 2454 2412 2426
1177 1160 1148 1156 1147 1136 1102 1084 1068 1033 1017 995 971 942 901 819 1020 1138 1201 1245 1372 1458 1470 1583 1829 1958 2044 2216 2264 2291 2286 2236 2276 2292 2328 2354 2388 2409 2475 2496 2473 2402
1186 1171 1168 1170 1174 1152 1131 1117 1095 1047 1002 982 964 943 909 863 876 1062 1158 1215 1263 1398 1436 1464 1622 1840 2004 2126 2197 2278 2302 2310 2246 2230 2253 2266 2268 2309 2334 2412 2452 2442
1186 1190 1177 1194 1196 1180 1161 1155 1131 1097 1068 1040 1003 954 891 888 844 940 1082 1160 1250 1289 1401 1430 1490 1657 1863 2080 2160 2204 2266 2249 2272 2228 2240 2236 2218 2237 2264 2287 2330 2334
1211 1218 1205 1206 1212 1208 1198 1180 1169 1152 1131 1108 1069 1019 947 893 883 866 1026 1122 1180 1257 1314 1392 1459 1533 1719 1979 2104 2197 2225 2232 2313 2336 2269 2240 2205 2209 2202 2212 2250 2284
1242 1240 1230 1223 1238 1228 1219 1206 1190 1182 1169 1142 1115 1062 983 901 980 978 1042 1125 1185 1280 1297 1376 1444 1473 1612 1772 1975 2134 2188 2232 2258 2327 2367 2346 2300 2236 2157 2158 2190 2234
1261 1257 1252 1236 1235 1242 1248 1220 1201 1191 1158 1160 1125 1077 1022 943 1117 1162 1160 1190 1229 1292 1352 1381 1433 1493 1548 1667 1796 1937 2063 2152 2188 2248 2320 2378 2387 2350 2253 2181 2182 2196
1241 1244 1243 1236 1229 1234 1230 1218 1192 1162 1150 1136 1110 1073 1036 994 977 1204 1316 1341 1355 1382 1410 1428 1454 1488 1548 1632 1726 1818 1922 2043 2117 2173 2204 2284 2346 2359 2350 2306 2232 2218
1168 1198 1204 1188 1197 1194 1188 1175 1156 1142 1110 1092 1065 1053 1072 1073 1056 1050 1303 1424 1483 1510 1519 1538 1514 1507 1572 1628 1708 1841 1922 2006 2075 2123 2149 2174 2235 2273 2284 2300 2253 2238
1116 1136 1127 1136 1133 1140 1148 1138 1107 1066 1048 1028 1006 1062 1089 1093 1142 1112 1112 1274 1417 1502 1586 1634 1632 1619 1616 1650 1703 1796 1929 1975 2054 2110 2121 2136 2168 2203 2190 2210 2282 2260
1074 1075 1086 1080 1074 1083 1087 1069 1050 1036 1030 1094 1181 1179 1178 1173 1222 1264 1268 1267 1303 1378 1481 1574 1645 1691 1716 1729 1733 1848 1902 1974 2016 2060 2114 2146 2154 2134 2144 2182 2238 2248
1026 1048 1044 1046 1041 1057 1055 1049 1046 1055 1110 1198 1240 1258 1272 1273 1238 1286 1366 1414 1467 1458 1460 1495 1576 1672 1674 1662 1702 1860 1911 1920 1944 1988 2022 2064 2107 2107 2134 2128 2137 2114
1002 1080 1132 1059 1074 1050 1050 1154 1172 1207 1250 1265 1298 1325 1353 1360 1349 1239 1238 1383 1509 1611 1664 1643 1643 1642 1574 1617 1696 1756 1780 1927 1942 1983 1998 2045 2084 2081 2124 2143 2204 2194
1101 1181 1238 1277 1263 1277 1265 1255 1275 1299 1342 1362 1359 1375 1412 1370 1380 1328 1311 1295 1279 1388 1565 1736 1832 1690 1692 1698 1726 1761 1787 1872 1974 1990 2006 2089 2076 2155 2188 2229 2286 2265
1255 1273 1303 1342 1372 1395 1386 1379 1400 1405 1427 1440 1434 1460 1383 1492 1498 1392 1402 1375 1338 1298 1262 1268 1527 1584 1723 1808 1858 1887 1920 1942 1945 2058 2071 2100 2193 2196 2218 2267 2318 2322
1432 1421 1416 1417 1439 1453 1486 1517 1507 1528 1452 1447 1464 1465 1498 1478 1464 1473 1460 1456 1440 1399 1353 1306 1257 1221 1263 1458 1657 1788 1878 1943 1974 1972 2089 2161 2203 2268 2330 2335 2382 2400
1613 1602 1584 1564 1545 1542 1562 1576 1601 1560 1622 1682 1719 1728 1714 1646 1554 1549 1535 1520 1494 1465 1448 1423 1392 1322 1263 1218 1245 1409 1566 1671 1767 1809 1844 2046 2163 2225 2290 2349 2392 2447
1761 1766 1759 1765 1724 1706 1634 1704 1847 1898 1996 2026 2026 2046 2040 1982 1918 1812 1694 1590 1550 1530 1516 1491 1454 1406 1380 1342 1308 1293 1312 1432 1522 1612 1658 1752 1928 2055 2171 2270 2338 2404
1906 1906 1920 1909 1910 1818 1862 1989 2083 2150 2190 2235 2278 2276 2274 2256 2206 2147 2050 1961 1850 1727 1611 1555 1512 1491 1474 1449 1431 1423 1403 1403 1438 1525 1576 1616 1668 1859 2015 2134 2226 2316
2074 2068 1877 2012 2182 2235 2326 2400 2436 2458 2494 2498 2530 2552 2571 2588 2565 2542 2472 2380 2274 2158 2031 1893 1781 1654 1569 1555 1546 1544 1540 1533 1524 1535 1570 1604 1642 1708 1880 2043 2154 1970
2178 2294 2416 2507 2562 2657 2716 2722 2766 2775 2796 2798 2840 2834 2855 2882 2908 2922 2882 2818 2751 2638 2494 2380 2248 2114 1988 1848 1706 1644 1639 1644 1636 1637 1628 1639 1667 1712 1808 1914 2056 2005
2435 2514 2604 2680 2772 2832 2860 2913 2928 2935 2975 2994 3011 3023 3021 3043 3071 3102 3118 3125 3098 3040 2972 2858 2702 2541 2381 2209 2039 1878 1743 1706 1723 1721 1712 1694 1726 1857 1903 1985 2030 2180

ECMWFNIL_con_mucape_045.txt.gz
CAPE
1774 1806 1715 1770 1798 1668 1851 2005 1830 1953 2251 2070 2228 2344 2590 2925 2931 2934 3074 3100 3220 3123 3269 3380 3351 3308 3292 3512 3491 3283 3062 3151 3206 3302 3481 3337 3360 3125 2876 2860 2908 2833
1776 1852 1846 1830 1960 2065 2194 2035 2067 2029 2323 2393 2260 2504 2778 2909 2893 2907 3081 3115 3199 3013 3232 3241 3348 3375 3396 3315 3338 2908 2808 2803 2835 2919 3173 3152 3277 3294 3102 3085 2922 2886
1762 1832 1911 1858 1856 1917 1619 1874 2080 2086 2108 2089 2222 2578 2578 2565 2717 2867 2982 3046 3028 2869 3163 3251 3309 3456 3448 3543 3515 3082 2718 2885 2826 2897 3147 3195 3175 3287 3367 2830 2848 2932
1810 1845 1722 1654 1694 1825 1785 1971 2111 2065 1951 2092 2075 2106 2194 2200 2499 2787 2922 2924 3000 3074 3114 3174 3174 3239 3489 3557 3542 3220 3048 3051 2920 3115 3173 3258 3292 3388 3412 3353 3101 2969
1864 1896 1772 1779 1802 1987 2054 2057 1842 1905 1849 1887 1893 2038 2354 2449 2526 2436 2668 2853 2973 2995 3098 3168 3303 3230 3548 3592 3476 3184 3117 2883 2896 2970 2958 2982 3316 3356 3598 3571 3634 3456
1972 2007 2027 2003 2006 2160 2048 1975 1912 1902 1882 1749 1934 1902 1954 2297 2270 2284 2463 2476 2600 2612 2589 2761 3040 3073 3267 3516 3514 3168 3081 2976 3054 3045 2864 2963 3306 3637 3405 3506 3667 3623
2022 2074 2021 1991 2050 2097 2030 1978 2005 1990 1874 1832 1990 1886 1846 1974 2216 2282 2461 2498 2370 2536 2439 2662 2990 2987 3119 3373 3446 3297 3141 3109 3160 2997 2914 3136 3240 3358 3487 3512 3639 3615
1988 1978 2032 1991 1974 1975 2017 1996 2024 2064 2010 1991 2036 2007 1894 1820 2068 2152 2372 2448 2320 2547 2681 2733 3028 3201 3042 3097 3314 3343 3308 3036 3078 3084 2970 2962 3136 3208 3547 3611 3640 3772
1973 2050 2061 2037 1939 1946 1915 1847 1952 2018 2018 2024 1844 1828 1967 1840 1985 1979 2318 2540 2407 2525 2849 2768 2984 2995 2908 2985 3134 3339 3344 3191 3153 3229 3311 3347 3442 3559 3793 3814 3687 3688
2092 2080 1927 1938 1875 1888 1896 1820 1792 1888 2015 1931 1837 1796 1924 1974 1974 2028 2343 2600 2511 2604 2771 2783 2898 2867 2819 2925 3128 3225 3268 3406 3515 3502 3466 3485 3546 3607 3701 3754 3657 3699
1977 1939 1934 1904 1842 1822 1868 1824 1785 1779 1871 1806 1792 1771 1859 2003 2096 2131 2322 2504 2326 2433 2615 2725 2785 2863 2850 2694 2828 2982 3195 3147 3365 3540 3546 3544 3572 3641 3597 3708 3675 3530
1983 1899 1850 1869 1835 1837 1846 1856 1816 1791 1828 1821 1800 1823 1877 1905 2175 2137 2182 2405 2361 2370 2546 2712 2766 2855 2914 2774 2585 2749 2982 3036 3154 3418 3378 3506 3570 3536 3646 3689 3540 3594
1932 1923 1954 1864 1929 1867 1906 1896 1852 1811 1801 1848 1822 1856 1876 1903 1988 2217 2265 2310 2462 2463 2439 2596 2760 2759 2906 2920 2784 2785 2928 3056 2893 3130 3207 3282 3398 3356 3331 3428 3492 3468
1954 2044 2075 2036 2012 2067 2074 1960 1917 1882 1920 1909 1957 1918 1885 1918 1926 2088 2323 2257 2344 2452 2484 2545 2746 2747 2882 2973 2906 2830 2922 2994 3005 2919 2989 3088 3243 3306 3181 3129 3297 3381
2107 2126 2203 2216 2129 2218 2221 2125 2053 2050 2030 2049 2112 2060 1969 1999 1968 1994 2117 2208 2180 2352 2437 2471 2462 2543 2598 2763 2832 2924 2911 2798 2953 2975 2961 3024 3155 3145 3215 3260 3211 3208
2309 2302 2394 2409 2315 2395 2444 2276 2154 2183 2135 2170 2238 2165 2160 2096 2090 2083 2041 2121 2178 2326 2444 2444 2432 2446 2444 2145 2304 2680 2902 2759 2788 2970 3046 2970 3124 3266 3179 3259 3297 3191
2568 2517 2482 2424 2399 2415 2421 2403 2304 2239 2214 2282 2215 2220 2170 2274 2247 2164 2099 2059 2085 2167 2278 2284 2320 2326 2084 1904 1795 1813 2355 2868 2940 3011 3169 3177 3097 3293 3360 3209 3252 3230
2351 2345 2336 2410 2427 2391 2411 2401 2329 2280 2304 2324 2240 2213 2299 2239 2238 2193 2245 2112 2103 2152 2146 2190 2281 2005 1825 1694 1604 1576 1621 2355 2693 2860 2866 2999 3112 3045 3138 3188 3145 3112
2351 2420 2384 2367 2387 2376 2396 2405 2365 2337 2314 2230 2124 2186 2200 2355 2307 2200 2276 2260 2146 2299 2201 2171 2241 1961 1739 1566 1498 1457 1510 1686 2326 2653 2790 2949 2986 3071 3079 3130 3210 3156
2484 2372 2336 2381 2410 2400 2416 2397 2327 2324 2239 2148 2091 2180 2308 2352 2284 2364 2407 2467 2340 2322 2381 2275 2235 2056 1870 1670 1513 1459 1472 1502 2232 2560 2786 2890 2911 2938 3049 3084 3203 3280
2428 2390 2429 2502 2505 2440 2418 2391 2351 2349 2262 2149 2084 2172 2404 2440 2342 2362 2399 2481 2432 2352 2384 2321 2158 1965 1870 1712 1609 1550 1545 1575 1985 2568 2750 2864 2944 3029 3136 3094 3142 3276
2353 2433 2475 2558 2546 2492 2469 2435 2436 2515 2490 2326 2194 2163 2272 2342 2391 2304 2395 2521 2478 2441 2342 2339 2275 1801 1666 1550 1512 1519 1533 1580 1734 2475 2702 2798 3015 3118 3185 3252 3250 3235
2241 2333 2464 2486 2530 2539 2516 2463 2555 2644 2597 2513 2393 2264 2260 2340 2437 2402 2495 2527 2575 2545 2504 2455 2489 2127 1733 1573 1474 1401 1355 1381 1813 2290 2592 2782 2864 3010 3156 3171 3209 3242
2387 2438 2516 2519 2573 2581 2580 2535 2557 2606 2614 2602 2528 2386 2312 2422 2500 2538 2554 2583 2536 2612 2549 2604 2519 2399 1949 1705 1583 1516 1472 1507 1938 2183 2411 2611 2827 2937 2999 3089 3134 2683
2606 2639 2666 2666 2743 2671 2548 2553 2554 2637 2590 2605 2576 2506 2506 2614 2566 2616 2686 2698 2605 2569 2326 2338 2576 2430 2089 2021 1937 1840 1734 1717 2038 2128 2253 2415 2461 2655 2813 2842 2975 2727
2709 2823 2817 2799 2915 2823 2718 2732 2737 2630 2692 2711 2677 2594 2674 2709 2738 2739 2786 2830 2785 2487 2493 2464 2419 2564 2418 2357 2270 2193 2102 2007 2123 2271 2279 2358 2461 2408 2606 2786 2829 2983

ECMWFNIL_con_mucape_048.txt.gz
CAPE
2383 2324 2352 2270 2180 1878 1972 2166 1948 1752 1840 1470 1592 1814 1817 2364 2473 2290 2708 2859 3212 3028 3123 3359 3483 3546 3109 2726 2840 2725 2569 2699 2602 2382 2858 2844 2925 2770 2460 2360 2498 2400
2394 2436 2365 2348 2389 2302 2247 2314 2324 2033 2189 2039 1535 1558 2199 2420 2970 2765 2742 2864 2908 3040 2941 3187 3408 3470 3172 2482 2791 2781 2675 2712 2952 2502 2740 2970 2970 2774 2432 2338 2343 2405
2538 2512 2504 2468 2405 2503 2126 2303 2531 2413 2357 2483 2050 1921 2369 2850 3198 3280 2857 2733 2698 2570 2726 3051 3068 3282 3111 2863 2892 2776 2457 2835 2711 2359 2725 3084 2798 2558 2640 2238 2234 2321
2679 2583 2594 2494 2334 2530 2361 2340 2677 2761 2423 2635 2650 2288 2223 2387 2756 2944 3137 3050 2648 2512 2326 2816 2632 2746 3089 3064 3227 2771 2538 2867 2677 2791 2824 2967 3039 2714 2598 2527 2232 2141
2827 2704 2588 2549 2375 2446 2638 2444 2565 2693 2568 2475 2760 2658 2656 2476 2591 2670 3092 3253 3157 2612 2575 2744 2963 2662 2944 3154 3190 2937 2538 2632 2740 3116 3069 3018 3094 3126 2898 2639 2766 2525
2803 2862 2741 2682 2553 2499 2586 2580 2627 2552 2717 2375 2754 2783 2770 2880 2780 2724 2934 2798 2880 2588 2081 2342 2628 2571 2539 2872 3063 2877 2398 2274 2234 2962 3106 3044 2918 2695 2713 2664 3096 3080
2676 2867 2654 2632 2578 2497 2618 2700 2670 2606 2705 2590 2750 2879 2798 3028 3113 2930 2875 2956 2629 2476 2188 2188 2644 2519 2428 2727 3081 3142 2978 2866 2422 2886 3295 3125 3080 3160 2909 2922 3205 3363
2693 2711 2723 2688 2507 2483 2621 2739 2757 2833 2806 2816 2644 2953 2905 2970 3208 3114 2913 2975 2837 2729 2802 2552 2850 3263 2700 2474 2869 3216 3252 2799 2886 3070 3402 3422 3143 3286 3362 3274 3384 3774
2623 2680 2778 2715 2500 2416 2493 2608 2852 2933 2779 2890 2676 2733 3037 2928 3000 2940 3031 3104 3057 2941 3140 3118 3265 3380 3106 2803 2936 3244 3465 2832 2667 3198 3398 3368 3356 3425 3284 3372 3408 3733
2697 2662 2629 2606 2487 2332 2492 2581 2502 2696 2860 2867 2769 2484 2843 3032 2844 2865 3036 3356 3374 3217 3247 3423 3402 3413 3333 3183 3304 3545 3587 3599 3107 3097 3351 3428 3265 3257 3256 3433 3450 3680
2627 2553 2626 2666 2507 2358 2405 2485 2354 2328 2701 2816 2771 2505 2584 2988 3020 2954 3110 3437 3472 3475 3366 3573 3597 3645 3679 3230 3140 3233 3497 3381 3330 3315 3405 3458 3368 3442 3362 3424 3543 3505
2738 2619 2562 2690 2599 2379 2336 2384 2322 2207 2380 2807 2783 2660 2592 2686 3087 3069 3060 3455 3641 3514 3476 3622 3646 3613 3720 3533 2979 2956 3205 3236 3166 3378 3379 3547 3553 3372 3462 3644 3597 3559
2746 2703 2572 2592 2693 2547 2376 2387 2324 2194 2222 2583 2788 2728 2565 2514 2786 3254 3196 3372 3692 3597 3419 3567 3649 3575 3724 3812 3364 2991 3050 3270 2956 2996 3166 3290 3439 3353 3190 3328 3526 3584
2706 2815 2880 2745 2770 2853 2767 2545 2482 2351 2365 2565 2858 2826 2528 2480 2568 3053 3341 3264 3492 3584 3420 3356 3537 3642 3752 3863 3708 3169 2931 3266 3296 3079 2724 2926 3168 3291 3143 2799 2850 3172
2886 2824 2910 2968 2903 3048 3010 2816 2726 2712 2671 2728 2931 2904 2642 2548 2554 2688 3164 3294 3256 3365 3320 3175 3217 3441 3513 3680 3747 3612 3161 2954 3175 3448 3057 2800 3020 3109 3293 3366 3042 2631
3021 3075 3144 3152 3117 3252 3274 3120 2972 2996 2909 2941 2998 3020 2949 2801 2721 2726 2855 3218 3233 3261 3186 3196 3175 3181 3186 2819 3092 3529 3421 2938 3006 3200 3349 3078 3222 3232 3118 3172 3288 3253
3152 3197 3336 3402 3362 3351 3460 3440 3271 3217 3199 3260 3267 3263 3228 3182 3062 2862 2742 2870 3060 3118 3129 3118 3095 3033 2600 2584 2576 2747 3255 3536 3233 3310 3585 3746 3500 3711 3686 3413 3156 3102
3243 3362 3477 3570 3563 3575 3664 3620 3453 3432 3437 3451 3404 3395 3454 3283 3202 3130 3093 2789 2820 2953 2962 3023 3081 2662 2514 2412 2323 2314 2450 3202 3395 3513 3422 3553 3748 3664 3718 3693 3373 3124
3561 3564 3617 3740 3698 3722 3822 3746 3679 3586 3573 3468 3347 3405 3442 3506 3480 3326 3327 3115 2835 2980 2874 2876 3034 2632 2442 2308 2159 2053 1990 2071 2552 3072 3267 3467 3547 3775 3826 3884 3656 3497
3777 3657 3738 3884 3910 3858 3889 3802 3699 3648 3531 3464 3356 3446 3507 3532 3372 3420 3397 3454 3217 3043 3082 2981 2995 2525 2395 2220 2079 1958 1862 1823 2544 2603 2904 3110 3438 3683 3751 3914 4076 4157
3861 3887 3988 3938 3960 3861 3874 3864 3756 3671 3528 3294 3194 3304 3508 3530 3480 3395 3468 3460 3370 3151 3029 3007 2863 2444 2392 2242 2041 1887 1760 1672 2408 2601 2774 2971 3230 3497 3791 3947 4019 4088
3847 3902 3891 3947 3937 3920 3921 3847 3770 3828 3627 3421 3233 3166 3293 3451 3490 3285 3398 3408 3396 3301 2935 2938 2932 2330 2320 2249 2139 1949 1750 1598 2221 2659 2837 2988 3250 3468 3646 3952 4021 4013
3741 3718 3840 3913 3927 3873 3808 3679 3690 3736 3695 3499 3280 3105 3092 3207 3333 3293 3349 3314 3409 3405 3232 3226 3152 2772 2309 2179 2095 2001 1856 1722 2304 2567 2853 3050 3222 3526 3659 3835 3989 4218
3686 3672 3717 3690 3828 3816 3776 3712 3664 3682 3611 3498 3384 3030 2830 2996 3223 3362 3324 3263 3281 3442 3299 3389 3266 3022 2619 2328 2087 1928 1848 2210 2590 2700 2971 3173 3437 3586 3692 3890 4132 3695
3544 3622 3717 3751 3883 3800 3670 3657 3520 3578 3553 3438 3270 3148 2891 2978 3047 3227 3312 3269 3119 3218 3088 3183 3374 3103 2776 2610 2314 2055 1867 2374 2743 2907 3093 3245 3284 3543 3719 3806 3915 3786
3455 3597 3628 3658 3759 3788 3676 3631 3513 3423 3488 3511 3352 3199 3070 2951 2964 3045 3202 3280 3281 3210 3236 3158 3208 3719 3003 2683 2515 2294 2051 2177 2868 3030 3155 3287 3478 3460 3692 3861 3896 4100

ECMWFNIL_con_mucape_051.txt.gz
CAPE
1973 1735 1476 1241 923 474 540 1346 1606 1420 934 507 820 1362 956 1377 1562 1587 2075 2062 2664 2741 2719 2958 3258 3312 3033 2869 2917 2879 2738 2576 2500 2007 2423 2582 2708 2676 2716 2137 2571 2359
2446 2513 2058 1813 1754 1557 1271 1340 1714 1500 1397 1204 712 1038 1340 1316 1604 1564 2046 2232 2639 2784 2773 2827 3245 3431 3188 2506 2826 3064 3100 2876 2818 2257 2302 2574 2844 2612 2488 2650 2308 2384
2644 2624 2488 2098 1853 1994 1466 1538 1800 1665 1474 1474 971 1037 1253 1387 1789 2019 2057 2175 2513 2830 2768 2801 2952 3156 3214 2816 2659 2876 2855 3170 3078 2386 2409 2750 2605 2546 2697 2296 2203 2034
2834 2760 2573 2013 1726 2052 1852 1699 1745 2089 1748 1782 1627 1080 1017 1080 1712 2324 2333 2509 2345 2322 2270 2407 2363 2650 2952 2896 2819 2807 2560 2795 2974 2806 2386 2594 2828 2596 2405 2400 2176 1934
2980 2948 2632 2364 1990 2214 2336 1782 1706 2138 2115 1700 1905 1693 1473 1590 1972 2422 2598 2555 2434 2327 2252 2272 2541 2474 2694 2809 2911 2903 2495 2566 2923 3065 2984 3012 3160 2969 2748 2303 2339 2214
3233 3146 3069 2804 2484 2244 2297 2045 1978 2192 2382 1806 1940 1965 1790 1982 2050 2202 2658 2553 2496 2083 1725 2137 2388 2448 2459 2817 2928 2866 2478 2176 1974 2801 3311 3403 3174 2505 2258 2106 2350 2515
2944 3364 3080 2792 2594 2248 2400 2574 2481 2379 2323 2183 2047 2163 1952 2138 2293 2494 2422 2470 2272 2098 1567 1856 2370 2453 2350 2441 2889 2976 2926 2706 2262 2401 3138 3320 3408 2997 2124 2065 2378 2666
3130 3343 3066 2830 2559 2382 2674 2722 2630 2527 2365 2463 1995 2246 2118 2106 2381 2257 2410 2673 2322 2187 1889 1744 2370 2466 2166 2148 2612 2938 3184 2744 2773 2627 2967 3391 3237 3309 3361 2845 2524 2825
3089 3176 3075 2653 2555 2428 2350 2397 2700 2718 2616 2651 2166 1954 2424 2270 2524 2495 2540 2921 2694 2272 2179 1986 2518 2400 2334 2257 2530 2830 3070 2649 2186 2402 2671 3214 3345 3378 3438 3354 2955 2866
2976 3036 2839 2712 2381 2216 2222 2120 2197 2586 2722 2765 2575 1771 1953 2425 2324 2632 2770 3123 3124 2663 2574 2410 2353 2502 2812 2546 2382 2553 2930 3072 2708 2300 2488 2922 3091 3054 3058 3113 3045 3112
2744 2627 2645 2534 2264 2027 2007 2052 1880 1944 2370 2585 2623 2144 1762 2388 2698 2764 3065 3350 3296 3021 2991 2946 2716 2887 3022 2754 2455 2524 2806 2986 3016 2774 2740 2930 3025 3092 3015 3111 3137 2943
2610 2286 2398 2579 2242 1997 1877 2002 1931 1823 1987 2442 2438 2310 1851 1743 2732 2864 2892 3461 3624 3444 3237 3379 3323 3342 3354 3133 2408 2334 2711 2927 2835 2854 2890 3149 3150 3057 3167 3262 3059 3216
2490 2216 2356 2530 2325 1942 1894 1955 1812 1768 1677 2062 2334 2298 2008 1701 2161 3097 2934 3323 3854 3759 3477 3631 3667 3579 3814 3723 2956 2375 2501 2840 2614 2579 2868 2972 3121 3059 2900 3047 3201 3254
2526 2393 2403 2506 2485 2510 2309 1947 1984 1788 1686 1752 2306 2369 2117 1825 1703 2712 3121 3233 3644 3824 3695 3705 3886 3862 3925 3975 3770 2893 2440 2666 2964 2694 2541 2789 2668 2845 2798 2396 2457 2655
2992 2648 2492 2747 2725 3012 2764 2332 2294 2295 2104 1948 2450 2522 2245 1978 1752 1844 2878 2948 3065 3674 3678 3523 3660 3803 3708 3859 4109 3669 3028 2576 3061 3117 2666 2483 2622 2509 2647 2550 2138 1891
3677 3366 3179 3128 3152 3491 3461 2810 2460 2522 2333 2368 2410 2582 2737 2397 2144 1852 2056 2914 2990 3324 3511 3428 3336 3538 3515 3296 3577 3938 3426 2740 2739 3227 3260 2667 2411 2461 2283 2422 2431 2094
3769 3588 3619 3712 3832 3726 3633 3427 3282 2772 2768 3037 2882 2863 3247 3367 2708 1928 1776 2188 2829 2920 3130 3184 3116 2963 3054 3170 3317 3410 3591 3365 2939 3032 3426 3431 2939 2729 2684 2212 2134 2400
3664 3834 3943 3951 3984 3928 3892 3774 3301 3079 3276 3123 2713 2811 3541 3249 2784 2501 2644 2164 2424 2783 2764 2916 3052 2514 2749 3061 3142 3270 3391 3710 3085 2806 2903 3306 3485 3086 2915 2871 2446 1949
4000 3964 4082 4021 4036 4036 4017 3916 3828 3622 3242 3049 2600 3196 3155 3649 3538 2965 2898 2694 2422 2794 2721 2697 2799 2283 2553 2824 2951 3074 3126 3302 3057 2958 2735 2684 3077 3357 3131 3018 3004 2628
4185 4128 4181 4281 4222 4237 4289 4139 3878 3756 3471 3303 3078 3437 3677 3710 3472 3306 3210 3406 3010 2902 3194 2728 2833 2307 2415 2649 2784 2818 2857 3030 3502 3237 2959 2734 2845 3150 3270 3208 3274 3308
4264 4154 4333 4475 4529 4367 4474 4345 4108 3954 3826 3583 3425 3496 3808 3984 3764 3495 3443 3438 3200 2947 3098 2946 2704 2566 2527 2510 2580 2628 2645 2602 3247 3157 3178 3222 3313 3515 3660 3557 3651 3799
4339 4367 4469 4661 4716 4656 4618 4625 4398 4395 4207 3922 3565 3370 3691 4002 4009 3554 3571 3679 3526 3181 2977 3026 2925 2467 2557 2593 2592 2498 2469 2369 2946 3105 3144 3136 3230 3461 3683 4003 4111 4110
4277 4422 4596 4771 4777 4667 4698 4585 4566 4558 4332 4052 3758 3386 3381 3681 3982 3588 3644 3710 3739 3670 3238 2790 3035 2645 2440 2610 2608 2581 2443 2391 2898 2966 3152 3379 3462 3420 3486 3713 3921 4124
4454 4452 4682 4856 4828 4791 4744 4599 4565 4480 4374 4188 3899 3309 2976 3318 3772 3764 3483 3504 3615 3794 3511 3336 3119 4412 2482 2475 2563 2544 2480 2828 3046 3049 3198 3452 3825 3838 3847 3953 4060 4008
4481 4612 4709 4736 4865 4774 4506 4542 4442 4552 4313 4203 3879 3331 2882 3052 3291 3538 3572 3416 3288 3597 3704 3475 3128 3436 2690 2538 2452 2440 2420 3098 3300 3177 3275 3451 3633 3934 4039 3936 4168 4279
4565 4684 4708 4881 5055 4886 4713 4900 4700 4576 4522 4286 3817 3424 3168 2776 2760 3168 3450 3330 3219 3196 3541 3479 3234 3156 2680 2738 2688 2520 2388 3060 3509 3401 3386 3455 3763 3861 4124 4176 4099 4230

ECMWFNIL_con_mucape_054.txt.gz
CAPE
820 754 697 671 664 372 646 1511 1190 1233 1384 982 1528 1630 1684 2237 2302 2489 2313 2727 3279 3208 3461 4120 3967 3928 3632 3879 3490 3434 3501 3336 3503 3617 3631 3334 3421 2816 2681 2408 2753 2837
1062 808 754 559 610 622 775 1326 1720 1554 1864 1708 1141 1877 1829 2187 2089 2520 2564 2772 3188 3021 3411 3530 4010 4029 3980 3601 3897 3722 4050 3729 3434 2523 3075 3304 3443 3060 2564 2852 2614 3143
1240 1109 751 517 462 536 153 587 1552 2057 2076 1642 1308 2033 1974 1768 2034 2182 2793 2621 2634 2462 3345 3489 3691 4110 4071 4029 4018 3769 3700 4075 3734 2918 3436 3389 3348 3140 3267 2314 2582 2463
1361 1148 785 319 195 375 186 299 862 1892 1571 1724 1140 848 1372 1031 1509 2194 2586 3069 2875 3078 3169 3099 3118 3387 3912 3932 3865 3548 3550 4112 3666 3797 3626 3731 3687 3203 3021 3100 2710 2676
1198 1276 937 569 366 471 331 290 218 1192 1395 1322 1411 978 1130 1971 2004 2071 2233 2845 3120 3242 3485 3393 3406 3319 3830 3850 3881 3598 3295 3623 3446 3983 3951 3883 3882 3590 3033 3049 3274 2966
1410 1320 1411 971 892 1105 763 556 735 763 1207 993 1588 1404 1325 1668 2535 1875 2194 2391 2701 2635 2646 2800 3052 2778 3156 3731 3748 3540 3158 2899 2863 3650 3748 3663 3415 3285 2892 3242 3222 2970
2038 1793 1501 1640 1186 1325 1490 1234 1136 1252 1397 1357 1598 1643 1607 1406 2145 2093 2456 2487 2230 2354 2274 2369 2756 2708 2779 3269 3549 3739 3715 3630 3389 4089 3564 3724 3878 3814 3166 3031 3446 3171
2094 1873 1972 1792 1319 1235 1487 1725 1619 1659 1773 1946 1723 1920 2006 1592 1732 2086 2658 2737 2611 2647 2447 2555 2897 3223 2919 3008 3456 3565 3540 3019 3113 3429 3991 3465 3674 3906 3876 3574 3380 3723
2314 2329 1980 1760 1357 1042 969 1104 1807 1802 1881 2176 1820 1541 2226 2025 1920 1879 2374 2992 2785 2847 2755 2517 2918 3133 2919 2894 3074 3382 3428 3108 2786 2997 3248 3384 3619 3826 3636 3592 3588 3588
2774 2710 2054 1719 1753 1297 1092 1056 1495 1432 1853 2066 1996 1746 1949 2324 2303 2101 2698 3053 3008 3108 2994 2490 2924 2737 2686 2769 3015 3177 3253 3362 3301 3218 3062 3056 3302 3552 3554 3579 3622 3719
2352 2227 2111 1915 1815 1466 1361 1282 1512 1726 1745 1559 1704 1734 1863 2165 2410 2517 2788 3142 3046 3131 3246 2614 2801 2754 2662 2434 2621 2829 3089 3101 3210 3321 3249 3130 3057 3434 3595 3688 3662 3454
2438 2396 2338 2215 1798 1602 1504 1486 1457 1797 1960 1869 1822 2086 1949 2110 2424 2624 2785 3049 3115 3100 3368 2951 2691 2855 2857 2623 2347 2418 2844 2926 3180 3316 3082 3087 3147 3349 3556 3592 3485 3530
2585 2108 2591 2338 2262 2003 1669 1783 1603 1864 1881 1940 2012 2215 1970 1877 2238 2626 2834 3146 3323 3296 3235 3208 2850 2756 2982 3058 2787 2581 2640 2788 2732 3134 3130 3039 2996 2993 2998 3204 3286 3272
2297 2582 2790 2738 2370 2084 2015 1944 1892 1625 2092 2357 2459 2387 1877 1758 1973 2433 2988 2967 3345 3344 3366 3388 3275 2991 3109 3355 3313 3022 2830 2848 2818 2920 3004 2987 2755 3023 2968 2712 2940 3036
2872 2848 2784 2812 2544 2381 2236 2027 2038 2118 2139 2373 2686 2438 2278 2060 1767 2150 2509 2644 2950 3250 3346 3294 3292 3203 3039 3472 3456 3273 2871 2549 2872 2930 3003 2891 2887 2794 3095 3075 2814 2608
3039 2904 2860 2974 2924 2755 2534 2290 2225 2341 2285 2390 2730 2646 2565 2562 2014 2168 2536 2654 2818 3424 3663 3411 3189 3088 3051 2976 3126 3308 3069 2256 2461 2880 2842 2771 3054 2980 2802 2899 2618 2302
3233 3118 2981 2958 3037 2995 2745 2613 2517 2536 2529 2594 2777 2764 2642 2949 2642 2236 2290 2614 2631 2861 3382 3229 2950 2902 2973 2977 3012 3177 3158 2876 2536 2859 3166 3339 3174 3246 3004 2644 2512 2568
3309 3327 3068 3034 3154 3180 3028 2842 2751 2744 2707 2742 2750 2742 2786 2852 2806 2533 2296 2651 2867 2994 3126 3202 3243 2768 2817 3124 3234 3303 3222 3330 3008 2814 3025 3402 3490 3095 3094 2832 2535 2281
3455 3458 3271 3192 3253 3341 3304 3053 2976 3020 2942 2824 2738 2754 2954 2827 2744 2670 2513 2358 2787 3005 2690 2883 3197 2715 2437 2941 3167 3227 3286 3293 3354 2960 2604 2918 3225 3443 3265 3012 2755 2535
3659 3613 3442 3371 3375 3520 3527 3250 3088 3075 3006 2840 2503 2564 3014 3015 2898 2772 2666 2585 2467 2986 3003 2945 3104 2793 2462 2660 3035 3132 3214 3176 3564 3682 3306 2827 2972 3452 3433 3393 3407 3255
3936 3809 3738 3677 3599 3696 3706 3506 3208 3116 3115 2689 2280 2383 2915 3259 2996 2738 2804 2774 2544 2677 3275 2834 2723 2531 2382 2441 2829 3005 3077 3089 3277 3636 3718 3346 3234 3322 3569 3522 3569 3561
4166 4022 4060 3976 3907 3823 3830 3706 3438 3312 3267 2905 2370 2126 2307 3409 3420 2913 3005 3007 2748 2486 2362 2670 2218 2457 2418 2342 2475 2789 2882 2887 3000 3458 3434 3555 3821 4018 3790 3850 3834 3788
4123 4114 4198 4214 4169 4006 3943 3795 3623 3513 3400 3151 2784 2454 2438 2593 3234 2756 3145 2972 2975 2983 2766 2786 2786 2434 2168 2246 2301 2528 2680 2741 2930 3298 3414 3369 3345 3778 4198 4426 4442 4182
4211 4205 4360 4413 4333 4148 4102 3944 3836 3668 3396 3357 3133 2740 2351 2506 2940 3398 3388 3218 2879 3052 3035 3202 3085 3061 2359 2274 2093 2313 2454 2653 2982 3280 3366 3274 3316 3413 3607 3902 3969 4189
4348 4280 4411 4564 4494 4308 4015 3977 3778 3762 3442 3438 2974 2680 2675 3048 3328 3440 3288 3365 2854 2872 2952 3081 2900 4234 2562 2476 2254 2202 2370 2636 3063 3284 3341 3202 3242 3345 3378 3469 3639 3721
4300 4523 4535 4534 4783 4562 4545 4673 4441 3824 3538 3220 3124 2905 2818 2866 3133 3083 3429 3328 3003 3182 3486 3225 2809 4273 2865 2383 2432 2324 2311 2584 3345 3341 3175 3242 3278 3343 3500 3675 3664 3811

ECMWFNIL_con_mucape_057.txt.gz
CAPE
551 389 308 408 278 210 1 110 104 494 370 1326 1537 1710 1810 1803 1492 1479 2022 2290 2359 2204 2872 3067 2846 3240 3211 2995 2809 2655 3149 3229 3068 2862 2930 2923 2944 2734 2706 2685 2504 2403
360 483 398 195 271 476 79 56 104 122 526 814 1282 1240 1675 1633 1751 1470 1536 2250 2402 2235 2399 3128 2920 2892 2914 2868 3104 2598 2543 2778 2742 2816 2848 2559 2715 2777 2657 2588 2555 2535
278 308 297 113 143 238 361 136 185 53 300 545 1108 1250 1214 1604 1581 1704 1367 2024 2224 2166 2340 2790 3092 2912 2949 2840 2993 2871 2768 2743 2563 2661 2689 2801 2479 2250 2625 2561 2422 2178
274 174 171 89 34 68 198 458 428 231 268 543 802 1162 1133 1100 1475 1542 1728 2519 2139 2150 2253 2553 3007 3055 3012 3046 3164 2752 2938 2930 2884 2844 2897 3287 3001 2572 2507 2312 2238 2330
292 131 50 42 1 18 2 311 728 576 515 548 708 1006 1255 917 1041 1301 1750 2010 2160 2100 2247 2449 2775 2960 3158 3100 3237 2912 2809 2995 3011 2803 2810 2894 3165 2785 2569 2802 2688 2607
294 162 55 9 0 0 0 0 263 894 860 898 759 673 1152 1099 859 1142 1337 1866 2025 2065 2247 2384 2507 2832 3116 3138 3156 2934 2605 2820 3007 2964 2921 2902 3020 3107 2869 2518 2326 2452
284 215 98 7 0 0 0 0 0 211 932 986 1045 750 405 920 1172 996 1149 1570 1820 2005 2275 2441 2438 2474 3009 3069 3154 2965 2594 2594 2705 2684 2725 2640 2640 2802 2880 2642 2593 2547
223 234 192 79 0 0 0 0 0 0 137 695 937 1014 661 330 524 1303 1224 1338 1640 1904 2044 2396 2481 2403 2567 3004 2992 2945 2763 2651 2509 2549 2469 2590 2608 2566 2719 2932 2992 2867
164 205 214 172 54 0 0 0 0 0 25 306 468 798 917 650 328 950 1442 1333 1514 1715 1912 2066 2348 2427 2360 2517 2825 2832 2730 2706 2639 2717 2926 2632 2738 2696 2710 2853 2880 2925
276 179 193 205 141 47 23 15 0 0 44 226 413 514 904 966 633 552 1391 1519 1463 1571 1723 1825 2038 2219 2256 2166 2440 2624 2642 2620 2583 2478 2536 2869 2747 2733 2903 3027 2974 2850
562 344 201 209 197 94 70 95 83 61 116 257 519 620 790 1058 1059 767 1046 1721 1655 1637 1724 1727 1889 2042 2089 2079 2172 2454 2512 2535 2518 2473 2319 2316 2648 2702 3140 2926 2949 2856
929 726 420 241 236 199 131 150 228 305 332 439 642 839 878 1060 1199 1089 1023 1660 1874 1842 1925 1833 1837 1986 2052 2061 2089 2241 2408 2462 2500 2478 2473 2251 2198 2465 2881 2899 2839 2877
1226 1070 844 523 353 331 302 296 303 434 647 726 808 971 1045 1123 1276 1311 1262 1434 1864 1955 2041 2065 1889 1913 1957 1986 1987 2071 2231 2345 2392 2439 2437 2577 2470 2222 2348 2784 2955 2959
1530 1348 1134 904 663 548 523 494 438 472 730 942 991 1020 1127 1163 1368 1451 1446 1492 1729 1917 2026 2154 2033 1898 1880 1828 1808 1816 1956 2178 2230 2290 2319 2338 2432 2446 2361 2419 2638 2807
1745 1539 1379 1216 1004 800 780 753 636 560 773 1082 1148 1093 1187 1221 1389 1541 1560 1638 1760 1949 2032 2203 2162 1948 1808 1831 1742 1673 1681 1901 2098 2140 2284 2350 2318 2266 2280 2342 2456 2597
1984 1728 1644 1533 1308 1056 981 957 882 814 932 1241 1349 1242 1264 1330 1375 1591 1635 1709 1791 1958 2069 2202 2314 2090 1911 1884 1831 1786 1730 1805 1997 2071 2146 2301 2381 2324 2225 2203 2225 2286
2308 1861 1742 1649 1600 1366 1176 1075 1075 1059 1117 1383 1573 1511 1443 1477 1432 1560 1675 1744 1808 1946 2050 2114 2305 2323 2053 1828 1924 1930 1920 1930 1982 2049 2022 2099 2319 2408 2343 2244 2246 2307
2528 2099 1814 1725 1717 1658 1433 1280 1240 1236 1264 1445 1676 1706 1631 1645 1550 1476 1688 1776 1830 1950 2096 2136 2193 2325 2327 2032 1815 1973 2020 2094 2025 2052 2079 2027 2084 2284 2373 2285 2214 2295
2616 2303 2008 1884 1859 1826 1658 1451 1355 1361 1366 1437 1691 1821 1769 1746 1737 1543 1613 1803 1847 1898 2110 2250 2264 2291 2437 2375 2064 1933 2059 2065 2038 1959 1964 2092 2080 2083 2202 2291 2233 2201
2635 2395 2156 2082 1999 1953 1810 1596 1433 1422 1438 1444 1601 1867 1882 1822 1816 1705 1603 1804 1904 1914 2016 2295 2442 2420 2451 2502 2444 2203 2135 2148 2044 2018 1857 1864 2107 2178 2171 2241 2319 2243
2653 2428 2188 2215 2118 2064 1938 1728 1523 1449 1483 1504 1536 1785 1919 1875 1830 1814 1703 1775 2003 2031 2035 2269 2551 2658 2625 2544 2517 2468 2300 2282 2180 2162 2072 1874 1913 2240 2394 2362 2333 2344
2619 2483 2267 2292 2197 2134 2073 1885 1630 1492 1515 1581 1563 1653 1886 1885 1840 1833 1791 1729 1902 2166 2160 2220 2490 2753 2778 2726 2649 2613 2561 2435 2388 2325 2368 2310 2132 2027 2366 2535 2497 2444
2607 2473 2335 2327 2244 2174 2157 2079 1851 1606 1548 1643 1660 1596 1778 1887 1873 1848 1840 1786 1733 2019 2313 2294 2376 2634 2798 2794 2723 2673 2659 2630 2557 2488 2488 2482 2490 2570 2417 2512 2640 2594
2684 2533 2365 2411 2307 2208 2192 2192 2055 1799 1638 1740 1753 1658 1669 1867 1894 1834 1806 1789 1737 1694 1981 2360 2362 2373 2556 2689 2658 2563 2499 2493 2532 2540 2544 2517 2439 2497 2793 3087 3225 3741
2771 2609 2422 2492 2424 2300 2238 2263 2200 2027 1794 1795 1831 1736 1632 1743 2000 1926 1839 1819 1782 1737 1674 1751 2096 2297 2325 2462 2558 2534 2460 2364 2333 2419 2458 2475 2445 2372 2374 2544 2773 3253
2875 2754 2626 2586 2545 2449 2360 2336 2350 2246 2014 1884 1878 1814 1685 1588 1874 1999 1979 1945 1955 1959 1894 1747 1645 2039 2104 2222 2324 2418 2410 2317 2221 2220 2299 2368 2413 2425 2370 2317 2295 2325

ECMWFNIL_con_mucape_060.txt.gz
CAPE
2 217 5 0 0 0 8 0 12 577 1020 1186 1343 1479 1443 1436 1776 1766 1930 2137 2199 2302 2422 2407 2388 2415 2332 1954 2432 2039 2105 2144 2374 2405 2600 2678 2650 2642 2576 2617 2672 2601
4 211 245 1 0 0 0 1 0 80 638 1071 1169 1276 1284 1228 1508 1766 1709 1953 2148 2160 2297 2400 2364 2383 2331 1962 2275 2256 2261 2138 2179 2477 2443 2599 2616 2636 2600 2528 2492 2466
13 77 281 30 0 0 0 0 0 1 133 755 990 1099 1227 1276 1250 1532 1706 1712 1896 2058 2092 2470 2388 2335 2376 2126 2239 2098 2184 2323 2343 2646 2472 2513 2524 2584 2519 2378 2391 2449
2 30 201 123 0 0 0 0 0 0 25 310 870 946 1114 1314 1343 1276 1377 2030 1776 1874 1891 2083 2487 2358 2423 2322 2349 2284 2114 2048 2139 2353 2429 2420 2459 2366 2284 2308 2220 2310
0 23 59 159 45 0 0 0 0 0 0 125 886 974 1042 1246 1391 1402 1295 1315 1661 1825 1857 1836 2280 2430 2371 2351 2310 2330 2320 2217 2136 2162 2157 2320 2498 2296 2056 2031 2111 2137
4 17 58 69 86 42 0 0 0 0 0 9 174 881 1056 1168 1335 1395 1393 1318 1422 1648 1759 1781 1942 2349 2423 2342 2387 2321 2316 2343 2318 2298 2198 2143 2332 2701 2447 2193 2187 2268
104 11 45 38 28 17 30 3 0 0 0 0 54 256 633 806 890 999 1079 1220 1324 1513 1602 1677 1777 2112 2438 2449 2442 2482 2433 2435 2412 2437 2364 2245 2253 2447 2726 2427 2132 2098
203 65 33 40 12 0 4 8 5 0 0 0 0 43 280 623 413 380 726 969 1239 1442 1546 1612 1701 1875 2280 2494 2487 2495 2531 2534 2531 2457 2491 2406 2339 2366 2533 2636 2446 2188
197 170 65 32 23 0 0 0 0 18 62 29 4 5 87 268 424 380 346 525 915 1286 1500 1584 1687 1785 2063 2422 2500 2500 2516 2534 2529 2450 2428 2471 2448 2427 2308 2346 2448 2436
194 189 141 57 14 2 0 0 0 0 67 168 132 100 96 133 184 373 445 429 610 944 1316 1542 1692 1777 1857 2232 2429 2483 2508 2504 2490 2445 2308 2285 2353 2313 2230 2153 2210 2335
222 198 192 126 37 0 0 0 0 0 0 41 226 279 276 227 188 131 421 708 692 745 985 1278 1560 1776 1822 1940 2227 2410 2467 2474 2485 2462 2358 2244 2269 2223 2442 2177 2158 2148
626 201 190 166 92 16 0 0 0 0 0 0 0 132 282 385 352 204 130 402 792 828 865 1046 1264 1581 1808 1842 1940 2188 2357 2419 2445 2442 2384 2252 2257 2357 2318 2314 2287 2283
829 706 456 131 121 64 4 0 0 0 0 0 0 0 9 146 386 441 323 168 432 788 902 988 1126 1318 1601 1794 1846 1910 2115 2297 2363 2372 2347 2253 2125 2216 2415 2478 2443 2376
913 877 810 631 71 63 33 1 0 0 0 0 0 0 0 0 63 321 447 382 318 591 849 971 1083 1198 1377 1599 1740 1794 1865 2039 2178 2228 2239 2206 2147 2058 2049 2203 2389 2419
1016 995 961 908 824 608 45 26 2 0 0 0 0 0 0 0 0 101 328 494 475 540 816 1031 1119 1180 1277 1439 1585 1685 1732 1815 1961 2074 2117 2143 2153 2149 2106 2020 2025 2274
1161 1132 1130 1101 1094 1011 833 411 6 0 0 0 0 0 0 0 8 98 272 450 557 645 798 1065 1250 1316 1404 1381 1498 1590 1652 1705 1814 1934 2018 2062 2079 2093 2143 2196 2192 2100
1414 1376 1340 1343 1375 1357 1239 988 651 7 0 0 0 0 0 12 84 153 326 495 620 707 813 1032 1299 1463 1500 1454 1496 1568 1592 1640 1694 1800 1903 1971 1987 1987 1962 1976 2069 2204
1960 1778 1721 1714 1736 1727 1591 1323 1049 726 40 22 18 54 150 160 203 278 396 572 729 807 866 1009 1211 1436 1612 1626 1590 1580 1579 1558 1578 1619 1730 1836 1887 1907 1889 1837 1808 1840
2403 2306 2268 2211 2160 2120 2040 1731 1381 1056 737 296 108 134 227 373 406 430 501 658 842 971 1012 1084 1223 1346 1586 1716 1711 1677 1650 1592 1512 1492 1484 1615 1724 1790 1838 1844 1829 1808
2572 2542 2514 2487 2458 2444 2403 2240 1848 1382 1046 714 249 244 350 496 557 585 629 736 890 1039 1142 1192 1294 1398 1556 1718 1761 1748 1718 1697 1606 1548 1473 1466 1573 1660 1746 1837 1886 1885
2731 2716 2668 2636 2604 2619 2571 2529 2363 1925 1429 1073 723 425 468 631 748 787 814 870 968 1119 1220 1296 1368 1495 1602 1726 1829 1834 1787 1756 1694 1621 1566 1514 1498 1626 1689 1758 1850 1918
2677 2818 2838 2813 2766 2721 2697 2658 2572 2443 2020 1465 1068 721 690 790 926 957 982 1010 1041 1168 1291 1375 1459 1556 1646 1737 1864 1939 1939 1907 1840 1766 1698 1654 1592 1552 1723 1780 1810 1838
2338 2681 2796 2830 2821 2793 2759 2715 2658 2617 2415 1961 1430 1073 828 991 1128 1197 1224 1199 1182 1235 1357 1433 1505 1593 1709 1776 1826 1918 1968 1982 1940 1880 1821 1773 1731 1633 1644 1762 1872 1910
2046 2538 2699 2768 2796 2769 2718 2714 2690 2702 2593 2288 1798 1373 1099 1082 1260 1375 1405 1417 1388 1351 1421 1513 1554 1618 1742 1852 1868 1886 1903 1916 1944 1929 1908 1872 1847 1817 1756 1684 1789 2502
1690 2332 2662 2759 2780 2782 2765 2765 2746 2740 2632 2450 2130 1652 1329 1117 1324 1472 1523 1537 1540 1515 1470 1580 1629 1668 1750 1881 1965 1963 1959 1948 1909 1936 1962 1978 1999 2022 2012 1949 1884 2201
1532 2248 2558 2686 2790 2845 2869 2860 2821 2733 2683 2551 2311 1958 1546 1332 1288 1481 1593 1625 1635 1646 1608 1573 1692 1747 1795 1897 2026 2068 2055 2015 1955 1915 1943 2003 2072 2150 2195 2183 2155 2146

ECMWFNIL_con_mucape_063.txt.gz
CAPE
7 0 0 0 0 0 198 854 987 1075 1148 1327 1488 1587 1629 1667 1721 1812 1900 1965 2122 2254 2320 2344 2404 2432 2382 2313 2314 2290 2204 2098 2224 2255 2351 2581 2696 2648 2553 2620 2456 2422
17 20 52 0 0 0 0 0 786 978 1079 1181 1266 1386 1526 1578 1561 1650 1831 1916 2006 2144 2234 2304 2360 2422 2414 2333 2260 2207 2167 2058 2158 2222 2302 2528 2703 2640 2612 2550 2416 2414
20 14 23 0 0 0 0 0 0 437 925 1012 1094 1140 1273 1374 1396 1504 1716 1862 1917 2027 2123 2226 2307 2370 2402 2335 2247 2190 2179 2078 2033 2144 2273 2397 2493 2568 2526 2502 2476 2432
12 2 11 15 0 0 0 0 0 0 68 472 914 1036 1124 1258 1321 1364 1582 1941 1809 1939 2014 2091 2209 2267 2304 2323 2274 2223 2127 2089 2034 2001 2197 2316 2374 2422 2447 2481 2480 2405
17 0 0 16 3 0 0 0 0 0 0 104 376 846 997 1118 1217 1253 1322 1568 1696 1788 1921 1985 2094 2221 2268 2312 2318 2267 2153 2100 2152 2160 2222 2280 2276 2298 2389 2462 2410 2234
30 0 0 6 9 0 0 0 0 0 0 0 96 470 840 971 1096 1139 1140 1295 1580 1679 1754 1875 1976 2122 2247 2279 2297 2281 2222 2164 2142 2121 2202 2330 2350 2345 2367 2426 2321 2121
87 0 0 0 16 0 0 0 0 0 0 0 11 219 440 785 942 1074 1096 1112 1286 1555 1657 1707 1759 1853 2056 2204 2240 2246 2249 2216 2199 2195 2164 2124 2130 2190 2339 2480 2422 2326
155 2 0 0 4 1 0 0 0 0 0 0 0 68 321 460 742 915 1044 1093 1090 1186 1431 1570 1629 1674 1796 2084 2178 2198 2243 2246 2210 2213 2255 2256 2205 2112 2062 2222 2511 2578
161 54 0 0 0 4 4 0 0 0 0 0 0 0 161 393 436 737 926 1071 1123 1139 1201 1350 1475 1569 1664 1880 2076 2143 2180 2226 2256 2261 2272 2321 2348 2327 2184 2056 2226 2444
196 114 6 0 0 0 3 4 0 0 0 0 0 0 0 183 305 322 774 954 1087 1162 1209 1236 1317 1418 1511 1662 1892 2027 2077 2117 2222 2302 2344 2378 2424 2458 2405 2260 2154 2222
238 174 92 3 0 0 0 0 1 0 0 0 0 0 0 0 116 174 158 360 738 908 916 965 1129 1270 1394 1504 1699 1894 1989 2037 2104 2219 2318 2377 2428 2467 2496 2457 2338 2285
698 427 164 80 2 0 0 0 0 0 0 0 0 0 0 0 0 9 142 114 123 148 204 418 831 1095 1276 1395 1516 1728 1933 2035 2084 2165 2237 2297 2346 2394 2427 2461 2422 2349
848 789 640 128 66 3 0 0 0 0 0 0 1 0 0 0 0 0 8 41 102 139 150 186 360 748 1101 1304 1414 1540 1774 1964 2078 2146 2204 2249 2278 2318 2345 2366 2373 2338
924 901 814 666 71 19 0 0 0 0 0 0 0 0 5 6 2 0 0 1 6 88 180 237 260 429 824 1139 1348 1464 1574 1777 1965 2068 2135 2187 2234 2272 2300 2338 2368 2360
972 988 950 886 789 687 10 0 0 0 0 0 0 0 0 0 12 30 42 45 32 13 69 258 365 420 574 854 1141 1374 1489 1586 1739 1924 2018 2072 2137 2196 2242 2278 2314 2322
1060 1037 1024 989 931 867 825 756 443 0 0 0 0 0 0 0 0 0 15 72 115 103 58 86 237 438 690 754 917 1154 1343 1464 1566 1700 1857 1959 2014 2043 2104 2174 2213 2224
1105 1090 1071 1047 994 950 911 886 846 755 552 0 0 0 0 0 0 0 0 0 7 86 151 153 180 254 305 39 814 978 1142 1313 1434 1546 1673 1813 1882 1927 1946 1970 2034 2102
1144 1130 1111 1086 1051 1008 975 969 941 901 861 810 728 550 0 0 0 0 0 0 0 0 20 98 177 222 17 0 547 826 992 1169 1300 1402 1508 1635 1746 1820 1852 1863 1884 1927
1168 1148 1146 1115 1084 1049 1031 1022 1017 1006 1007 1034 1029 988 862 720 42 33 0 0 0 0 0 9 68 78 0 0 457 773 878 1018 1158 1290 1379 1478 1604 1703 1765 1800 1824 1852
1233 1212 1201 1171 1138 1108 1099 1096 1098 1126 1163 1207 1333 1412 1328 1184 1017 793 406 0 0 0 0 2 34 70 0 0 360 777 884 955 1023 1201 1296 1378 1470 1578 1664 1730 1781 1802
1410 1370 1338 1304 1264 1240 1229 1214 1248 1288 1348 1413 1482 1649 1778 1727 1450 1152 932 680 92 0 0 8 74 76 0 0 0 731 895 993 1041 1104 1239 1321 1383 1462 1553 1638 1697 1747
1758 1579 1531 1479 1458 1433 1422 1450 1504 1561 1632 1684 1715 1796 1970 2100 2068 1743 1246 968 676 18 34 80 142 22 0 0 26 720 865 978 1102 1186 1242 1318 1383 1435 1490 1528 1593 1649
2150 2074 1953 1740 1707 1688 1686 1722 1771 1833 1900 1948 1974 2020 2115 2235 2298 2224 1886 1376 935 620 238 189 230 110 0 0 725 822 893 974 1088 1184 1276 1343 1404 1466 1508 1546 1578 1596
2328 2372 2327 2247 2101 2048 2045 2065 2081 2118 2164 2184 2203 2200 2251 2326 2357 2352 2324 2118 1534 1035 663 358 350 293 0 676 809 928 984 1035 1100 1171 1253 1330 1406 1466 1527 1572 1607 2067
1656 1962 2461 2590 2582 2502 2454 2445 2431 2396 2398 2383 2375 2358 2382 2415 2404 2366 2422 2436 2147 1536 1056 710 531 487 204 774 878 986 1054 1120 1158 1192 1252 1327 1390 1462 1523 1580 1640 1779
1720 1715 1692 1848 2407 2619 2636 2610 2580 2545 2522 2494 2480 2478 2493 2485 2481 2450 2508 2606 2516 2122 1541 1026 713 753 801 868 961 1043 1114 1183 1229 1265 1319 1374 1432 1481 1536 1580 1640 1719

ECMWFNIL_con_mucape_066.txt.gz
CAPE
1021 1009 914 698 0 20 377 722 883 993 1051 1228 1402 1433 1445 1522 1626 1701 1784 1902 2075 2246 2269 2264 2349 2403 2415 2361 2468 2488 2459 2394 2414 2314 2356 2460 2425 2404 2568 2686 2632 2540
952 959 931 288 0 7 164 528 763 930 975 1074 1273 1362 1367 1425 1496 1647 1735 1795 2047 2238 2180 2210 2258 2293 2337 2381 2410 2392 2355 2329 2317 2391 2323 2437 2594 2472 2651 2772 2741 2636
832 840 834 781 0 0 4 194 536 781 913 978 1103 1215 1325 1422 1485 1579 1703 1767 1850 2037 2101 2147 2214 2258 2325 2381 2430 2410 2317 2268 2226 2203 2507 2450 2449 2554 2631 2568 2556 2521
707 722 259 229 1 0 0 5 118 404 770 904 996 1109 1241 1399 1486 1542 1628 2179 1786 1896 2005 2064 2170 2210 2253 2313 2377 2405 2345 2259 2242 2212 2273 2481 2532 2459 2503 2414 2549 2495
506 145 89 73 16 0 0 0 1 32 298 750 895 989 1142 1269 1382 1458 1541 1618 1704 1770 1876 2000 2033 2148 2200 2243 2291 2335 2336 2293 2274 2226 2145 2278 2363 2447 2461 2407 2449 2394
234 186 145 96 65 2 0 0 0 0 20 184 520 864 980 1076 1173 1254 1322 1405 1556 1660 1781 1872 1948 2042 2159 2224 2198 2253 2296 2317 2332 2259 2172 2232 2265 2247 2369 2458 2344 2327
267 154 97 82 66 15 0 0 0 0 0 6 156 464 796 914 1024 1111 1154 1237 1410 1631 1685 1780 1852 1924 2048 2217 2212 2207 2220 2243 2277 2268 2215 2172 2149 2211 2269 2492 2524 2378
323 163 108 48 44 32 34 0 0 0 0 0 1 84 446 675 840 966 1054 1102 1191 1405 1579 1647 1684 1781 1828 2080 2214 2200 2175 2150 2161 2178 2218 2200 2194 2180 2182 2161 2343 2439
355 263 103 33 20 28 33 8 0 0 0 0 0 0 158 461 620 786 928 994 1032 1114 1316 1492 1550 1612 1682 1808 2044 2136 2179 2175 2201 2143 2182 2214 2186 2213 2203 2197 2199 2238
402 320 149 39 6 14 27 24 0 0 0 0 0 0 16 258 412 546 746 859 915 967 1006 1236 1373 1455 1529 1591 1790 1986 2080 2142 2194 2205 2208 2222 2278 2297 2197 2147 2180 2189
574 368 240 104 22 7 13 15 6 0 0 0 0 0 0 54 360 427 532 693 826 905 929 997 1160 1294 1399 1476 1603 1783 1943 2030 2085 2148 2200 2255 2288 2295 2426 2286 2236 2239
592 594 589 590 568 270 9 9 9 2 0 0 0 0 0 0 100 337 463 497 652 788 865 936 1029 1126 1248 1378 1470 1596 1758 1904 2000 2063 2115 2194 2218 2215 2319 2408 2331 2338
605 610 607 622 638 620 537 4 1 3 0 0 0 0 0 0 0 84 386 411 425 534 661 780 882 1008 1134 1227 1307 1406 1577 1791 1886 1994 2085 2122 2138 2161 2147 2164 2248 2274
628 628 623 625 637 701 692 635 247 0 0 1 1 0 0 0 0 0 13 235 284 290 358 434 579 764 898 1046 1148 1270 1412 1571 1755 1924 2016 2079 2132 2172 2117 2094 2117 2130
660 664 642 658 656 714 792 798 718 607 0 0 2 4 4 0 0 0 0 1 40 111 191 256 245 284 449 712 978 1143 1268 1376 1562 1768 1904 2017 2093 2112 2107 2104 2108 2122
724 740 729 724 723 771 848 871 860 802 705 0 0 0 0 3 1 0 0 0 0 0 18 88 184 228 305 71 329 853 1059 1207 1343 1469 1691 1862 1983 2033 2030 2026 2030 2005
784 812 817 815 800 823 899 921 931 896 853 767 383 0 0 0 0 0 7 9 2 1 1 7 39 96 45 0 0 19 647 1019 1160 1309 1483 1712 1830 1835 1943 1998 2007 1995
815 872 888 876 856 923 980 989 972 944 944 923 843 768 701 0 0 0 0 2 11 24 48 62 55 8 0 0 0 0 134 801 1054 1130 1296 1490 1622 1763 1816 1876 1918 1907
913 938 930 955 973 1040 1052 1047 1042 1044 1020 997 961 908 836 818 792 685 139 36 0 0 3 38 88 1 0 0 0 0 0 162 804 1014 1190 1277 1453 1576 1678 1720 1770 1877
1044 1049 1039 1036 1019 1062 1100 1100 1078 1105 1103 1067 1034 1002 950 905 883 868 842 798 724 605 342 0 0 0 0 0 0 0 0 14 490 846 986 1083 1194 1389 1510 1609 1663 1743
1148 1170 1162 1141 1130 1123 1141 1146 1147 1168 1177 1160 1123 1076 1039 994 973 964 990 1037 1061 1041 1022 916 844 710 537 93 0 0 0 0 156 552 806 954 1071 1177 1312 1491 1529 1671
1203 1237 1260 1268 1277 1301 1285 1263 1225 1218 1224 1228 1211 1181 1146 1123 1132 1141 1184 1267 1361 1422 1434 1374 1264 1138 966 803 433 0 0 0 29 315 605 830 997 1104 1220 1339 1449 1546
1325 1277 1284 1328 1346 1339 1315 1298 1271 1260 1266 1264 1285 1305 1320 1311 1336 1394 1445 1478 1499 1580 1777 1787 1684 1520 1252 978 749 564 0 0 8 211 450 705 875 1046 1168 1246 1335 1432
1421 1427 1364 1353 1329 1319 1331 1330 1306 1342 1381 1409 1440 1458 1463 1472 1516 1533 1602 1630 1661 1699 1762 1942 2087 2052 1776 1411 982 658 0 0 16 142 343 573 809 990 1131 1221 1282 1741
1740 1694 1622 1582 1514 1535 1539 1545 1548 1554 1552 1558 1565 1579 1592 1625 1652 1694 1744 1798 1821 1856 1863 1945 2091 2192 2218 2035 1582 1056 639 0 37 152 310 534 736 907 1071 1204 1228 1459
1578 1763 1860 1871 2100 1807 1822 1829 1878 1824 1832 1792 1793 1769 1764 1778 1801 1815 1845 1896 1918 1956 1970 1963 2119 2294 2359 2330 2127 1666 1124 626 83 204 344 482 694 845 1022 1172 1255 1298

ECMWFNIL_con_mucape_069.txt.gz
CAPE
1844 1768 1605 1427 1390 1361 1672 1961 1882 2066 2444 2261 2454 2598 2950 3279 3428 3366 3349 3420 3387 3179 3449 3661 3818 3848 3620 3890 4062 3936 3810 3803 3707 3669 3794 3702 3627 3181 2950 3177 3439 3429
1799 1741 1669 1382 1500 1545 1778 1791 2087 2133 2644 2733 2467 2804 3054 3198 3253 3161 3267 3209 3314 3065 3455 3468 3639 3704 3700 3280 3754 3556 3799 3747 3718 3369 3666 3955 3847 3512 3074 3218 3258 3611
1698 1664 1567 1410 1248 1170 925 1355 1834 2077 2099 2164 2352 2840 2836 2845 2906 3057 3138 3107 3070 2810 3466 3502 3486 3713 3500 3510 3664 3425 3208 3763 3545 3093 3715 3851 3626 3556 3483 3016 3182 3355
1714 1602 1390 1304 1215 1129 880 1325 1682 1855 1816 2168 2195 2183 2390 2307 2666 2907 3032 3072 3154 3216 3244 3207 3161 3228 3522 3482 3670 3416 3327 3600 3216 3592 3637 3757 3786 3382 3424 3529 3110 3088
1636 1571 1385 1330 1219 1171 1081 1064 1047 1366 1460 1636 1880 2287 2570 2725 2775 2624 2868 3012 3191 3200 3325 3335 3460 3309 3643 3562 3673 3511 3385 3365 3547 3889 3675 3583 3713 3652 3371 3392 3500 3341
1642 1626 1540 1362 1309 1226 983 793 966 1114 1245 1437 1714 1924 2045 2573 2618 2591 2758 2740 2867 2826 2781 2905 3159 3095 3273 3532 3623 3449 3131 2963 3083 3783 3599 3555 3220 3212 2973 3338 3578 3422
1520 1575 1412 1320 1251 1150 1015 879 880 965 989 1087 1672 1779 1912 2166 2466 2635 2723 2765 2670 2804 2656 2910 3260 3062 3151 3439 3633 3706 3658 3528 3410 3830 3649 3399 3596 3498 3216 3491 3528 3437
1354 1347 1372 1292 1156 1123 1016 902 848 876 913 1160 1332 1637 1894 1875 2297 2347 2514 2614 2567 2766 2930 2932 3348 3525 3182 3164 3484 3519 3526 3169 3348 3777 3755 3559 3667 3617 3630 3428 3506 3609
1316 1352 1323 1246 1127 1051 962 827 783 744 795 820 701 937 1625 1675 2048 2019 2432 2625 2458 2660 3030 2962 3281 3180 3064 3182 3275 3455 3443 3030 2817 3182 3388 3314 3425 3548 3363 3486 3512 3579
1380 1305 1133 1118 1016 994 938 871 730 646 739 590 545 580 989 1522 1742 1920 2375 2627 2477 2676 2843 2811 3050 2927 2944 3017 3221 3341 3334 3442 3401 3336 3179 3113 3022 3082 3072 3294 3303 3390
1283 1210 1119 1041 954 901 890 837 778 651 581 500 486 437 538 907 1499 1829 2164 2404 2088 2269 2476 2605 2601 2732 2876 2632 2755 2904 3207 3054 3135 3358 3297 3268 3132 3215 3206 3254 3270 3172
1313 1205 1114 1051 954 878 825 800 773 719 583 518 472 476 528 546 1027 1278 1521 2022 2028 2011 2205 2431 2471 2589 2698 2608 2370 2481 2783 2839 2937 3191 3037 3155 3155 3122 3294 3358 3194 3298
1283 1246 1249 1107 1064 936 697 599 503 490 636 534 477 475 508 502 597 1014 1296 1459 1921 1967 1875 2174 2400 2305 2550 2655 2472 2399 2592 2774 2527 2828 2862 2936 2998 2798 2669 2892 2998 3042
1319 1330 1351 1301 1188 1176 1060 798 573 572 551 512 554 483 436 443 462 666 1120 1224 1431 1653 1748 2000 2312 2243 2534 2598 2505 2359 2486 2562 2605 2508 2460 2582 2626 2668 2488 2327 2627 2798
1390 1306 1397 1450 1369 1370 1267 1051 706 618 633 636 601 544 410 367 378 413 705 974 1059 1371 1458 1577 1597 1744 1837 2166 2322 2427 2357 2231 2375 2426 2380 2388 2470 2285 2433 2636 2534 2513
1675 1550 1504 1588 1509 1536 1585 1279 1057 798 664 707 707 702 634 484 394 381 401 657 894 1206 1279 1288 1309 1386 1493 1167 1480 2041 2323 1927 2070 2376 2345 2180 2336 2400 2127 2357 2503 2262
1897 1866 1696 1686 1697 1749 1681 1503 1257 884 714 752 772 817 798 774 675 435 275 274 400 686 906 924 956 896 558 4 38 640 1582 2209 2142 2363 2458 2369 2119 2444 2381 1907 2115 2359
1773 1762 1816 1802 1836 1730 1654 1642 1433 1199 1104 959 842 879 907 900 858 782 612 312 247 310 403 529 686 424 2 0 0 0 290 1436 1700 1694 1663 1857 1942 1763 1915 1893 1826 1868
1778 1902 1960 1875 1916 1799 1788 1720 1613 1398 1238 924 949 947 963 963 969 927 896 780 504 409 283 282 362 109 0 0 0 0 0 216 938 1306 1276 1354 1438 1720 1710 1867 2014 2048
1914 1838 1834 1970 2032 1978 1879 1710 1542 1489 1140 1044 1042 1042 1050 1040 1039 1018 999 966 892 801 648 506 363 142 0 0 0 0 0 27 618 1088 1277 1132 1192 1361 1479 1607 2063 2181
2084 1928 1989 2088 2136 2104 1964 1794 1606 1582 1244 1095 1085 1103 1112 1098 1113 1098 1073 1062 1018 963 915 892 861 783 707 296 111 0 0 0 290 932 1102 1101 1202 1421 1680 1524 1726 2025
1501 1836 2113 2011 2080 2058 2008 1867 1752 1772 1658 1176 1162 1166 1156 1162 1177 1169 1152 1138 1105 1057 1032 991 974 976 964 964 937 894 798 668 466 774 976 986 1296 1594 1627 1795 1746 1775
1136 1262 1497 1921 2027 2018 1996 1850 1857 1844 1744 1378 1274 1257 1236 1215 1224 1216 1198 1186 1162 1131 1117 1087 1095 1122 1173 1214 1243 1260 1204 1148 1008 892 806 1062 1066 1358 1618 1667 1753 1853
1333 1220 1196 1242 1876 1941 1981 1861 1738 1747 1401 1339 1308 1297 1277 1253 1258 1244 1254 1253 1253 1263 1245 1256 1283 1333 1361 1422 1522 1602 1606 1547 1449 1290 1062 889 1201 1336 1478 1646 1675 1486
1263 1329 1357 1227 1262 1607 1616 1352 1366 1342 1371 1332 1329 1307 1297 1295 1303 1318 1329 1335 1367 1378 1390 1436 1487 1548 1580 1591 1600 1708 1842 1859 1822 1662 1410 1075 812 979 1217 1246 1469 1442
1194 1270 1286 1422 1404 1325 1305 2025 1450 1382 1402 1357 1356 1361 1389 1409 1411 1444 1458 1476 1482 1488 1507 1536 1593 1642 1693 1706 1724 1736 1865 1996 2058 1986 1780 1436 1080 778 803 1098 1201 1494

ECMWFNIL_con_mucape_072.txt.gz
CAPE
2786 2542 2354 2362 2231 1991 1924 2039 1790 1786 1898 1532 1394 2012 1987 2483 2170 2491 2912 2922 2750 2572 2716 2927 3265 3561 3664 3884 4670 3704 3816 4146 3415 3619 3663 3632 3514 3090 3040 3142 2983 2587
2971 2700 2530 2282 2264 2281 2241 2107 2016 1777 1852 1904 1515 1787 2127 2149 2468 2452 2554 2874 2815 2477 2578 2718 2825 3169 3478 3359 3889 3656 4020 3748 3628 3072 3436 3862 3665 3366 2934 3117 3292 3772
3048 2763 2636 2347 1970 2268 1818 1961 1946 1926 1730 1842 1602 1598 2029 2186 2189 2570 2557 2500 2460 2084 2467 2666 2646 2785 2947 3019 3506 3584 3471 3679 3669 3078 3467 3750 3604 3542 3686 3132 3143 3288
3182 2801 2369 2022 1569 1722 1772 1696 1887 1980 1809 1700 1670 1472 1434 1452 1607 2151 2711 2855 2339 2305 2335 2636 2382 2415 2643 2752 3103 3053 3157 3472 3402 3320 3700 3626 3480 3524 3567 3465 3064 3219
3225 2912 2384 2038 1524 1482 1802 1651 1659 1774 1811 1516 1612 1746 1790 1715 1777 1869 2164 2935 2709 2426 2525 2677 2629 2410 2627 2788 2950 2975 2857 3141 3188 3374 3561 3606 3686 3592 3319 3321 3679 3061
3160 3058 2744 2235 1842 1769 1807 1833 1826 1582 1730 1352 1644 1599 1619 2101 1923 1537 1768 2077 2380 1973 1877 2176 2217 2020 2296 2705 2920 2745 2550 2523 2544 2991 3123 3294 3130 3181 2948 3121 3406 3259
2927 2985 2756 2292 1981 1820 2005 1888 1847 1761 1487 1422 1512 1743 1597 1734 1929 1562 1717 1971 1775 1816 1663 1842 2140 1957 1949 2179 2705 2939 2909 2799 2788 3001 3206 2832 2834 2910 2573 2929 2930 3074
2642 2726 2778 2398 1997 1782 2082 1834 1763 1886 1800 1699 1383 1741 1758 1434 1619 1537 1638 1851 1729 1746 1902 1772 2156 2493 2078 1922 2318 2666 2884 2474 2754 2859 3397 3267 2950 2857 2953 2744 2710 2872
2412 2571 2675 2514 2070 1645 1627 1419 1548 1807 1867 1822 1391 1180 1734 1593 1314 1302 1504 1863 1828 1769 2188 2058 2298 2314 1994 1869 2098 2565 2754 2248 1863 2329 2831 3024 2926 3142 3049 2934 2874 2900
2436 2403 2268 2358 1985 1537 1356 1371 1138 1367 1755 1776 1549 999 1029 1538 1396 1217 1415 2004 2327 1994 2354 2473 2264 2168 1942 1902 2226 2566 2694 2920 2728 2670 2552 2619 2566 2455 2642 2861 2862 2968
2139 2175 2079 2084 1971 1580 1393 1268 1116 890 1350 1591 1377 1005 686 928 1576 1496 1490 2086 2426 2022 2110 2521 2279 2373 2356 1912 1877 2026 2372 2290 2364 2509 2600 2585 2351 2382 2380 2492 2530 2609
2077 2024 1962 1956 1934 1791 1464 1252 1131 906 916 1440 1309 1025 836 634 1134 1622 1537 1946 2496 2119 1831 2336 2482 2334 2392 2187 1595 1640 1881 1989 1818 1941 1894 2084 2106 1973 2082 2266 2187 2230
1944 1932 1986 1855 1952 1885 1682 1467 1249 1100 992 1099 1425 1131 925 762 693 1391 1744 1750 2281 2219 1644 1808 2352 2299 2344 2560 2021 1492 1616 1929 1475 1375 1587 1763 1853 1637 1398 1380 1586 1728
1724 1825 1985 2003 1934 2041 1999 1742 1552 1380 1286 1230 1457 1464 1161 932 729 928 1513 1681 1607 1717 1789 1604 2014 2338 2509 2726 2572 1759 1445 1776 1892 1519 1191 1438 1459 1416 1177 764 748 865
1764 1774 1873 2118 2092 2134 2170 2015 1828 1761 1680 1608 1604 1632 1410 1235 1134 892 1058 1338 1298 1278 1292 1290 1258 1719 1930 2263 2508 2412 1740 1297 1536 1642 1354 1086 1228 1241 1222 1347 1038 474
1896 1992 1889 1976 2266 2379 2450 2328 2044 1935 1808 1834 1752 1745 1707 1573 1427 1289 1072 1156 1357 1389 1343 1092 940 843 1379 1399 1772 2004 2028 1261 940 1382 1602 1364 1384 1580 1270 1012 972 962
1974 2159 2161 2099 2372 2594 2620 2642 2364 2048 1965 2032 1982 1854 1897 1872 1670 1442 1231 1125 1126 1280 1370 1126 860 582 635 1117 1343 1543 1654 1861 1859 1626 1965 2373 1935 1898 2116 1483 929 831
1921 2210 2479 2448 2431 2682 2789 2828 2655 2299 2142 2146 2045 1903 2060 1876 1743 1647 1560 1280 1086 1117 1139 1120 1051 587 70 734 978 1037 1199 1336 1029 1377 1564 1786 2252 1861 1699 1723 1648 1146
1809 1961 2196 2361 2401 2538 2745 2880 2930 2677 2347 2128 1964 2041 1864 2057 2040 1794 1756 1575 1308 1214 1103 1074 1013 690 8 0 484 0 0 460 839 648 771 1146 1322 1770 2054 1892 1750 1500
2043 1630 2086 2254 2288 2594 2752 2867 2807 2840 2485 2109 1940 1980 2054 2005 1952 1972 1834 1865 1678 1452 1390 1277 1171 784 151 0 0 0 0 219 1328 1053 809 736 975 1226 1328 1602 1990 1944
1362 1742 1776 1919 2289 2401 2528 2399 2671 2642 2517 2202 1891 1854 1951 2044 1942 1893 1881 1900 1754 1630 1571 1354 1248 898 726 283 0 0 0 20 1035 1282 1102 930 928 1012 1266 1353 1478 1643
885 1096 1633 1949 1968 2310 2536 2423 2392 2607 2641 2465 2149 1788 1753 1851 1973 1844 1799 1818 1770 1742 1654 1550 1464 967 866 796 728 485 382 29 676 1168 1175 1000 1084 1196 1275 1522 1662 1637
959 948 1253 1480 1780 1884 1965 2152 2454 2224 2562 2700 2395 2047 1854 1787 1904 1882 1970 1819 1772 1810 1741 1722 1642 1329 958 941 902 843 792 722 726 847 1016 1179 1128 1196 1355 1516 1521 1707
780 902 960 1008 1343 1542 1765 2385 2049 1695 2189 2595 2558 2361 2122 1915 1876 2004 1966 1941 1841 1781 1683 1761 1720 1500 1046 1006 986 922 892 856 840 824 985 1113 1333 1386 1333 1394 1504 1497
698 838 924 1101 1152 1207 1395 1646 1584 1440 1528 1523 1870 2372 1808 2244 2166 2086 2006 2035 1903 1662 1388 1440 1692 1576 1128 1124 1055 1008 967 928 938 959 977 981 1003 1269 1462 1464 1511 1548
450 560 628 846 1014 1091 1120 1263 1364 1260 1405 1456 1256 1393 1584 1894 1476 2123 2143 2160 2001 1599 1828 1552 1422 1712 2052 1207 1161 1145 1084 1073 1111 1161 1221 1268 1317 1340 1326 1351 1651 1783

ECMWFNIL_con_mucape_075.txt.gz
CAPE
2137 2099 2013 2117 2181 1963 1853 1635 1363 1550 1705 1699 1515 1762 2036 2268 2250 2574 2666 2970 2690 2472 2646 3288 3727 3736 3531 4553 4172 3384 3875 2937 2202 3165 3200 3532 3397 2713 2606 2651 3056 2441
2122 2091 2024 1860 2038 1998 1873 1586 1634 1402 1661 1716 1348 1706 1815 2512 1931 2198 2657 2843 2804 2461 2587 2563 3071 3548 3970 3536 4212 3352 3972 4008 3677 2888 3488 3605 2903 3194 2866 2826 2696 3300
2280 2005 1982 1834 1673 1955 1506 1637 1747 1636 1520 1537 1507 1652 2040 1890 2299 2047 2143 2199 2553 2119 2241 2483 2512 2713 3038 3495 4347 3401 3202 4222 3867 2846 3172 3629 3614 3205 3541 2848 2754 2548
2719 2159 1808 1590 1152 1329 1417 1409 1662 1749 1349 1450 1371 1225 1508 1682 1736 1956 2096 2215 2279 2252 2049 2160 2155 2255 2561 2848 3446 3619 3256 3824 3562 3454 3834 4447 3372 3265 3203 3015 2858 2992
3069 2461 1866 1636 1158 1028 1337 1188 1228 1509 1408 1168 1265 1239 1234 1347 1685 1641 1848 2190 2335 2164 2123 2180 2288 2249 2390 2441 2699 2878 2372 2793 2729 3137 3627 4399 4080 3562 2953 3036 3484 3272
3376 2932 2336 1700 1314 1036 1035 1166 1202 1211 1305 966 1142 1151 1155 1409 1507 1621 1727 1888 2052 1995 1748 1836 2077 2039 2142 2394 2594 2675 2382 2249 2478 2896 3156 3257 2898 2884 2910 2872 3484 3091
3201 3317 2690 1812 1478 1250 1047 1121 1218 1242 1122 912 1007 1176 1201 1369 1576 1624 1707 1729 1642 1622 1398 1490 1986 1869 1810 1942 2496 2707 2610 2474 2424 3001 2971 2898 2908 2708 2999 3054 3598 3627
2884 3204 3172 2332 1498 1204 1255 1006 1169 1207 1160 1032 812 994 1212 961 1594 1495 1572 1592 1581 1496 1490 1277 1736 2044 1683 1729 1960 2311 2504 2228 2135 2684 3064 3079 2920 2746 2617 2523 2649 2782
2682 2876 2800 2391 1638 1072 1068 821 968 1198 1156 1208 871 738 1123 1251 1404 1451 1518 1566 1694 1716 1630 1439 1681 1989 2026 1664 1665 1903 2277 2043 1446 1840 2325 2496 2560 2745 2660 2551 2370 2542
2283 2665 2064 2315 1572 1066 787 755 492 739 1117 1164 1042 540 698 1155 1161 1310 1444 1659 1694 1802 1726 1751 1737 1894 2026 1859 1813 1884 2043 2298 2014 1697 1721 2067 2240 2319 2178 2204 2248 2378
2175 2659 2320 2179 2011 860 870 780 460 346 603 882 816 409 215 604 1100 1214 1427 1608 1640 1778 1816 1973 1987 2032 2203 1853 1697 1732 2095 1906 1815 1989 1965 2060 2088 2107 2056 1989 2101 2094
1610 2026 2288 1598 1388 897 964 708 540 286 288 632 720 382 267 146 612 1029 1070 1454 1742 1904 1961 2058 2181 2238 2312 2155 1666 1344 1437 1722 1574 1752 1860 2097 2164 1952 2053 2035 1884 2029
1150 1752 2201 2063 1897 1600 1150 981 652 440 230 309 510 496 279 136 154 877 1136 1178 1640 1867 1896 1994 2008 2086 2402 2412 2236 1504 1043 1392 1256 1307 1441 1526 1655 1431 1155 1209 1356 1326
1713 1744 2263 2354 2160 2170 1732 1556 959 617 423 296 389 390 284 224 124 194 1003 1244 1317 1639 1921 1793 1884 1996 2272 2460 2426 1971 1291 1169 1289 1226 1085 1114 765 892 817 595 670 802
1974 2297 2318 2273 2062 2349 2398 2063 1715 975 762 755 580 466 314 111 62 44 363 1052 1205 1408 1593 1353 1151 1506 1940 2256 2221 2264 1756 1122 1289 1540 1278 916 801 621 682 662 432 384
1882 2207 2641 2161 2233 2771 2832 2426 2070 1890 1168 981 798 588 752 675 569 246 92 400 883 1126 1180 1102 858 681 1298 1347 1732 2044 2026 1173 901 1292 1623 1272 1073 796 538 537 543 452
1597 1806 2131 2376 2583 2611 2976 2867 2629 2312 1910 2300 1684 1168 1296 1704 1217 556 346 194 346 678 826 635 386 268 398 956 1163 1374 1715 1768 1154 1070 1474 1537 1208 1312 1042 486 326 260
1819 1673 2032 2336 2715 2569 2867 2830 2461 2735 2608 2122 1848 1490 2008 1418 1330 1342 1405 660 343 356 393 521 356 126 0 9 922 1099 1499 1880 1225 982 748 826 1134 1007 929 870 654 352
1518 1741 1803 1869 2578 2731 3079 2284 1915 1962 1843 1756 1877 1988 1600 2120 2297 1768 1856 1706 1148 819 490 347 308 176 0 0 438 887 1061 1329 782 646 540 466 514 954 1138 1015 932 793
1125 1166 1336 1521 2034 2194 2065 1913 1832 1993 2202 1727 1367 1911 2320 2144 2025 2156 2001 2230 2002 1727 1599 982 593 294 0 0 0 248 803 1117 1635 999 353 199 430 404 623 1057 1599 1568
497 579 932 1224 1311 1874 1426 1357 1494 1717 1604 1863 1980 1402 1745 2540 2190 1796 2260 2303 2157 2108 2014 1585 1104 939 256 0 0 0 0 51 1956 1747 1035 620 399 378 776 606 1130 1403
548 575 610 711 1205 1313 1447 1780 1804 1833 1742 1880 1586 2148 1614 1450 1982 2205 2233 2233 2245 2305 2026 1897 1615 997 983 996 886 686 649 489 1544 2143 1653 1304 1297 1315 1028 1090 901 1076
636 550 561 572 670 753 1078 1265 1329 1885 1924 1911 1733 1730 1792 2500 1946 2095 1757 2192 2235 2536 2410 2238 2014 1738 1198 1056 1041 997 864 812 1490 1616 1714 1644 1520 1717 1762 1566 1281 1358
648 528 522 568 598 588 852 1123 1159 1428 1826 2175 2195 2279 2091 1946 2265 1834 1830 1944 2196 2354 2296 2444 2354 2063 1686 1485 1315 1172 1058 1191 1597 1564 1534 1607 1804 1925 1875 1834 1898 1742
514 529 512 542 602 567 673 868 921 1167 1498 1674 1974 2084 1796 1632 1720 1680 1734 1690 1532 1869 2057 2006 2200 2162 1916 1797 1614 1435 1262 1397 1881 1536 1455 1506 1526 1782 1958 2054 1974 2052
267 318 344 375 447 546 861 1194 1136 956 1095 1478 1701 1925 1680 1311 1588 1963 1997 1772 1633 1712 1874 1923 1756 2199 2548 1860 1745 1604 1440 1409 1975 1781 1609 1646 1847 1787 2012 2074 2126 2177

ECMWFNIL_con_mucape_078.txt.gz
CAPE
2577 2605 2500 2589 3085 2767 2645 2362 1873 1887 2608 2119 2245 2353 2733 3292 3208 3108 3131 3314 3293 3346 3830 3993 3943 3823 3896 3729 4134 3805 4256 3742 4210 3146 3601 3569 3875 3354 2181 2033 2414 3149
2708 2747 2656 2361 3017 3466 3408 2485 2364 2327 2594 3134 2167 2752 2621 2973 2700 2826 2998 3221 3344 2950 3796 3570 3904 4002 3634 3819 4045 4080 4552 4312 3462 2126 3828 3306 4184 3105 2897 3090 2512 4199
2543 2623 2245 2180 2027 2260 1854 2002 2350 2171 2135 1836 1838 2652 2470 2392 2420 2994 3116 3104 2953 2451 3539 3605 3691 3956 3665 3727 4216 4154 3524 4452 3482 2846 3340 3680 3668 3857 3981 2530 2138 2805
2720 2481 1943 1744 1722 1956 1910 2094 2327 2317 1844 2117 1790 1230 1424 1333 2342 2690 3086 3140 3296 3136 2788 2793 3054 2970 3481 3665 4520 4383 3744 4053 4081 3678 3688 4196 4774 3534 3495 3452 2613 2254
2460 2373 2073 1915 1628 1937 2003 1862 1440 1800 1738 1777 1464 1873 2481 2751 2670 2252 2720 2964 3320 2849 3208 3142 3096 2942 3526 3520 3857 4127 3643 3540 3693 4305 4306 4943 5188 4235 3252 3678 3862 3260
3008 2872 2656 2278 2008 1868 1530 1472 1621 1746 1790 1414 1652 1533 1466 2124 2317 2091 2208 2254 2154 1973 2109 2232 2549 2336 2750 3499 3522 3485 3078 2698 3088 3948 3876 4233 3812 3401 2374 3324 3798 3845
2270 2295 2257 1925 1478 1363 1525 1531 1546 1673 1356 1206 1610 1515 1428 1450 1961 2184 2447 2357 2209 2318 2044 2298 2860 2772 2507 3178 3435 3784 3647 3622 3084 3726 4014 3729 3907 3540 2924 3176 3798 3747
1602 1542 1744 2109 1353 929 1227 1430 1438 1435 1857 1685 1231 1680 1666 950 1763 1556 1998 2244 1930 2282 2185 2194 3024 3242 2162 2361 3183 3520 3261 2521 2678 4010 3998 3816 3727 3855 3354 3122 3451 3972
1985 1851 1618 2028 1350 1133 780 849 1119 1147 1500 1574 884 952 1490 1495 1772 1506 2058 2486 2212 2414 2767 2302 3219 2743 2416 2519 2727 3284 3154 2524 2001 2854 3235 3432 3414 3634 3368 3203 3138 3311
2016 2077 1784 2221 1123 836 849 737 748 835 1279 1217 828 819 982 1518 1700 1728 2334 2656 2504 2784 3022 2516 3134 2537 2414 2306 2984 3097 2936 3135 3190 3349 2876 2876 3032 3034 2865 3023 2969 3221
2008 2620 2655 2732 2609 1325 619 574 609 696 900 991 932 821 846 1134 1635 2106 2607 2858 2058 2337 2689 2717 2535 2633 2863 2293 2081 2110 2661 2490 2570 2733 2974 2994 2824 2955 3129 3320 3106 2842
1907 2001 1726 2126 2915 2383 1622 526 546 390 514 903 970 985 963 890 1485 1425 1759 2961 2430 2234 2394 2672 2666 2593 2871 2705 2070 1942 2174 2281 2645 2854 2502 2635 2608 2717 2868 2796 2483 2764
2062 1733 1488 1778 2508 2081 1804 1135 519 362 277 440 707 882 804 558 868 1480 1597 1941 2655 2427 2172 2472 2704 2584 2902 3080 2702 2347 2243 2255 2113 2404 2176 2287 2327 2281 2099 2264 2412 2278
1382 1160 1376 1217 2105 2812 2629 1812 1202 860 476 492 811 802 619 496 241 1045 1630 1406 1924 2033 2234 2558 2890 2692 3057 3380 2966 2552 2364 2280 2204 2031 1750 1840 1895 2196 1977 1613 1726 1674
1588 1447 2062 2260 2250 2636 2925 2540 2443 2566 2292 1463 1214 750 530 480 380 175 785 1144 1183 1558 1862 1978 1949 2146 2209 2648 2864 3041 2731 2199 1868 1785 1780 1771 1851 1540 1674 1571 1113 923
1103 861 1240 1490 1676 2041 2306 2514 2506 2245 1766 1701 1955 1111 1165 1090 826 687 305 943 1269 1555 1703 1460 1461 1586 1887 1571 1985 2445 2676 2098 1775 1622 1640 1658 2001 1862 1379 1300 819 573
1051 980 1221 1640 2093 2081 1790 2596 2421 2309 2415 1934 1943 2562 2088 1912 1602 776 362 179 589 963 1248 1022 1139 1060 997 1410 1577 1918 2478 2724 2472 2412 2299 2328 2222 2352 1964 1276 864 857
839 937 1417 1415 1262 1459 1406 1765 2136 1978 2013 1638 1334 1599 1549 1440 1623 1651 1533 1207 419 346 622 873 988 822 133 449 1264 1620 1907 2433 2418 2143 1702 1868 2077 1859 1984 1680 1179 743
1161 930 867 1025 1182 1843 1792 1820 1932 1944 1902 1884 2050 1842 1738 2262 1802 1189 1265 1796 1456 1471 909 395 731 499 8 0 0 1192 1555 1752 1966 2011 1693 1247 1182 1697 1708 1728 1619 1226
692 930 961 1017 1010 1290 1379 1664 1519 1364 2050 2367 2263 2331 2296 2157 1890 2118 1891 1605 1534 1828 2110 1910 1340 419 0 0 0 344 1108 1367 1798 1834 1833 1453 1182 1252 1340 1502 1605 1612
617 712 810 1043 1205 1131 1028 1156 1254 1309 1724 2104 2181 2528 2552 2358 2126 2184 2261 2132 1760 1535 1650 1843 1516 1314 1040 160 0 0 137 920 1428 1766 1542 1260 1117 1189 1563 1411 1672 1712
591 642 643 726 899 948 892 1150 1340 1341 1526 1954 2563 2720 2585 2377 2273 2083 1928 1681 1638 1571 1718 2005 1966 1481 1341 1211 1004 526 0 23 1022 1645 1639 1338 1093 922 907 1159 1279 1307
612 527 558 702 702 749 855 866 1346 1534 1574 2057 1996 2260 2012 2151 2341 2085 1917 1857 1580 1562 1551 1747 2108 2058 1673 1593 1394 1132 950 781 918 1530 1893 1763 1426 1316 1239 1250 1258 1174
554 539 600 698 629 574 573 633 1233 1537 1688 1984 1914 1942 2091 2026 2142 2275 2207 2084 1773 1561 1432 1673 1897 2280 2124 1852 1618 1489 1242 1099 1004 1462 1722 1969 2189 2035 1909 1907 1874 1920
194 221 311 539 665 641 551 579 906 1011 1080 1361 1500 1249 1553 2013 1988 1907 1664 1674 1835 1876 1641 1753 1837 2005 2138 1990 1769 1725 1631 1375 1138 1422 1625 1704 1780 2003 2060 2002 2017 2107
0 125 210 250 366 570 572 522 590 713 747 780 961 1099 1176 1238 1336 1388 1586 1665 1655 1634 1651 1739 1543 1900 2388 2408 2132 1844 1814 1815 1689 1860 1800 1743 1796 1874 1982 2070 2117 2195

ECMWFNIL_con_mucape_081.txt.gz
CAPE
1852 2561 2164 2861 2525 2401 2195 2396 2454 2436 2448 2565 2778 2367 2692 2577 2387 2249 2662 2828 3037 2386 2859 2830 3229 3010 3892 4085 3419 2899 3031 3140 3830 2779 3344 3541 3342 3423 3243 2733 2666 2204
1951 2275 2568 2674 2508 2949 2216 2319 2335 2250 2214 2210 2297 2360 2606 2751 2536 3004 2618 2716 3070 3038 3067 2943 3082 3031 3577 3813 3389 2586 3303 3820 2626 3107 3110 3578 3617 3162 2988 2816 2844 3544
2058 2197 2316 2203 2411 2663 2970 2146 2115 1928 2017 2256 2054 2015 2528 2616 2709 2577 2677 2963 2538 3164 3289 3288 3367 3528 3459 3452 3444 3281 4014 3976 2956 2671 2453 2599 3674 3436 3215 3306 3007 2924
2283 2208 2120 2034 2072 2276 2438 2264 1929 1998 2024 1723 1970 2580 1963 2635 2303 2120 2807 3710 2395 2512 3077 3223 3305 3454 3379 3576 3593 3544 3186 3760 3558 3387 3410 3413 3480 4136 3523 3063 3455 2983
2235 2267 2119 1916 1806 1902 2018 1895 1794 2090 1950 1608 1438 1687 1883 1930 2096 2042 2956 2955 2415 2670 2925 2947 2939 3086 3164 3376 3582 3426 3305 3121 3325 3164 3221 2728 3386 4180 3991 3312 3113 2822
2157 2132 2080 1870 1672 1702 1867 1891 1815 1579 1793 1682 1501 1439 1393 2572 1902 2119 2596 2481 2558 2583 2553 2667 2730 2840 2908 3055 3639 3381 3186 2996 2756 2968 3469 3278 3489 3969 3616 3278 2805 2903
2243 2097 2111 2028 1598 1726 1784 1781 1790 1574 1530 1498 1619 1277 1308 2275 1863 2118 2217 2314 2464 2517 2351 2197 2351 2468 2730 2671 3298 3280 3033 2958 2668 2866 3228 3409 3636 3402 3296 3127 3414 3003
2522 2432 2301 2183 2025 1860 1712 1663 1599 1575 1622 1326 1603 1309 1268 1479 2036 2077 1930 2100 2027 1963 1960 2053 2150 1982 2317 2493 2828 2760 2842 3022 3107 2885 2806 2981 3150 2983 2774 2805 3088 3341
2393 2373 2260 2150 1974 1886 1702 1226 1344 1282 1370 1438 1484 1346 1151 1351 1237 1497 2091 1891 1922 1914 1841 1840 2157 2254 2024 2359 2575 2533 2721 2597 2344 2873 2918 2994 3197 3161 3016 2814 2554 3025
2568 2475 2179 2168 2030 1854 1748 1265 985 1213 1244 1549 1438 1368 1065 1336 1290 1172 1322 2107 1871 1929 1875 1754 2324 2227 2189 1992 2424 2513 2482 2445 2345 2377 2592 2766 2806 2917 2976 2891 2845 2657
2024 2046 2064 1668 1380 1470 1102 1174 827 549 1183 1102 1452 1174 958 1037 1555 1247 986 1608 1990 2011 2569 2018 2506 2247 1985 1863 2188 2454 2451 2341 2207 2219 2546 2546 2578 2592 3116 2565 2394 2349
1788 1500 1650 1615 1432 1511 1446 1093 682 442 703 730 1090 1041 1000 848 1060 1573 1539 1646 1624 1651 1936 2374 2233 2468 2023 1798 1692 1958 2410 2371 2264 2096 1957 2216 2518 2359 2377 2542 2578 2450
1490 1730 1948 1925 1769 1654 1362 1315 1076 962 752 874 708 982 919 872 748 1145 1898 1939 1697 1521 1552 1973 2148 1996 2272 2249 1882 1694 1542 1906 2103 2166 2118 1941 1882 1992 2195 2354 2308 2127
1302 1691 1474 1606 1847 1752 1502 1365 1168 906 1141 1522 1674 816 876 819 937 749 1145 2090 1989 1670 1525 1677 1918 1922 1893 2273 2242 1982 1908 1842 1618 1700 2013 2002 1875 1713 1663 1708 1795 1828
1174 1226 1194 1344 1355 1334 1326 1188 1056 1233 1622 1856 1835 1578 817 769 625 991 992 1099 1941 1855 1710 1735 1861 1876 1854 2067 2334 2108 1900 1936 2039 1742 1638 1831 1835 1624 1566 1587 1571 1607
862 1098 1536 1392 1310 1267 1236 1286 1246 1816 2230 2090 2002 1813 1238 1372 1420 621 925 974 1090 1690 1748 1729 1824 1946 2064 1887 2086 2320 2079 1794 1818 1908 1788 1593 1570 1496 1404 1506 1584 1528
994 1272 1257 1172 1325 1726 1602 1955 2490 2343 2138 2065 1724 1417 1368 1467 1451 1234 1238 714 931 1022 1416 1533 1495 1619 1911 1914 1878 2109 2232 2124 1853 1784 1797 1674 1336 1252 1260 1256 1289 1342
741 813 838 1112 1329 1418 1376 1261 1669 1670 1614 1666 1612 1473 1497 1588 1400 1440 1381 1381 1162 939 906 1113 1265 1322 1410 1652 1810 1869 2045 2141 2054 1914 1776 1695 1467 1085 1131 1213 1168 1073
773 800 835 856 908 1203 1373 1520 1566 1728 1792 1776 2219 2392 2012 1830 1762 1655 1507 1488 1371 1284 1434 1556 1086 1089 1182 1187 1312 1563 1773 1868 1899 1948 1880 1763 1698 1454 1192 1210 1275 1201
650 714 863 820 833 857 996 1179 1338 1463 1510 1976 2136 2101 2107 2138 2117 1920 1699 1520 1504 1430 1330 1342 1327 1470 1387 1097 1022 1148 1330 1516 1614 1778 1834 1788 1663 1518 1354 1254 1203 1209
454 510 531 784 701 762 831 994 1090 1090 1258 1440 1954 2428 2410 2285 2087 1988 1940 1818 1622 1475 1362 1292 1223 1199 1314 1460 1484 1214 915 1010 1251 1445 1588 1642 1636 1482 1291 1084 1028 1049
540 530 475 458 560 688 783 921 938 1165 1276 1524 1865 1962 2192 2224 2206 2094 1920 1764 1632 1530 1450 1391 1346 1250 1174 1184 1326 1604 1749 1467 953 988 1294 1385 1359 1378 1318 1151 918 856
390 464 532 517 630 691 777 922 981 1303 1486 1711 1486 1562 1704 1778 1894 1989 1945 2018 1949 1786 1713 1580 1461 1391 1365 1282 1274 1350 1604 1866 1775 1540 1182 1082 1155 1098 1062 1035 911 742
364 378 383 446 618 597 644 761 925 990 961 931 1092 1393 1290 1296 1400 1744 1884 1935 2077 2027 1961 1928 1825 1737 1623 1456 1339 1471 1600 1762 1795 1644 1458 1335 1114 986 868 676 580 1025
250 202 0 44 375 517 537 661 778 862 921 908 879 774 817 1004 1212 1260 1298 1476 1562 1636 1611 1939 1891 1759 1839 1781 1615 1585 1687 1786 1870 1759 1414 1061 1076 1136 1079 995 853 1258
5 4 14 23 0 242 348 543 698 752 721 708 723 739 777 806 880 996 1086 1166 1162 1205 1635 1657 1682 1646 1653 1662 1645 1591 1512 1591 1744 1867 1681 1268 1058 1094 1140 1123 1097 1025

ECMWFNIL_con_mucape_084.txt.gz
CAPE
1250 1896 1634 1563 1302 966 1504 1442 2034 1922 1872 2053 2381 2085 2130 2428 2497 2694 2899 2808 2760 2754 2667 2392 2818 2958 3241 3180 2805 2864 2982 3279 3554 3018 3230 2757 2517 2576 2968 3113 2787 2684
1148 1728 2138 1658 1608 1936 1632 1503 1920 2059 1898 2025 2061 2375 2269 2342 2429 2456 2631 2682 2884 2763 2714 2449 2606 2592 2856 3773 3006 2354 2632 2846 2749 3508 2718 3449 3121 3108 3138 2851 2764 2963
1306 1524 2107 2169 1786 2161 1711 1812 1714 2014 2074 2031 2179 2016 2346 2443 2422 2364 2414 2514 2764 2673 2538 2309 2345 2543 2633 3390 3288 2553 2572 3189 2785 2514 2554 2524 2670 3272 3285 3091 2996 2888
1531 1486 1882 2169 2024 2254 1974 1855 1858 1776 1977 2074 2142 2180 2212 2511 2444 2342 2388 3123 2575 2743 2616 2494 2434 2762 2980 3230 3365 2813 2741 3316 3049 2800 2743 3199 3307 3445 3548 3681 3420 3288
1682 1579 1741 1922 2056 2072 2372 1945 1895 1811 1792 1914 1954 1930 1920 2419 2413 2351 2455 2746 2398 2674 2855 2818 2638 2838 3151 3235 3257 3081 2864 2979 3307 3362 3119 2798 2576 2900 3370 3717 3461 3210
1899 1769 1745 1758 1835 1950 2074 2281 2039 1787 1793 1767 1747 1878 1911 2032 2333 2269 2295 2636 2493 2277 2766 2922 2836 2892 3067 3096 3303 3231 3149 2991 2950 3226 3064 2778 2614 2676 3387 3586 3431 3211
2032 1996 1923 1780 1701 1720 1788 1893 2055 1968 1865 1587 1640 1573 1674 1825 2076 2126 2022 2313 2472 2305 2469 2754 2774 2826 2847 2861 3125 3213 3090 3011 2943 2810 2542 2565 2828 3001 3207 3389 3324 3034
1884 1888 1896 2033 1836 1663 1627 1636 1654 1644 1838 1692 1674 1634 1414 1580 1726 1927 1888 2232 2356 2293 2343 2472 2569 2558 2584 2644 2760 2990 3045 2942 2966 2838 2620 2581 2793 2996 3177 3108 2826 2685
1604 1553 1461 1636 1835 1806 1558 1558 1627 1634 1686 1647 1546 1459 1312 1141 1605 1744 1826 2083 2271 2285 2210 2311 2399 2417 2425 2507 2540 2696 2725 2757 2769 2741 2654 2649 2651 2759 2791 2717 2715 2609
1385 1525 1441 1547 1590 1722 1687 1572 1582 1621 1608 1588 1545 1373 1366 1325 1229 1628 1788 1869 1949 1978 1989 2042 2141 2140 2094 2255 2375 2432 2505 2442 2431 2455 2482 2521 2482 2548 2704 2809 2822 2775
1425 1300 1384 1430 1427 1576 1608 1514 1429 1412 1479 1455 1356 1405 1350 1341 1238 1212 1723 1800 1788 1787 1836 1860 1779 1819 1849 1810 1972 2180 2221 2212 2178 2145 2122 2186 2402 2490 2942 2674 2772 2753
1854 1716 1382 1322 1416 1370 1402 1467 1391 1162 1010 1101 1090 1160 1293 1304 1293 1151 1232 1622 1713 1700 1695 1697 1669 1640 1790 1834 1787 1905 2069 2085 2046 2038 2005 2071 2237 2341 2364 2538 2568 2576
1974 1835 1644 1584 1593 1475 1358 1316 1115 1139 981 712 738 1058 1062 1109 1163 1180 1066 957 1338 1584 1622 1685 1712 1666 1719 1776 1790 1792 1944 2035 2021 1947 1898 1821 1900 2138 2230 2261 2352 2354
1791 1927 1724 1763 1855 1741 1628 1453 1369 1231 1015 709 855 1282 1259 1056 1019 1060 1013 839 955 1111 1396 1594 1767 1802 1825 1813 1724 1655 1688 1938 2017 1972 1918 1831 1710 1696 1831 1998 2084 2151
1127 1327 1502 1557 1618 1879 1888 1774 1677 1523 1277 1366 1545 1481 1400 1156 999 945 949 1063 1042 974 1031 1156 1330 1494 1674 1836 1857 1722 1563 1461 1649 1848 1881 1868 1829 1735 1650 1645 1674 1669
1026 1397 1325 1329 1460 1688 1732 1743 1761 1636 1648 1846 1831 1707 1531 1236 1163 914 896 867 1163 1249 1121 1064 1099 1181 1468 1455 1610 1765 1708 1592 1490 1477 1461 1518 1570 1586 1559 1583 1580 1550
1026 1059 1123 1264 1397 1452 1454 1564 1528 1804 2123 2028 1559 1360 1277 1380 1178 938 889 828 750 1172 1386 1262 1175 1189 1277 1314 1345 1469 1647 1649 1662 1658 1643 1657 1675 1693 1703 1667 1485 1574
1017 1066 1178 1222 1337 1213 1186 1494 1656 1611 1450 1334 1317 1493 1564 1524 1281 1226 1170 1108 872 830 932 1285 1387 1321 1292 1288 1293 1300 1387 1587 1584 1553 1526 1534 1531 1545 1576 1605 1636 1591
904 860 915 1045 1307 1437 1456 1299 1329 1406 1355 1663 2106 2239 1951 1769 1731 1594 1506 1382 1210 1087 1053 1116 1089 1258 1348 1364 1406 1448 1388 1376 1502 1596 1609 1572 1541 1533 1492 1435 1412 1423
904 872 776 714 726 1003 1241 1322 1346 1327 1289 1379 1676 2044 2109 2060 1995 1778 1666 1509 1332 1228 1114 1116 1059 1058 1050 1112 1167 1190 1287 1462 1506 1490 1580 1604 1590 1570 1522 1454 1337 1245
716 803 813 783 748 800 828 890 1036 1112 1236 1328 1524 1684 1898 2112 1996 1927 1779 1657 1503 1423 1371 1327 1248 1061 1017 1086 1134 1170 1131 1093 1087 1185 1350 1484 1589 1577 1549 1499 1390 1245
617 674 684 647 640 681 694 743 828 932 1049 1105 1235 1339 1397 1449 1593 1855 1875 1799 1828 1761 1591 1448 1355 1264 1208 1151 1081 927 1000 1069 1231 1232 1066 1037 1087 1456 1564 1559 1494 1390
511 512 525 552 548 562 586 616 672 765 836 890 910 1098 1251 1313 1381 1470 1436 1628 1803 1850 1846 1790 1697 1598 1468 1344 1179 1060 1001 944 919 1019 1233 1381 1334 1195 1190 1345 1472 1506
443 456 464 492 546 596 618 601 563 577 630 791 840 882 948 1065 1128 1200 1251 1200 1335 1568 1668 1638 1612 1631 1651 1642 1559 1395 1244 1190 1118 1050 973 1145 1352 1420 1318 1197 1145 1244
320 346 386 421 424 467 542 587 553 542 569 651 786 890 874 817 812 874 970 1014 1063 1070 1421 1630 1516 1529 1585 1576 1545 1537 1530 1482 1426 1382 1285 1255 1225 1329 1463 1550 1496 1310
284 295 266 271 292 323 390 473 531 541 554 553 618 720 795 779 709 710 792 819 894 970 1037 1088 1092 1248 1258 1275 1320 1351 1392 1394 1390 1394 1366 1339 1298 1329 1439 1554 1623 1663

ECMWFNIL_con_mucape_087.txt.gz
CAPE
902 859 1084 962 969 928 1071 1223 1184 1153 1217 1343 1506 1620 1809 2164 2240 2455 2783 2880 2817 2827 2830 2758 2704 2468 2708 2671 2659 2563 2804 2701 2785 2798 2654 2671 2532 2359 2474 2807 2979 2853
1291 1231 1534 1211 1013 1184 1008 1226 1486 1410 1340 1416 1591 1642 1694 2000 2288 2392 2644 2874 2900 2828 2553 2600 2619 2478 2559 2922 2846 2337 2511 2723 2788 3629 2746 2656 2823 2980 3098 3195 3204 3119
961 1478 1674 1450 1269 1221 1112 1144 1567 1566 1509 1472 1662 1787 1727 1936 2152 2374 2472 2681 2796 2747 2513 2477 2530 2514 2338 2823 3179 2591 2204 2336 2465 2538 2628 2650 2518 2630 3035 3146 3180 3324
894 1020 1551 1831 1522 1353 1319 1290 1409 1699 1649 1586 1715 1884 1904 2101 2096 2133 2225 2869 2482 2562 2534 2504 2521 2462 2171 2357 2934 2958 2660 2397 2433 2620 2496 2676 2840 2931 2720 2976 3439 3294
1015 959 1176 1728 1827 1646 1601 1389 1418 1552 1758 1692 1704 1808 1869 2081 2240 2154 2127 2205 2355 2414 2460 2428 2419 2335 2222 2341 2728 2868 2854 2664 2684 2987 2956 2861 2782 2582 2662 3329 3429 3367
1144 1074 1118 1345 1714 1819 1881 1673 1474 1467 1490 1691 1782 1789 1837 1918 2168 2223 2209 2193 2255 2290 2354 2417 2400 2355 2364 2572 2777 2925 2977 2865 2737 2745 2891 2940 2783 2536 2546 2950 3122 3228
1382 1357 1298 1312 1468 1702 1862 1944 1804 1621 1483 1323 1498 1653 1804 1803 1874 2095 2150 2150 2224 2200 2219 2440 2534 2507 2435 2666 2895 3009 3020 2956 2931 2900 2810 2750 2642 2436 2404 2783 3036 3127
1588 1587 1558 1500 1470 1488 1629 1815 1951 1919 1812 1690 1607 1726 1520 1642 1664 1792 1966 2047 2164 2245 2168 2231 2460 2534 2560 2633 2782 2912 2938 2953 2957 2946 2880 2764 2692 2450 2326 2510 2753 2847
1584 1634 1628 1602 1578 1521 1481 1516 1604 1713 1820 1871 1729 1812 1617 1494 1445 1551 1706 1839 1978 2130 2150 2123 2214 2345 2444 2544 2658 2699 2719 2781 2844 2874 2794 2687 2572 2421 2378 2462 2590 2592
1520 1566 1617 1626 1628 1609 1564 1502 1456 1438 1457 1507 1565 1652 1717 1561 1436 1451 1458 1622 1767 1893 1962 2016 2067 2151 2253 2334 2423 2438 2455 2480 2554 2634 2625 2540 2396 2347 2381 2402 2407 2354
1550 1557 1553 1576 1590 1623 1644 1630 1578 1502 1389 1404 1426 1471 1548 1586 1528 1372 1271 1383 1557 1701 1804 1855 1940 2025 2108 2193 2252 2271 2257 2280 2301 2296 2306 2319 2308 2333 2600 2275 2283 2326
1538 1534 1526 1563 1560 1528 1533 1600 1632 1624 1573 1477 1399 1458 1506 1522 1514 1407 1256 1238 1382 1534 1660 1776 1868 1951 1988 1995 2044 2099 2106 2142 2156 2138 2107 2048 2036 2045 2061 2129 2262 2316
1659 1484 1317 1362 1398 1399 1417 1486 1536 1565 1529 1467 1378 1330 1376 1433 1423 1369 1310 1232 1243 1380 1505 1626 1711 1754 1746 1778 1849 1855 1833 1851 1910 1947 1946 1938 1919 1898 1863 1902 2028 2144
1790 1790 1752 1560 1314 1282 1280 1289 1389 1481 1517 1459 1326 1218 1141 1188 1195 1121 1130 1180 1201 1191 1381 1475 1537 1564 1571 1604 1624 1616 1632 1655 1702 1755 1785 1806 1808 1780 1745 1730 1795 1876
1706 1750 1747 1740 1718 1603 1460 1390 1358 1366 1371 1380 1319 1173 1030 1084 1051 968 829 873 953 1024 1092 1294 1417 1463 1498 1512 1509 1520 1532 1564 1601 1647 1706 1727 1709 1676 1654 1641 1621 1602
1560 1630 1779 1842 1804 1708 1621 1722 1733 1606 1424 1332 1340 1279 1222 1281 1149 958 945 826 785 867 929 979 1061 1246 1438 1438 1461 1485 1484 1522 1532 1531 1586 1645 1645 1620 1621 1616 1588 1542
1058 1102 1150 1317 1448 1543 1521 1440 1549 1698 1727 1652 1565 1502 1406 1218 1391 993 966 869 760 709 801 857 880 926 1017 1254 1431 1517 1547 1522 1481 1472 1464 1455 1449 1479 1484 1443 1388 1367
798 902 954 1098 1167 1243 1265 1327 1511 1541 1530 1558 1584 1578 1503 1343 1042 1139 1038 958 866 757 745 824 882 870 887 894 994 1159 1347 1465 1463 1433 1396 1354 1345 1356 1370 1390 1429 1436
887 938 1014 1103 1107 1097 1109 1216 1351 1378 1360 1307 1506 1877 1945 1719 1574 1382 1272 1322 1218 900 774 738 883 1006 1021 983 965 986 1018 1086 1229 1320 1331 1320 1332 1345 1357 1367 1358 1327
750 842 898 987 1059 1135 1163 1112 1080 1139 1188 1191 1283 1619 1904 1957 1853 1710 1602 1481 1356 1180 1041 940 817 833 935 1069 1146 1177 1190 1194 1194 1187 1177 1224 1269 1274 1273 1278 1297 1306
624 722 747 744 765 768 797 780 971 1027 1068 1168 1191 1246 1460 1583 1556 1649 1712 1750 1665 1526 1429 1365 1308 1154 943 854 921 997 1057 1100 1154 1191 1215 1223 1224 1248 1309 1364 1387 1401
569 718 813 776 771 748 693 620 601 640 729 842 1032 1104 1224 1346 1465 1473 1483 1492 1494 1598 1664 1645 1665 1602 1418 1140 954 950 915 973 1002 1008 1038 1068 1101 1151 1207 1231 1279 1335
417 412 506 592 643 681 746 699 571 482 484 500 634 746 839 930 1203 1345 1390 1386 1355 1294 1288 1321 1284 1338 1333 1494 1553 1455 1259 1111 996 917 911 966 1019 1058 1113 1148 1172 1184
388 407 435 442 418 431 463 491 494 474 426 442 502 503 567 728 735 935 1130 1140 1254 1296 1275 1219 1114 1152 1180 1208 1292 1388 1513 1516 1363 1229 1136 1064 1031 1006 964 926 938 1017
337 418 464 469 445 432 439 452 458 433 427 410 419 419 430 520 598 697 758 848 860 868 1101 1224 1234 1103 1030 945 956 972 1129 1228 1290 1354 1373 1365 1348 1338 1316 1303 1284 1248
270 271 298 359 400 413 399 375 363 352 360 399 447 434 411 405 513 604 690 711 715 756 862 1004 1095 1120 1067 994 871 778 780 878 1110 1112 1105 1192 1261 1300 1328 1347 1336 1333

ECMWFNIL_con_mucape_090.txt.gz
CAPE
983 940 810 687 746 807 853 848 966 1160 1303 1362 1406 1439 1559 1852 2173 2388 2792 2823 2865 2889 2870 2830 2796 2674 2576 2520 2947 2628 2832 2506 2660 2459 2540 2612 2553 2578 2724 2976 3118 3177
975 946 1138 771 734 886 783 825 886 992 1080 1158 1234 1307 1414 1824 2122 2316 2534 2715 2828 2829 2766 2768 2754 2626 2580 2659 2672 2513 2704 2924 2935 3252 2886 2971 2940 2932 3138 3223 3217 3122
897 871 1036 894 785 811 794 898 1067 1019 1027 1031 1133 1311 1433 1846 1991 2201 2338 2563 2590 2667 2692 2742 2695 2512 2511 2618 2738 2583 2460 2466 2680 2687 3122 2738 2778 2901 2941 3286 3317 3386
846 991 1050 1054 901 842 818 926 1159 1251 1195 1189 1259 1538 1632 1798 1981 2098 2151 3060 2544 2587 2656 2657 2622 2444 2415 2469 2750 2743 2472 2288 2429 2351 2548 2813 2961 3140 3140 3100 3777 3674
724 955 1177 1294 1097 1038 1021 1014 1086 1273 1375 1352 1318 1478 1849 1914 2058 2029 2045 2240 2473 2435 2452 2475 2479 2456 2415 2419 2442 2740 2599 2533 2478 2636 2707 2698 2594 2802 2728 3213 3469 3410
691 736 973 1305 1433 1341 1311 1261 1222 1190 1390 1416 1409 1568 1653 1741 1978 2095 2064 2026 2179 2297 2363 2327 2364 2404 2384 2307 2342 2584 2688 2710 2582 2608 2877 2933 2916 2635 2638 2981 3168 3283
754 737 760 1002 1280 1436 1485 1476 1426 1349 1224 1415 1470 1507 1553 1608 1784 2008 2052 2059 2124 2335 2271 2406 2423 2397 2305 2396 2462 2614 2644 2735 2755 2739 2748 2785 2759 2750 2562 2744 3100 3178
876 832 830 884 1099 1268 1474 1579 1590 1497 1373 1271 1308 1421 1544 1625 1644 1775 1992 1990 2109 2199 2243 2247 2414 2444 2285 2410 2553 2658 2754 2738 2823 2811 2813 2818 2824 2762 2647 2492 2768 2838
1083 1036 964 1026 1106 1137 1284 1451 1600 1677 1663 1635 1626 1642 1578 1566 1654 1657 1706 1840 1946 2164 2165 2108 2230 2398 2379 2455 2541 2607 2730 2766 2858 2813 2772 2753 2721 2669 2547 2443 2516 2653
1102 1090 1089 1160 1237 1228 1242 1313 1448 1616 1737 1775 1779 1741 1718 1721 1760 1788 1688 1558 1693 1932 2036 2088 2057 2145 2280 2325 2467 2515 2599 2679 2680 2692 2686 2636 2622 2576 2432 2396 2480 2498
1156 1168 1196 1241 1302 1362 1386 1376 1385 1448 1531 1582 1616 1640 1642 1618 1529 1716 1694 1600 1540 1645 1828 1928 1983 2025 2092 2159 2241 2342 2432 2494 2523 2478 2470 2494 2498 2462 2638 2523 2359 2435
1211 1248 1283 1329 1377 1410 1440 1462 1462 1447 1450 1433 1410 1384 1382 1396 1405 1426 1389 1488 1514 1519 1610 1750 1822 1862 1936 2031 2054 2108 2154 2228 2328 2354 2278 2256 2212 2175 2209 2375 2462 2476
1219 1278 1330 1361 1397 1420 1469 1495 1531 1554 1557 1527 1474 1456 1486 1450 1392 1382 1414 1450 1484 1483 1447 1557 1639 1648 1734 1807 1875 1926 1970 2095 2103 2131 2150 2082 1998 1954 1917 1926 2021 2168
1247 1307 1343 1378 1319 1356 1448 1522 1551 1576 1582 1592 1557 1544 1513 1450 1361 1308 1310 1341 1367 1333 1318 1440 1485 1500 1518 1590 1684 1724 1746 1782 1867 1970 1941 1923 1877 1856 1798 1794 1846 1901
1450 1433 1403 1394 1382 1224 1137 1277 1419 1488 1492 1511 1518 1512 1447 1366 1314 1263 1192 1178 1193 1178 1118 1273 1312 1361 1397 1412 1446 1518 1575 1587 1620 1700 1776 1835 1798 1725 1669 1654 1663 1663
1170 1272 1394 1526 1583 1458 1182 1186 1221 1353 1414 1364 1416 1481 1497 1492 1429 1364 1219 1070 943 869 836 829 1129 1296 1382 1213 1276 1533 1470 1440 1511 1577 1660 1735 1811 1806 1657 1540 1537 1532
982 1220 1365 1529 1594 1562 1502 1470 1458 1430 1548 1512 1474 1442 1412 1438 1499 1294 1187 1065 984 846 758 799 781 872 988 1071 1165 1233 1476 1526 1468 1505 1502 1575 1634 1729 1765 1687 1547 1429
885 1131 1243 1291 1352 1510 1530 1529 1471 1348 1436 1515 1694 1672 1554 1441 1459 1453 1392 1317 1184 1037 866 884 850 794 748 746 824 947 1089 1493 1527 1470 1415 1338 1410 1444 1497 1489 1446 1331
816 772 834 945 1140 1182 1241 1269 1168 1142 1222 1330 1462 1764 1819 1797 1777 1722 1711 1535 1400 1407 1348 1281 935 879 807 731 768 847 842 878 1463 1585 1496 1445 1366 1337 1328 1341 1368 1355
718 738 795 853 898 941 1017 1051 1030 1101 1187 1248 1280 1439 1466 1504 1519 1542 1524 1465 1416 1423 1518 1537 1435 1367 1267 945 738 838 930 986 1010 1173 1405 1455 1465 1400 1281 1328 1337 1323
632 800 827 934 955 932 948 936 972 985 992 1064 1124 1194 1209 1194 1249 1298 1219 1268 1359 1387 1412 1398 1356 1296 1302 1286 1119 968 912 940 1028 1112 1130 1142 1134 1190 1361 1318 1354 1253
644 759 782 842 847 837 807 821 876 895 959 922 954 1009 1064 1106 1158 1154 1116 1165 1238 1294 1345 1354 1381 1322 1254 1296 1368 1404 1402 1315 1155 1026 963 985 998 997 985 1017 1071 1221
448 528 572 613 660 685 637 512 624 748 735 698 699 806 923 1072 1145 1239 1179 1152 1162 1179 1192 1261 1273 1258 1239 1239 1265 1314 1340 1392 1390 1349 1294 1204 1159 1133 1090 1053 1020 999
438 431 437 471 482 511 505 544 548 574 640 654 630 576 578 689 767 850 987 1056 1112 1100 1094 1128 1128 1128 1078 1093 1215 1237 1191 1192 1209 1198 1207 1237 1244 1262 1265 1281 1276 1247
374 325 318 317 325 329 333 370 410 449 504 563 599 573 546 524 548 559 602 764 869 915 948 1005 988 975 1006 1077 1093 1118 1120 1086 1068 1082 1059 1040 1044 1128 1167 1206 1235 1261
345 296 280 295 338 357 372 387 390 379 386 405 440 455 473 446 445 454 429 440 510 618 684 762 833 832 831 880 996 1093 1081 989 1091 1045 990 904 995 1005 1060 1157 1210 1213

ECMWFNIL_con_mucape_093.txt.gz
CAPE
2352 2357 2294 2347 2447 2326 2525 2530 2347 2505 3044 2784 2707 2745 3037 3272 3659 3507 3551 3860 4052 3888 4097 4219 4157 4042 3643 3703 3766 3564 3574 3563 3602 3258 3420 3266 3209 3053 2932 3255 3461 3441
2268 2369 2632 2287 2866 2885 2740 2444 2630 2678 3204 3384 3052 3187 3430 3439 3359 3422 3668 3761 3912 3829 4168 3968 4075 3972 3861 3374 3739 3518 3654 3603 3621 3184 3415 3399 3345 3272 3208 3361 3279 3793
2117 2195 2180 2163 1800 2138 1705 2066 2482 2590 2599 2531 2832 3242 3057 2999 3052 3591 3631 3624 3542 3364 4017 4111 4037 4190 3919 3808 3998 3631 3074 3650 3428 3231 3765 3690 3365 3165 3156 2850 3159 3360
2270 2074 1780 1749 1736 1914 1964 2339 2570 2654 2567 2780 2598 2461 2704 2502 2979 3310 3729 3726 3817 3948 3811 3821 3718 3583 3800 3932 4091 3831 3506 3614 3268 3596 3678 3856 3585 3259 3081 3091 3058 3086
1978 2088 1936 1918 1971 2170 2267 2138 1886 2328 2416 2433 2477 2987 3276 3333 3326 3121 3527 3720 4087 3893 4024 4050 4169 3834 4201 4069 4154 3905 3710 3213 3274 3758 3740 3687 3765 3333 3119 3200 3190 3123
2019 2266 2456 2281 2394 2347 2026 1928 2115 2146 2249 2163 2401 2590 2758 3396 3254 3214 3245 3151 3132 3203 3246 3489 3692 3486 3552 3933 4043 3832 3365 3047 3111 3708 3608 3592 3357 3400 3012 3254 3409 3268
1585 1798 1804 2050 2071 2126 2136 2212 2335 2479 2254 2193 2836 2794 2796 2899 3271 3417 3498 3299 2968 3172 2984 3423 4025 3875 3779 4036 4187 4141 3991 3754 3715 3857 3716 3621 3803 3727 3658 3597 3732 3616
1658 1647 1633 1973 1890 2203 2192 2321 2349 2638 2701 2961 2546 2785 2896 2556 3057 2848 3157 3345 3065 3277 3521 3394 3972 4435 3796 3642 3828 3843 3640 3160 3543 3979 3946 3781 3848 3836 3737 3666 3624 3865
2046 1973 1642 1637 1526 1632 1583 1534 1818 2144 2691 2518 2105 2106 2795 2671 2790 2586 3375 3593 3231 3412 3855 3632 4049 3852 3791 3858 3865 4013 3690 3137 2914 3472 3628 3396 3354 3590 3440 3468 3451 3532
2268 2171 1951 1597 1464 1404 1354 1321 1319 1631 2310 2030 2013 1803 2222 2865 2797 2809 3197 3580 3411 3518 3682 3639 3729 3627 3622 3716 4019 4002 3763 3750 3626 3679 3503 3404 3215 3136 3046 3276 3194 3251
2116 2396 2218 2326 2288 2291 1764 1404 1373 1376 1696 1684 1630 1645 1930 2217 2894 2936 3135 3318 2914 3130 3352 3534 3472 3521 3696 3433 3508 3596 3818 3390 3278 3640 3598 3673 3548 3575 3575 3497 3420 3136
2058 2225 2411 2467 2480 2548 2465 1951 1573 1619 1653 1745 1686 1835 2188 1925 2210 2445 2567 2971 2990 2950 3041 3274 3404 3502 3538 3512 3196 3257 3497 3512 3495 3829 3485 3559 3525 3524 3547 3454 3171 3275
2135 2227 2317 2542 2696 2730 2714 2388 2019 1865 1749 1664 1786 1879 1879 1684 1713 2231 2483 2447 2769 2788 2654 2941 3211 3090 3477 3575 3337 3183 3356 3517 3233 3499 3587 3508 3351 3208 2934 3004 3125 3062
1934 1709 1456 1543 1668 1846 2243 2414 2273 1866 1877 1786 1622 1636 1654 1646 1607 1690 1961 2087 2244 2396 2576 2679 2980 2935 3270 3422 3229 3074 3097 3203 3336 3274 3167 3171 3116 3247 2990 2582 2748 2755
941 869 908 1108 1069 1033 1145 1506 1941 2000 1991 1947 1903 1685 1365 1368 1347 1302 1537 1642 1760 1999 2151 2193 2062 2272 2384 2801 3031 3278 3043 2857 3014 3069 3059 3081 3219 2812 2815 3182 3043 2574
652 784 914 929 825 952 1095 1139 1249 1376 1696 1944 1942 1850 2000 1990 2050 1972 1430 1490 1578 1673 1682 1542 1627 1680 2112 1803 1928 2315 2840 2626 2630 2985 2980 2909 3076 3176 2833 2834 2613 2413
588 692 815 849 765 929 1140 1206 1173 1207 1252 1368 1522 1873 2118 2286 2140 2051 1888 1826 1741 1474 1378 1293 1286 1082 1139 1062 1057 1011 1503 2259 2796 3000 3193 3185 2927 3165 3223 2693 2560 2659
896 882 858 814 920 980 996 1185 1344 1340 1280 1173 1273 1324 1666 1680 1900 2059 2280 1996 1865 1858 1700 1534 1452 977 892 748 732 701 731 1542 1936 2327 2478 2635 2700 2514 2552 2547 2537 2366
640 766 770 712 743 966 1204 1412 1486 1456 1352 1461 1626 1521 1669 1780 2031 1791 2073 2054 2213 2297 2052 2001 1544 1102 1031 850 763 757 733 806 1434 1908 2128 2259 2286 2463 2501 2461 2574 2575
628 541 466 407 611 871 1110 1330 1438 1457 1452 1379 1336 1663 1352 1339 1460 1650 1790 1841 2046 2218 2409 2001 1377 1333 1200 929 826 804 757 756 1726 2069 2055 2164 2331 2447 2318 2368 2643 2742
457 518 520 447 437 647 865 1121 1268 1324 1284 1169 1088 1131 1190 1197 1241 1152 1132 1184 1295 1647 2144 1462 1434 1379 1252 984 1018 1074 1020 878 1847 1879 1799 1944 2068 2145 2324 2211 2296 2268
475 385 478 564 518 447 709 892 994 995 1000 1008 1025 1028 1000 1020 1062 1030 1013 1056 1093 1152 1216 1246 1235 1230 1194 1064 1095 1112 1176 1701 1917 2057 1909 1812 1891 1871 1737 1804 1776 1782
380 76 366 256 453 596 742 865 901 894 897 907 878 826 827 803 891 942 955 932 970 1036 1080 1155 1162 1184 1205 1162 1132 1167 1158 1788 1918 1893 2013 2036 1967 1934 1895 1732 1644 1576
309 291 214 209 162 299 441 586 588 638 670 705 686 670 680 749 752 802 896 928 973 984 951 983 998 990 1107 1194 1171 1120 1124 1491 1610 1686 1765 1837 1815 1798 1910 1966 1642 1172
263 300 313 358 408 302 332 432 464 472 483 403 556 545 486 454 456 472 555 607 665 752 829 848 932 973 1052 1051 1074 1098 1080 1101 1124 1126 1337 1437 1478 1607 1656 1748 1744 1278
245 277 293 270 277 300 313 336 335 344 354 389 438 449 433 388 310 297 421 510 513 515 515 541 672 765 807 865 909 945 977 1017 1039 1033 997 982 948 988 1255 1371 1314 1490

ECMWFNIL_con_mucape_096.txt.gz
CAPE
2307 2348 2393 2356 2663 2386 2495 2510 2468 2655 2691 2526 2385 2645 2648 3075 2896 3137 3143 3254 3614 3821 4529 4752 4549 3679 3606 3811 4128 3780 3592 3635 3938 3510 3263 3099 3254 2579 2694 2940 2719 2669
2271 2246 2173 2156 2572 2690 2563 2426 2383 2438 2744 2829 2677 2738 2767 2984 3005 3021 3175 3217 3529 3486 4268 4254 4003 3793 3740 3521 4105 3673 4022 3985 3966 3306 3050 3398 3336 2863 2617 2959 2686 2759
2318 2231 2208 2022 1776 2193 2001 2005 2066 2235 2289 2413 2370 2715 2647 2488 2925 2695 3054 3280 3195 3187 4000 4203 4376 4145 3782 3660 3464 3367 3300 4184 3469 3417 3694 3729 3395 2861 2811 2684 2707 3040
2308 2151 1924 1742 1491 1546 1670 1917 2024 1932 2082 2128 2203 2208 2015 2015 2437 2942 3130 2904 3378 3439 3484 3956 3969 3788 3866 3781 3757 3661 3582 3360 3330 3749 3688 3836 3664 3268 3094 2959 2742 2699
2165 2094 2014 1671 1392 1648 1641 1739 1754 1780 1745 1791 1851 2102 2411 2348 2604 2698 2930 3299 3372 3522 3582 3603 3917 3551 3787 4029 4081 3994 3752 3244 3417 3705 3773 3775 3898 3397 2999 2819 2848 2719
2011 2086 2072 1868 1576 1638 1539 1754 1708 1758 1866 1643 1804 1945 2034 2405 2369 2350 2535 2614 2937 2815 3006 3184 3530 3409 3420 3904 4126 3718 3645 3111 3331 3916 3563 3732 3552 3418 3000 3332 3450 3134
1805 1908 1765 1716 1459 1669 1601 1417 1551 1596 1650 1692 2050 1988 2052 2313 2401 2330 2504 2500 2501 2835 2729 3183 3657 3648 3453 3661 3962 4310 3879 3262 3586 3499 3648 3660 3634 3744 3508 3488 3700 3476
1292 1215 1601 1296 1214 1130 1268 1160 1243 1595 1643 1793 1766 1892 1692 2051 2298 2141 2302 2591 2584 2643 2875 3176 3574 3574 3323 3346 3730 3994 3931 3302 3123 3245 3642 3460 3617 3805 3816 3349 3496 3539
1558 1250 1204 1102 828 693 762 686 947 1194 1392 1425 1248 931 1630 1765 2206 2083 2520 3064 2874 2991 3286 3344 3563 3610 3376 3392 3581 3774 3799 3390 2973 3422 3609 3611 3643 3742 3325 3523 3387 3306
2056 1676 1310 792 490 422 421 483 367 502 892 1061 850 496 836 1924 2113 2429 2838 3301 3182 3298 3472 3389 3535 3376 3323 3415 3602 3540 3628 3808 3560 3611 3479 3536 3517 3328 3118 3072 2987 3192
2600 2272 1865 1761 1600 1221 662 383 288 267 337 535 495 328 385 1373 2381 2508 2902 3500 3126 3202 3264 3302 3258 3366 3497 3177 3142 3374 3536 3392 3445 3542 3721 3756 3653 3542 3344 3014 3005 2985
2017 1720 1856 2010 2259 2118 1885 1205 635 409 363 376 552 400 417 712 1652 2272 2176 2832 2907 3000 3079 3286 3121 3418 3459 3440 2997 2882 2946 3081 3223 3347 3223 3367 3377 3408 3373 3244 3152 3160
1103 1607 1942 2315 2661 2640 2648 2232 1432 789 509 567 660 613 482 575 860 1226 1700 2029 2238 2283 2405 2828 3095 3010 3245 3445 3193 3010 2917 3024 2936 3130 3227 2949 3079 2621 2556 2776 2737 2592
1752 1876 2125 2580 3027 2968 3055 2858 2388 1676 1381 1374 1372 1156 954 801 740 934 1213 1418 1526 1569 1726 2317 3006 3031 3264 3149 3083 2814 2789 2868 2780 2618 2617 2754 2664 2775 2413 2215 2290 2249
2418 2152 2228 2753 2855 2884 2852 2895 3085 2615 2203 2057 1922 1740 1316 1035 802 714 1038 1410 1339 1460 1450 1941 2202 2477 2486 2730 2592 2536 2560 2560 2594 2562 2400 2315 2341 2262 2399 2435 2076 1906
2073 2203 2078 1887 1946 1864 1886 2156 2281 2358 2251 2443 2238 2034 1770 1538 1416 1192 1340 1334 1588 1757 1592 1566 1660 1795 1955 1766 2079 2348 2706 2564 2458 2623 2540 2458 2488 2518 2220 2119 2116 1968
1777 1876 1557 1093 904 933 1358 1413 1430 1861 2014 2178 2202 2160 2305 2416 2275 1974 1555 1485 1386 1429 1398 1109 1252 1637 1461 1446 1247 838 1609 1762 2132 2730 3035 3096 2879 2674 2636 2378 2301 2129
1216 1389 1432 1382 1189 975 897 970 1097 1442 1835 1689 2007 1994 2205 2331 2636 2656 2766 2489 1952 1778 1596 1404 1571 1367 1224 1048 882 714 1068 1776 1660 1823 2157 2548 2711 2689 2585 2427 2316 2057
946 1117 1196 1225 1306 1409 1399 1318 1313 1241 1494 1590 1544 1841 1898 2221 2587 2683 2812 2754 2611 2668 2350 2104 2246 1545 1268 1133 981 895 816 878 1513 1514 1526 1998 2222 2588 2738 2665 2758 2617
1488 949 985 924 1058 1124 1134 1185 1274 1281 1395 1796 1728 1920 1920 2209 2592 2646 2747 2858 2650 2763 2863 2456 1809 1627 1358 1208 1140 1079 991 844 1781 2182 2049 1771 1920 2238 2311 2588 3092 3135
595 615 725 605 528 571 696 949 1174 1253 1109 1212 1622 1798 1649 2311 2432 2486 2482 2496 2345 2401 2385 1658 1438 1445 1414 1331 1240 1182 1092 825 1796 2700 2810 2390 2524 2706 2946 2717 2781 3018
407 495 585 568 565 527 644 651 782 969 1065 1183 1512 1721 1712 1783 1632 1857 1903 1888 2007 1920 1607 1375 1413 1277 1247 1169 1158 1164 1136 1431 2773 3080 2666 2786 3231 3180 3239 3455 3128 3000
466 473 507 480 435 385 364 417 555 676 732 908 1281 1450 1447 1298 1148 1110 1272 1183 1264 1751 1705 1523 1335 1162 1084 1022 1017 1035 1120 2372 2844 2751 2925 2969 3059 3242 3086 3003 3078 2750
383 396 394 232 250 302 342 351 370 493 622 592 881 965 1018 925 860 833 806 765 795 887 1030 1123 1128 1068 993 1060 1141 1089 1060 2102 2582 2456 2575 2686 2769 2506 2719 2715 2287 1743
315 258 207 176 0 166 359 349 478 491 656 730 607 575 523 528 748 645 543 566 610 666 778 761 771 797 807 826 881 975 1025 1467 1980 2133 2138 2253 2302 2341 2334 2218 1692 1504
299 257 197 133 26 145 8 135 98 1 213 357 317 602 621 605 604 481 490 580 602 596 612 589 571 592 689 754 782 836 887 1055 1440 1459 1359 1676 1946 1883 2057 2002 1424 1213

ECMWFNIL_con_mucape_099.txt.gz
CAPE
2426 2390 2972 2841 2688 2144 2282 2469 2205 2479 2303 1900 1710 1989 2678 1835 3221 2727 2952 3400 3174 3920 4277 4397 3846 3384 3492 3264 4054 3077 3270 3057 2733 3171 3437 3363 3311 2856 2206 2624 2007 1578
2645 2567 2473 2497 2809 2908 3020 2536 2421 2251 2216 3116 2364 2156 2312 3149 2516 2894 3177 3341 3296 3196 4373 4060 3391 3806 3881 3558 3559 3327 4632 4331 3828 2879 3365 3679 2994 2798 2365 2469 2008 1846
2581 2556 2490 2430 2287 2462 2364 2413 2384 2250 2345 2062 2280 2457 2260 2418 3017 2558 3408 3332 2754 2776 3200 4376 4381 3510 2931 3697 3894 3266 3056 3393 2953 3016 3860 3630 2968 3253 2688 2402 2471 2844
2433 2460 2105 1642 1629 1366 2116 2163 2158 2130 2066 2066 2279 2086 1620 1386 2028 2717 3322 2822 3179 3302 3287 3291 3392 3151 2966 3440 3625 3237 3766 3201 3405 3973 3936 3955 3430 3132 3215 2816 2491 2467
2329 2086 2183 1873 1614 1611 1723 1718 1852 1690 1701 1663 1870 2109 1865 2428 2393 2470 2752 2877 3201 3668 3381 4243 3707 2983 3848 3621 3205 3161 3532 3540 2896 3241 3176 3208 3607 3304 2369 2656 2787 2331
2067 1976 2016 1868 2032 1595 1628 1580 1515 1668 1486 1577 1718 1677 1990 2137 1873 2070 2283 2607 2882 2672 2902 2776 3384 3015 3124 3572 3419 3016 2939 2412 3672 4023 3308 3319 3351 3307 2959 3128 3805 2936
1806 1961 1789 1595 1498 1523 1666 1566 1549 1389 1616 1414 1423 1544 1752 2084 1940 2010 2382 2302 2418 2104 2151 2399 3287 3130 2952 3463 3722 4136 3160 3040 3968 3954 3136 3607 3718 3184 2772 3116 3035 3215
1632 1744 1679 1435 1165 937 1054 1338 1369 1428 1532 1615 1543 1653 1670 1886 2236 2050 2279 2334 2070 2200 2350 2700 3453 3608 3440 2999 3126 4057 3659 3237 2134 2408 2904 3043 3799 4297 3615 2458 3346 3368
973 1068 1179 972 871 637 658 631 851 984 1111 1303 1118 1499 1758 1357 1849 1898 1938 2185 2108 2123 2513 2654 3918 3775 3064 3103 3297 3937 4076 3011 2175 2936 2967 2740 2724 2848 2432 2697 2858 3119
711 733 599 636 656 460 361 380 264 350 710 960 678 780 768 1378 1189 1765 2002 3026 2753 2930 3900 2777 3497 2923 3201 3292 3440 3760 3339 3057 2575 3076 3534 3302 3109 2967 3227 3332 2868 3223
969 847 594 666 561 281 220 259 242 258 294 520 629 563 365 655 1386 1692 2343 3382 2740 2745 3104 2682 2891 3068 3046 3138 3432 3118 3020 2466 2778 2698 2558 2703 3007 3301 3016 3007 3246 3318
1719 1317 1086 997 960 872 595 273 151 145 192 343 395 561 300 180 900 1710 2095 3324 3034 2774 2877 3073 2814 2987 3172 2998 2957 2992 2957 2901 3009 3354 2974 2966 2883 2619 2652 2593 2186 2044
2261 1796 1503 1254 1478 1547 1539 1397 525 154 110 189 293 315 353 239 184 1365 1988 2463 2916 2747 2676 2942 3384 3018 3188 3214 2934 2881 2728 2907 2716 2692 2723 2610 2586 2108 2200 2440 2323 2161
2103 1681 1709 1908 1819 1881 1917 1799 1110 343 192 133 164 219 144 217 175 320 1268 1714 2258 2349 2371 2407 3073 3212 3074 3289 3421 2756 2598 2762 2836 2770 2529 2638 2410 2450 1807 1996 2021 1964
2160 1633 2116 2798 2908 3282 3306 3147 2495 1440 630 380 251 213 259 410 181 115 402 1001 1111 1220 1374 1332 1392 1977 2405 2694 2370 2570 2306 2132 2483 2619 2595 2411 2489 2295 2293 1838 1696 1481
2777 2776 2883 2926 3030 3092 3954 3894 3528 3281 2695 1930 1267 975 1188 1012 712 208 178 560 946 1065 860 826 568 714 1640 1697 2262 2451 2290 1923 1064 1896 2082 2237 2091 1845 1805 1749 1998 1765
2178 2057 1996 2330 2661 2720 2646 2775 2670 2570 2383 2480 2500 2465 2177 1740 1254 987 516 164 536 941 1252 772 681 1647 1454 1347 1618 1700 1764 2444 2455 2869 3274 3322 3171 3173 2787 2416 2231 2036
1907 1896 1861 1810 1677 1714 1809 1822 1956 1915 1860 2336 2692 2249 2587 2194 1521 1409 1449 1044 747 874 890 772 481 1332 1372 1197 1273 1410 1392 2293 1495 1438 1643 1889 2298 2135 2319 2316 2026 1637
1444 1436 1235 1396 1668 1600 1426 1391 1627 1678 1703 1755 1799 2178 1849 2031 1744 1500 1620 1620 1081 1054 1288 986 1245 1159 1150 1077 1041 980 841 995 1161 1131 1164 1252 1398 1782 2136 2197 2260 2095
1500 1283 1354 1523 1700 1501 1368 1302 1371 1629 1676 1718 1699 1747 1818 2144 2016 1708 2064 2351 1939 1964 2536 1341 1043 1131 1233 1118 1007 913 887 936 1597 1900 1600 1303 1226 1140 1648 2101 2555 2390
982 976 920 883 981 1011 1021 1458 2293 1960 1606 1580 2283 2434 2302 1909 1896 1224 2019 1532 2391 2062 1956 1844 1012 1402 1513 1562 1378 1196 1058 959 1460 2148 1844 1667 1399 1169 1324 1592 2172 2558
864 779 786 807 808 805 748 1015 1303 1189 2102 2229 2221 1626 954 1139 1883 1780 1590 1394 1041 957 1166 1422 1476 1364 1379 1348 1311 1207 1114 1072 1797 1944 2244 2075 1918 2254 2589 3101 3137 2838
665 710 709 616 666 675 687 636 561 807 1003 1092 1488 1716 1176 1079 1144 1239 1416 1252 1231 874 1078 1041 842 801 976 1200 1258 1115 990 1346 2125 2116 1703 1542 1062 1384 2602 1839 2341 2318
561 575 503 451 483 480 493 474 428 440 606 909 995 1046 1165 1030 1114 1226 1023 631 766 697 795 888 962 941 1003 1175 1154 990 936 862 1959 1835 1712 1588 1563 1515 1545 1522 1881 2213
202 277 376 398 432 413 388 390 380 349 230 548 854 788 796 831 1004 854 768 655 620 740 742 715 839 909 940 993 968 865 858 966 2031 2076 1564 1490 1426 1576 1505 1364 1656 1552
331 350 360 406 344 257 230 250 234 215 200 207 307 506 630 623 560 723 413 539 570 658 720 810 837 796 838 757 636 590 623 619 1728 2502 1357 1535 1272 1533 1240 978 1034 1280

ECMWFNIL_con_mucape_102.txt.gz
CAPE
3160 2602 2535 2553 3012 2910 2661 2598 2640 2646 3300 2612 2833 3395 3794 3246 2935 2825 2927 3493 3748 3711 3918 4292 4452 4091 3094 3716 4308 3552 4462 3826 3982 4840 4828 3521 3475 3045 2052 2205 2335 2514
3465 3085 3300 2789 3340 3836 3623 2759 2507 2629 3646 3337 4141 3951 3179 3376 2926 3021 3109 3793 3702 3713 4056 3832 3802 4051 3801 3752 4067 3998 5072 5024 4732 2589 3449 3457 3695 3123 2990 2575 2226 2226
2999 2706 2756 2482 2406 2343 2322 2018 2662 2488 2431 2976 3086 3372 2663 3230 2197 3089 3536 3714 3418 2543 4211 4121 3926 3602 3532 4266 5079 4198 4037 4646 3746 2877 4254 4165 3606 4066 4035 2046 2356 1889
2558 2576 2205 1960 2022 2230 2016 2513 2460 2684 2104 2241 2208 2116 1799 1743 2457 2156 3677 3385 3263 3610 3332 3289 3309 3097 3230 3544 3887 3651 4325 5096 4011 4477 4690 4324 4106 3374 2950 3130 2556 1785
1458 1909 1567 1765 1827 2083 1961 2028 1741 1592 1707 2244 1523 2495 2907 2139 2654 2740 2982 3089 3499 3613 4006 3945 3369 3229 4235 4168 3796 4035 4117 4470 3470 3706 3824 3689 4011 3890 3007 2847 2898 2181
2385 2476 2627 1803 2156 2154 1581 1574 1876 1395 1329 1837 1806 2041 961 2648 2337 2470 2635 2453 2018 2065 2514 2799 3504 2710 3504 3828 3800 3804 3447 2555 3375 3710 4079 3784 3385 3137 2294 3254 3330 2849
1636 1938 1515 1401 956 1412 1557 1752 1562 1750 1128 601 1663 1628 1722 1817 2280 1885 2424 2335 2082 2475 2216 2871 3260 3388 3334 4021 3916 4234 4300 4263 3814 4383 4196 4150 4396 3554 2722 2894 3918 3017
1686 1245 1549 1508 1112 1062 1419 1174 834 1228 1448 1467 820 1331 1459 1240 1979 1121 1504 2166 1294 2250 2282 2904 3167 3899 3127 3090 3953 4079 3565 2262 2810 4259 4375 3828 3628 4720 3930 3093 3024 4097
1668 1762 1520 1112 770 582 645 675 788 861 1254 1148 871 793 1324 1388 1698 1361 2140 2348 2217 2849 3035 2734 3243 3341 3107 3267 3438 3771 3780 2942 2470 2944 3417 2879 2989 3445 3012 3196 3183 3351
1613 1789 1107 1024 714 542 360 302 309 464 774 809 782 681 790 1639 1369 1563 2348 2901 2590 2519 2824 2840 3760 3735 3517 2778 3504 3684 3974 4297 3540 3667 3229 3212 3102 2863 2801 3128 2873 3256
1150 1284 886 1480 1614 1252 365 254 165 126 289 416 523 535 464 552 1618 1534 2130 3275 1960 2490 2726 3447 3121 3321 3424 2452 2941 2788 3368 2969 3196 3382 3276 3695 3276 3412 3094 3490 3528 3428
591 519 839 1113 1407 1230 1000 196 130 146 126 116 160 356 681 274 958 1114 1250 2923 3137 2863 2642 3045 3138 3097 3375 3214 2312 2750 2917 3006 2799 3199 2935 3044 2942 2664 2999 3136 2538 2717
796 716 538 808 1457 1687 1562 925 337 115 48 73 158 252 280 235 112 1025 1662 2078 3420 2920 2414 2592 3033 2689 3161 3360 2928 2666 2670 2933 2418 2541 3154 2756 2626 2517 2089 2191 2391 2391
2070 1545 1920 2180 2333 2275 2199 2048 1600 1145 790 485 131 168 146 128 135 210 915 1224 2028 2658 2760 2934 3140 3159 3565 3514 3132 2827 1916 2775 2624 2720 2768 2284 2448 2883 1720 1258 1426 1697
3108 3058 2769 2914 2953 2924 2788 2687 2544 1675 1586 1492 1109 673 64 152 204 177 204 734 1277 2466 2744 2216 1607 2470 3025 2938 2686 3429 2614 2059 2123 2369 2005 2392 2461 2061 1991 2279 2162 1514
3444 3052 2586 2798 3130 3202 3329 3145 2814 2934 2469 2800 3075 3119 1994 1393 1698 1429 495 224 623 1110 1661 1673 1325 1214 1445 2595 2220 2641 2764 2187 1802 2704 2302 2589 3173 3075 2402 1659 1640 1660
3276 2957 3108 3263 3366 3383 3609 3964 3711 3591 3383 3258 3237 3107 3548 3462 3261 2188 1246 612 154 213 516 548 447 1395 1180 1290 1477 2152 2436 2780 2815 3484 3563 3379 2746 2728 3289 3275 2522 2014
2700 2590 2667 2563 2573 2665 2707 2822 3002 3049 2941 2763 2632 2699 3010 2377 2262 2408 2316 1841 644 540 728 764 219 941 1024 1058 1080 1378 1651 2931 2004 2335 2329 2781 2584 1918 1905 2008 1839 1302
1775 1991 1863 1918 2091 2041 2141 2206 2433 2487 2626 2385 1843 1622 2279 2439 2041 2114 2441 1464 1028 906 1212 1074 1071 753 1127 912 938 1151 1362 1675 1924 1963 1331 1274 1381 1644 1454 967 778 1002
1447 1573 1330 1395 1375 1613 2092 2185 2043 1957 2051 1930 1644 1740 1924 2368 2254 2604 2917 1835 1472 1122 1418 943 1132 1088 1110 1103 1046 1092 1148 1291 1983 2314 1821 1624 2176 1712 1032 1426 934 1043
1055 1129 1115 1045 1159 1413 1456 1620 1619 1601 1435 1666 2084 1928 1884 2134 2519 2984 2151 1766 1460 1686 1466 550 699 1136 1092 1291 1259 1114 1050 1066 2311 2139 2189 2508 1880 1709 1217 1110 1658 1714
900 964 985 934 975 1015 966 920 908 935 979 1138 1276 1285 1422 2211 2350 1921 1704 1461 1237 1131 1161 976 881 1109 1342 1389 1464 1513 1513 1761 2260 2614 2603 1747 1613 1378 1463 1515 1356 1358
738 711 776 772 754 750 778 748 683 754 885 916 977 1056 1477 1523 1712 1578 1503 1506 1271 1022 1029 1028 920 1005 1187 1317 1297 1373 1411 1827 2362 2655 2406 2053 1918 1533 1453 1712 1838 1936
612 632 684 727 680 690 682 701 653 615 794 903 899 974 1112 1148 1149 1142 1052 1028 1049 1099 805 1045 912 861 882 932 990 908 1066 1151 2154 2256 1896 2128 1900 1407 1400 1511 1455 1399
500 500 536 604 582 555 576 565 605 622 633 655 616 587 800 927 1012 1061 827 746 848 930 949 1077 837 694 642 735 852 945 1021 1039 2118 1915 1343 1833 1769 1607 1389 1504 1320 1279
468 461 495 504 515 506 521 332 339 373 312 305 319 462 517 570 680 816 770 555 498 460 507 693 722 693 748 832 844 886 884 952 1565 1057 1159 1107 1117 1275 1258 1453 1172 955

ECMWFNIL_con_mucape_105.txt.gz
CAPE
2756 2935 2616 2979 3092 2969 2929 3297 2631 3390 3297 3418 2424 2694 2474 2839 3867 3146 3385 3588 4049 3859 4098 3868 3628 3833 3942 4268 4610 3814 4334 4261 3767 4039 3926 4402 3674 3450 3107 2355 2069 2305
2304 2526 2679 2430 3041 3636 3147 2712 2603 3041 3074 2982 3404 3289 2806 2871 2708 3327 3040 3529 4133 3626 3936 3839 4223 3615 3541 3435 3766 3263 4151 4330 3251 3955 3935 4029 2833 2930 2496 2570 2564 2803
2576 2620 2844 2442 2329 2751 3312 2664 2543 2578 2794 2553 2717 2616 3182 3420 3085 3034 2648 3483 3582 3710 3645 3827 3638 3435 3448 4276 3340 4068 4231 3688 3346 3209 3841 3910 3821 3142 3594 3205 2628 2014
3005 2548 2942 2694 2388 2545 2363 2198 2470 2354 2756 2403 1707 2720 2525 2667 2852 3143 2644 4717 3448 3636 3594 3867 3597 3391 3518 3865 3928 4102 3936 3991 3476 3997 3072 3765 4082 3553 3319 3188 3003 1664
2942 2575 2660 2519 2152 2328 2203 2255 2286 1571 2360 2434 1858 1880 2382 2875 2634 2808 3008 3463 3135 3566 3366 3614 3518 3097 3139 3929 3857 3465 3476 4054 4157 3887 3451 3583 3027 3245 3115 3088 3238 2287
2698 2509 2032 2013 1970 2042 2047 2020 2059 1959 1557 2264 1791 1868 2232 2294 1980 2590 2537 3118 2881 3094 3229 3364 3566 3126 3540 3609 4015 3054 3188 4056 3718 3460 3352 3264 3450 3242 3119 2974 2557 2802
2197 2249 1987 1920 1795 1899 1654 1723 1725 1987 1558 1725 1899 2049 1927 1665 1885 2138 2152 2632 2481 2705 3078 3052 3358 2996 3410 3428 3338 3265 3410 3511 3395 3146 3352 3587 3864 3386 3146 2971 2649 3262
1680 1955 1819 1825 1741 1695 1538 1381 1470 1370 1481 1250 1674 1948 1602 1846 2357 1724 1995 2469 2387 2394 2352 2516 2802 2946 3160 3568 3375 3333 3706 3865 3544 3022 3532 3523 3470 3554 3487 3525 3472 2919
1778 1852 1617 1564 1470 1604 1352 1396 1396 1352 1335 1401 1503 1462 1534 1858 2134 1964 1654 1931 2055 2105 2180 2298 2742 3006 3344 3062 3073 3403 3426 3401 2814 3310 3461 3498 3379 3130 3313 3340 3020 3112
1546 1694 1547 1418 1368 1145 1070 1109 1210 1070 1160 844 928 869 1390 1505 1596 1613 1146 1884 1668 2237 2424 2328 2194 2315 3395 2964 2570 3248 3516 3395 3491 2871 2579 3072 3013 2640 2630 2374 2438 2484
1590 1422 1536 1283 1212 1109 892 818 684 664 1058 877 878 872 735 1098 1457 1413 1733 2594 1965 2608 2544 2643 2898 2984 3419 3242 3089 3225 3252 3318 3401 3218 2939 2787 2914 2833 3860 3206 2826 2556
1456 1460 1279 1240 1138 1011 1228 490 409 322 593 833 825 765 686 655 1202 1161 1026 2679 2129 2099 2310 2939 3219 3325 3378 3040 2745 2704 2932 3258 3045 3121 3120 3054 2998 2947 2802 2760 2911 2838
1034 1021 941 1275 1195 1101 1185 532 393 495 566 220 444 564 532 484 1135 970 865 2098 2222 2670 2696 2801 3000 2772 2656 3020 2908 2614 2636 2511 2735 2592 2416 2876 2811 2618 2597 2330 2162 2014
838 776 771 681 1004 1371 1190 797 1309 1560 1665 1509 1352 1421 253 224 227 790 830 1645 2711 2508 2482 2508 2743 3021 2718 2993 3174 2717 2582 2812 2621 2511 2693 2538 2302 2161 2332 1998 1500 1297
2017 1906 1878 1509 2439 1648 1651 1428 1378 1615 1400 2179 2848 2696 2326 2151 1775 628 714 1202 2460 2579 2589 2491 2326 2114 1707 1824 2144 2912 2728 2410 2629 2298 2342 2406 2357 2557 2009 1299 1330 1120
2192 1890 1775 1842 2500 2851 2170 2062 2073 2126 3048 3150 2946 2968 3066 2963 2353 1910 1498 845 705 1595 2116 2268 2169 2055 1579 1668 2308 2576 2690 2608 2336 1956 2127 2154 2436 2803 2164 1224 1286 1348
1551 1338 1374 1766 1955 2944 3435 3603 3397 3223 3053 2890 2775 3060 2814 2456 1989 2132 1407 1117 850 632 890 1219 1454 1650 1160 891 878 1365 2854 2673 2559 2673 2136 2598 1960 2038 2119 1544 1560 1626
1945 1531 1147 1345 1465 2099 2527 2891 3277 3196 2980 2682 2315 2284 2246 1896 1622 1802 1711 1441 1022 756 542 357 513 660 484 597 824 1072 1615 3111 2576 3058 2849 2231 2554 1933 1416 1093 901 823
1928 1890 1886 1872 1625 1584 2003 2320 2645 2813 2718 2416 1956 1638 2298 1843 1884 1981 1984 1737 1315 1056 816 554 418 543 607 675 805 1076 1338 2120 2238 2146 1390 1458 1319 1234 1172 1083 988 916
1416 1554 1676 1770 1760 1767 1775 1988 1939 1796 1952 1974 1942 1814 1644 1909 1828 2456 2030 1819 1716 1473 1163 884 797 861 878 858 857 863 979 1434 2038 1925 1862 1547 1398 1210 1180 1207 1130 1410
1223 1262 1317 1241 1177 1024 1054 1498 1537 1656 1555 1398 1293 1322 1407 1729 1707 2008 1793 1625 1552 1532 1345 1164 918 901 978 1010 1008 1020 995 1675 2164 2399 1882 1586 1364 1272 1180 1152 1212 1671
916 952 996 1024 1048 996 875 1010 1108 1146 1218 1187 1093 1094 1102 1203 1931 2175 1585 879 872 1030 988 1228 1206 1063 827 791 964 1106 1232 2092 2597 2087 1627 1357 1230 1325 1439 1549 1474 1383
820 816 838 924 1007 1027 1025 1024 887 890 908 888 815 804 880 1121 1296 1681 1609 1418 852 537 424 584 870 1051 1002 772 851 972 1172 1948 2368 2132 1682 1535 1351 1283 1378 1294 1540 1789
702 704 698 807 880 903 886 828 841 863 836 724 689 646 755 790 796 944 1148 1236 998 750 555 609 743 841 944 834 997 1178 1237 1420 2166 1922 1893 1612 1454 1369 1258 1158 1109 1246
574 625 644 661 661 674 657 662 705 743 729 704 686 607 598 664 701 681 772 837 747 878 855 770 788 845 865 802 818 914 940 1016 1898 1482 1531 1568 1429 1317 1162 1143 1152 1156
357 424 494 517 540 563 566 598 610 606 596 527 516 508 538 542 534 466 332 316 229 523 812 751 794 864 791 770 776 681 705 858 898 1025 1010 969 1046 1249 1311 1148 1050 962

ECMWFNIL_con_mucape_108.txt.gz
CAPE
2428 2396 2114 2209 2429 2997 2947 2837 2920 2823 2593 2568 2216 2384 2289 2258 3280 2778 2685 3139 3332 3353 4029 4040 3843 3614 3780 4106 3351 3622 3898 3334 3679 3408 3051 3333 3114 2921 2564 2297 2170 1822
2639 2517 2860 2488 2524 3272 2958 2830 2799 2851 2740 2802 2094 1724 1926 2145 2713 2967 2831 3085 3470 3153 3624 3921 3317 3184 3111 3314 3559 2996 2775 4019 2917 4101 3397 3122 3131 3047 2790 2662 2737 2501
2573 2493 2506 2504 2584 2858 2829 2816 2550 2698 2737 2785 2235 2159 2225 2548 2170 2850 2772 2854 3210 3158 3293 3501 3184 3300 3054 3262 3065 3036 3132 3266 3046 2820 3226 3231 3753 2946 2712 2727 2800 2560
2380 2424 2171 2087 2371 2550 2785 2660 2272 2452 2777 2776 2760 2463 2516 2756 2135 2480 2630 4149 3116 3287 3166 3269 3208 3045 2920 3325 3160 3040 3314 3292 3023 2876 3146 2715 2994 3513 3136 2880 3090 2659
2140 2292 2154 2059 1932 2259 2436 2561 2333 2180 2577 2432 2466 2338 2436 2533 2448 2496 2346 2912 3064 2990 3089 3285 3221 3127 2964 2949 3159 3117 3266 3387 3486 3566 3376 3090 2695 2849 2672 2847 2707 2548
2233 2129 2210 2325 2062 1939 1982 2142 2301 2088 2217 2217 1875 1822 2044 2127 2302 2505 2447 2466 3032 2921 3037 3201 3124 2997 2884 2688 3161 3030 2882 3257 3379 3394 3215 3076 2752 2748 3044 3089 2836 2556
2372 2239 2151 2317 2250 1981 1934 1970 1946 1925 2041 2129 1706 1503 1610 2079 2089 2328 2411 2343 2682 2725 2753 2925 2951 3016 2891 2836 3105 3127 2954 2977 3327 3202 3090 3035 3093 3073 2951 2880 2912 2677
2225 2431 2184 2188 2202 2014 1959 2055 1949 1885 1732 1858 1801 1608 1434 1735 1884 2118 2218 2311 2399 2453 2408 2564 2678 2800 2820 2816 2688 2649 2749 2989 2968 2716 2622 2442 2668 2800 2909 3024 3147 3077
2119 2373 2419 2284 2047 1901 1855 1933 1927 1822 1695 1610 1748 1674 1468 1440 1498 1381 1748 1926 2138 2222 2142 2308 2575 2694 2808 2898 2883 2730 2642 2803 3082 3006 2760 2485 2663 2797 2769 2852 3073 2947
1908 2040 2199 2163 1850 1734 1810 1792 1662 1533 1630 1607 1475 1558 1518 1441 1363 1374 1352 1566 1725 1954 2103 2146 2289 2475 2655 2688 2664 2684 2756 2634 2727 2794 2754 2716 2788 2794 2646 2505 2381 2072
2022 1862 1913 1880 1731 1684 1705 1651 1472 1264 1154 1175 1146 1058 1380 1506 1489 1471 1406 1404 1532 1736 1976 2063 2050 2186 2262 2522 2472 2525 2601 2666 2723 2829 2821 2715 2629 2499 3277 2643 2419 2313
1968 1930 1844 1772 1708 1632 1504 1474 1312 1092 1114 1012 1011 883 924 1252 1323 1372 1468 1508 1464 1514 1689 1804 1845 1802 1948 2464 2629 2590 2536 2541 2726 2863 2858 2818 2680 2524 2319 2069 1836 1791
1802 1852 1822 1716 1572 1521 1320 1175 1186 1141 1044 909 860 882 1017 1049 1080 1214 1309 1392 1523 1513 1762 1728 1891 1930 2027 2414 2676 2720 2685 2601 2692 2715 2760 2666 1927 1980 1865 1645 1641 1629
1646 1642 1634 1649 1601 1507 1392 1216 1058 966 1092 1516 1878 1293 865 850 818 1062 1186 1206 1460 1511 1665 1893 2106 2367 2343 2490 2617 2643 2531 2456 2355 2396 2458 2068 1491 1512 1522 1373 1440 1451
1314 1316 1378 1439 1446 1391 1337 1241 1027 1015 1624 2204 2014 1954 2119 1892 1194 627 858 976 1212 1585 1732 1916 2284 2488 2508 2500 2584 2558 2551 2512 2310 2218 2138 1951 1673 1663 1538 1189 1128 956
1058 1190 1172 1401 1660 1754 1826 1399 979 1663 2010 2197 2284 2403 2367 2037 1461 833 518 733 1000 1822 1951 1993 2134 2256 2234 2229 2171 2000 2009 2203 2409 2400 2272 2072 1835 1558 1178 1240 1317 1227
1183 1249 1311 1695 1849 1930 2111 2568 2400 2259 2381 2482 2510 2308 2027 2106 1312 992 648 583 820 1694 1946 1998 2053 2083 2076 2025 1911 1740 1834 1959 2278 2391 2272 2118 1856 1299 1533 1442 1390 1392
1329 1321 1370 1287 2065 2413 2400 2344 2757 2647 2368 2313 2331 2180 1946 1736 1592 1297 966 687 692 1339 1778 1990 2125 2074 2006 1955 1907 1684 1470 2219 2168 2256 2284 2078 1840 1618 1414 1146 931 832
1278 1456 1451 1346 1276 1809 2385 2538 2614 2725 2677 2415 2271 2142 2089 1791 1638 1545 1299 1066 828 616 872 1178 1234 1078 1081 1155 1280 1186 814 2420 2106 2242 2301 2178 1832 1657 1268 1025 863 888
1945 1866 1820 1624 1348 1396 1655 1911 2233 2522 2662 2529 2249 2020 1867 1669 1713 1660 1596 1545 1306 972 732 609 599 608 588 540 531 589 831 1680 1815 2048 2138 1988 1766 1408 1220 961 876 722
1824 1800 1826 1882 1813 1664 1622 1706 1798 1956 2178 2332 2280 2181 2047 1773 1574 2037 1742 1575 1444 1418 1314 1133 912 719 639 579 683 735 866 1611 1735 1679 1758 1724 1600 1447 1181 962 939 941
1411 1477 1581 1730 1836 1851 1764 1662 1544 1530 1595 1639 1847 1930 1841 1599 1242 1694 1690 1441 1279 1369 1370 1314 1185 1014 928 863 805 888 1159 1880 1868 1476 1460 1545 1534 1441 1219 1060 1136 1165
992 1167 1302 1428 1510 1554 1538 1464 1276 1035 970 1027 1014 1008 1062 953 824 1230 1458 1407 1298 1159 988 696 599 662 505 646 791 912 1448 2202 1947 1639 1469 1346 1304 1535 1564 1532 1370 1251
888 878 926 992 1051 1098 1117 1102 1054 1015 993 954 865 821 806 776 750 776 872 1118 1189 1165 1046 772 438 108 7 162 354 605 1118 2061 2048 1859 1660 1483 1322 1241 1212 1296 1735 2019
815 835 855 871 860 867 890 945 1014 1026 996 912 832 727 731 701 718 661 668 719 850 831 771 739 732 660 446 168 139 439 754 1270 1658 1652 1465 1436 1302 1167 1082 1094 1090 1116
624 673 702 710 711 739 733 746 780 758 775 745 658 610 581 549 584 632 673 662 565 689 648 626 675 727 736 586 308 413 646 861 1437 1484 1434 1366 1362 1260 1211 1069 1014 948

ECMWFNIL_con_mucape_111.txt.gz
CAPE
1794 2058 1859 1778 1677 1745 1764 1651 1821 1988 2156 2222 2214 2295 2394 2564 2788 2756 2649 2622 2704 2774 2567 3038 3779 3499 3738 3594 3497 3105 3843 3144 3433 3335 3178 3100 2879 2851 2797 2644 2625 2543
1771 2111 2254 1902 1876 2670 2271 1889 1997 2001 2077 2158 2062 2107 2217 2270 2463 2570 2474 2411 2732 2924 2722 3298 3463 3236 3025 3102 3322 3092 2831 3239 2711 4247 3170 2726 2791 2919 2817 2635 2760 2623
1732 2198 2139 2053 1922 2395 2650 2365 2212 2243 2102 2142 2086 1926 2018 2151 2212 2458 2506 2426 2539 2741 2684 2999 3441 3234 2830 2760 2810 3012 2914 2619 2533 2510 2799 2773 3261 3251 2883 2874 2759 2652
1809 2166 2165 2185 2016 2250 2703 2637 2468 2492 2450 2330 2300 2030 1804 1919 1914 1998 2373 3530 2615 2626 2645 2821 3074 2987 2752 2727 2902 2856 2800 2762 2627 2722 2755 2756 2582 2878 2777 2757 2951 2603
1878 2122 2130 2142 2090 2172 2550 2663 2591 2490 2499 2463 2401 2310 2126 2125 2224 1916 2137 2538 2802 2553 2671 2822 2935 2886 2677 2644 2743 2767 2772 2798 2942 3160 3150 3072 3028 2894 2615 2674 2658 2684
1968 2056 2101 2034 1994 2071 2328 2546 2545 2445 2350 2331 2387 2383 2352 2137 2267 2163 1935 2096 2574 2658 2714 2828 2922 2923 2798 2745 2692 2688 2602 2724 2808 2995 3034 2996 2882 2785 2688 2892 2729 2503
2128 2010 2078 2056 1907 1858 2041 2258 2369 2322 2229 2117 2251 2331 2381 2308 2179 2206 1998 1883 2053 2501 2579 2695 2806 2872 2818 2721 2653 2573 2580 2582 2674 2727 2869 2880 2817 2804 2726 2680 2743 2700
2287 1969 1992 2044 2056 1864 1765 1882 1981 2028 2140 2139 2048 2071 1974 1991 1970 2027 2012 2061 2026 2191 2434 2516 2600 2708 2752 2665 2591 2575 2615 2716 2692 2590 2654 2562 2455 2409 2331 2325 2658 2752
2244 2013 1970 1982 2048 2007 1921 1830 1742 1755 1837 1914 1937 1939 1866 1689 1509 1596 1768 1994 2079 2076 2167 2300 2320 2342 2465 2600 2633 2562 2446 2396 2549 2635 2569 2441 2393 2453 2415 2359 2452 2541
2139 2015 2018 1955 1912 1929 1962 1951 1818 1778 1875 1923 1855 1797 1736 1604 1431 1376 1466 1771 1974 2002 2016 2054 2111 2085 2214 2428 2551 2541 2545 2554 2374 2431 2577 2616 2595 2601 2516 2516 2483 2331
2126 2045 1987 1958 1857 1814 1846 1878 1810 1761 1850 1965 1925 1749 1672 1605 1581 1431 1267 1428 1610 1691 1746 1833 1896 1923 1996 2221 2412 2552 2624 2599 2392 2378 2426 2456 2516 2572 3228 2601 2423 2286
1928 1942 1923 1963 1977 1948 1954 1888 1739 1688 1752 1865 1829 1757 1737 1672 1522 1438 1351 1303 1289 1121 1298 1434 1582 1705 1858 1987 2159 2314 2382 2257 2251 2351 2380 2470 2561 2627 2517 2544 2449 2196
1748 1772 1798 1814 1851 1894 1886 1820 1659 1590 1683 1744 1622 1375 1284 1391 1380 1252 1325 1351 1363 1307 1166 1212 1360 1531 1699 1836 1928 2034 2040 2020 2135 2297 2379 2475 2485 2460 2355 2053 1851 1826
1726 1739 1761 1770 1726 1697 1700 1659 1576 1530 1589 1595 1411 1184 1066 1049 1027 900 1002 1216 1341 1336 1248 1254 1284 1382 1523 1648 1712 1790 1928 2046 2180 2368 2448 2442 2399 2330 1999 1746 1631 1515
1885 1836 1885 1978 2031 1876 1700 1624 1599 1552 1375 1242 1272 1058 829 831 834 845 885 911 1155 1227 1244 1313 1400 1445 1517 1591 1638 1792 1974 2053 2234 2408 2412 2293 2220 2152 1980 1697 1600 1520
1847 1864 1877 1921 1936 1889 1796 1702 1596 1534 1402 1593 1519 1671 1837 1476 1077 724 797 829 827 899 1044 1254 1474 1697 2273 2630 2252 2047 2064 2264 2402 2457 2394 2306 2237 2140 2011 1832 1612 1304
1796 1782 1803 1813 1772 1765 1706 1615 1563 1483 1388 1548 1636 1873 1663 1702 1132 889 720 595 581 562 920 1295 1508 1726 2213 2264 2192 2320 2469 2302 2309 2262 2204 2236 2245 2219 2135 2004 1755 1373
1509 1439 1494 1562 1544 1466 1465 1601 2016 1819 1651 1698 1793 1700 1545 1383 1135 979 867 737 600 578 990 1196 1400 1532 1735 1904 1972 2066 2143 2130 2058 1903 1770 1917 2087 2204 2240 2165 1899 1414
1086 1120 1206 1248 1562 1725 1750 1755 1929 2300 2026 1988 2045 1872 1699 1615 1497 1383 1213 1044 876 797 1043 1159 1306 1455 1642 1816 1900 1916 1925 1950 1964 1905 1685 1652 1799 1980 2138 2111 1888 1439
1113 1086 1216 1263 1203 1375 1767 2029 2074 2264 2353 2234 2025 1878 1779 1689 1554 1446 1398 1367 1276 1128 929 916 1247 1494 1612 1711 1821 1922 1905 1633 1381 1341 1659 1628 1624 1712 1840 1924 1933 1574
1337 1327 1339 1386 1374 1332 1252 1498 1830 2077 2180 2220 2196 2102 1937 1744 1578 1663 1380 1266 1259 1249 1133 1015 861 702 1026 1305 1374 1169 846 662 978 1434 1613 1751 1756 1772 1827 1950 1990 1614
1767 1804 1813 1718 1604 1521 1441 1336 1442 1601 1795 1967 2060 2088 2096 2041 1882 1697 1459 1473 1358 1332 1151 1114 978 985 949 851 715 539 440 403 757 1324 1414 1536 1774 1973 2026 2058 1882 1531
1612 1547 1584 1688 1710 1673 1645 1592 1503 1526 1565 1516 1518 1545 1510 1487 1496 1443 1133 1040 1174 1140 1118 1005 1046 1024 1017 938 819 671 552 552 955 1504 1347 1227 1417 1689 1840 1786 1628 1464
1085 1004 989 1102 1259 1213 1210 1282 1315 1268 1306 1286 1098 911 866 675 690 770 756 716 694 882 1104 1082 1081 1024 957 842 720 707 743 697 785 1613 1635 1285 1200 1330 1429 1481 1482 1910
779 771 731 699 683 725 687 766 834 825 761 689 775 892 870 834 771 730 634 689 725 702 699 773 800 784 739 669 605 517 447 328 164 705 1586 1463 1349 1270 1222 1386 1253 1890
802 752 706 643 656 662 695 636 611 558 548 511 582 462 425 606 622 592 638 696 616 627 681 615 556 477 423 426 435 400 385 440 393 218 647 963 1334 1184 1122 1164 1190 1586

ECMWFNIL_con_mucape_114.txt.gz
CAPE
1108 1353 1493 1576 1495 1433 1385 1484 1592 1713 1794 1950 2052 2106 2298 2496 2753 2796 2790 2805 2775 2816 2677 2548 3321 3428 3724 3492 3516 2838 3150 2810 3419 3186 2978 3226 2969 2861 2913 2770 2599 2509
1202 1667 2115 1728 1690 2152 1625 1469 1547 1711 1806 1913 1974 2046 2081 2222 2438 2677 2866 2874 2852 3025 2695 2613 3128 3402 3208 3265 3325 3035 2747 3161 2823 4071 3409 2852 2861 2878 3061 2815 2707 2564
1321 1765 1969 1834 1652 1884 2076 1788 1667 1720 1804 1888 1926 1949 2004 2214 2163 2230 2458 2541 2500 2624 2736 2726 3074 3245 3017 2834 2803 3192 3235 2783 2624 2496 2944 2824 3042 3405 3100 2799 2708 2789
1560 1682 1901 1919 1722 1720 2208 2225 2018 2002 2048 2059 2094 2029 1967 1978 2111 2038 2222 3338 2635 2499 2594 2649 2907 3026 3026 2857 2710 2730 2714 2680 2596 2517 2788 2921 2954 2946 2986 2668 3381 3033
1668 1638 1844 1935 1865 1848 2211 2382 2282 2067 2223 2265 2200 2187 2253 2034 2105 1966 1988 2176 2723 2613 2519 2772 2761 2829 2830 2694 2647 2735 2622 2808 2772 2812 3051 3038 2896 2974 2965 2984 2805 2806
1722 1671 1852 1881 1926 1888 2121 2341 2379 2333 2242 2301 2341 2424 2306 2158 2015 2133 2002 1984 2326 2600 2645 2653 2768 2841 2834 2807 2580 2681 2678 2835 2914 2859 2956 3011 2946 2608 2636 2951 2911 2810
1838 1770 1756 1825 1826 1884 1949 2127 2261 2462 2422 2391 2360 2350 2318 2296 2247 2181 2104 2011 2016 2602 2689 2744 2758 2865 2830 2866 2689 2676 2551 2524 2546 2601 2838 2852 2900 2924 2684 2902 3014 2885
1905 1856 1772 1762 1806 1767 1798 1853 1983 2180 2303 2283 2220 2175 2096 2103 2161 2222 2219 2142 2049 2007 2409 2553 2625 2665 2691 2744 2749 2596 2586 2520 2582 2530 2668 2709 2390 2469 2484 2364 2745 2812
1979 1940 1858 1762 1842 1782 1751 1734 1770 1889 2018 2091 2104 2041 1997 1992 1978 1970 1994 2041 2057 2075 2098 2291 2426 2477 2549 2654 2721 2656 2616 2576 2713 2767 2649 2613 2462 2449 2379 2310 2448 2716
1994 1993 1997 1975 1865 1834 1845 1805 1747 1674 1685 1758 1822 1817 1836 1872 1856 1807 1746 1716 1903 2090 2048 2130 2243 2275 2331 2449 2618 2654 2617 2586 2518 2504 2603 2618 2602 2612 2551 2538 2633 2561
1952 1993 2052 2079 2038 1903 1800 1847 1867 1802 1699 1661 1648 1652 1699 1784 1792 1751 1676 1542 1567 1795 1941 1993 2025 2056 2099 2197 2415 2533 2595 2544 2605 2527 2479 2542 2618 2616 2970 3007 2727 2634
1940 1975 2014 2066 2042 1908 1765 1771 1781 1765 1758 1735 1701 1687 1769 1867 1898 1825 1646 1601 1489 1512 1652 1784 1831 1832 1889 2021 2131 2354 2460 2518 2602 2644 2512 2473 2461 2430 2456 2789 2646 2441
1878 1912 1930 1964 1978 1933 1855 1768 1663 1597 1596 1626 1627 1636 1683 1784 1830 1839 1756 1709 1624 1466 1356 1386 1443 1474 1642 1764 1884 2066 2268 2392 2361 2396 2452 2500 2637 2536 2403 2393 2420 2358
1731 1816 1865 1894 1916 1914 1858 1755 1672 1642 1661 1668 1584 1524 1561 1654 1732 1689 1532 1374 1340 1325 1312 1316 1310 1320 1440 1570 1731 1857 2040 2183 2210 2231 2275 2452 2532 2325 2358 2368 2321 2206
1559 1643 1728 1771 1766 1734 1706 1687 1688 1694 1687 1664 1538 1431 1477 1567 1600 1490 1238 1063 1027 1260 1323 1347 1313 1362 1429 1538 1611 1733 1835 1993 2122 2182 2301 2423 2299 2236 2323 2292 2222 2122
1553 1600 1612 1612 1603 1595 1607 1626 1647 1630 1584 1549 1504 1462 1518 1398 1237 1112 918 874 823 905 1066 1152 1280 1447 1716 1941 1831 1919 1773 1906 2068 2225 2304 2343 2364 2162 2297 2245 2173 2083
1678 1719 1714 1624 1594 1609 1654 1720 1860 1938 1878 1686 1600 1583 1528 1530 1381 1017 802 700 694 733 727 822 1099 1245 1229 1479 1623 1707 2543 2036 2134 2372 2388 2326 2192 2246 2272 2174 2091 2078
1872 1860 1821 1784 1774 1742 1731 1772 1824 1868 1874 1812 1732 1665 1593 1577 1257 1151 1011 835 635 559 572 626 1089 888 1044 1198 1402 1608 1807 2240 2120 2060 2143 2152 2199 2197 2162 2082 1990 1983
1895 1858 1744 1676 1666 1674 1678 1664 1718 1736 1703 1678 1642 1570 1478 1272 1069 1139 1090 941 825 685 823 814 864 842 925 1040 1213 1420 1582 1705 1812 1897 1987 2045 2026 1942 1881 1798 1821 1874
1831 1787 1721 1671 1636 1537 1441 1419 1612 1815 1634 1653 1429 1085 1027 820 938 1147 1338 1285 1219 1222 1163 1064 901 896 1002 1119 1232 1354 1478 1608 1703 1751 1779 1797 1827 1817 1657 1785 1660 1559
1746 1719 1630 1527 1428 1268 1346 1527 1666 1794 1598 1618 1241 1014 838 904 1083 1186 1274 1331 1278 1183 1046 1008 912 897 832 794 934 1175 1394 1561 1650 1719 1770 1814 1698 1715 1796 1728 1700 1382
1465 1240 961 1028 1111 1164 1175 1243 1390 1528 1404 1360 1376 1262 1280 1263 1281 1256 1177 1062 1065 1032 852 981 1080 957 849 844 825 812 723 715 827 934 1100 1383 1479 1413 1456 1399 1545 1618
921 853 1111 1141 1150 1237 1237 1191 1159 1103 1244 1186 1129 1070 1238 1355 1372 1347 1324 1277 1238 1208 1109 817 808 897 897 1008 982 913 874 818 774 674 607 969 1307 1342 1325 1211 1138 1264
1411 1174 1172 1170 1140 1258 1243 1249 1140 1273 1447 1334 1213 1179 1191 1300 1150 1212 1216 1167 1096 963 729 590 591 617 704 837 884 916 916 856 788 676 647 636 694 1052 1110 1033 1081 1555
1060 1033 1027 990 867 896 902 842 803 975 949 823 784 736 736 694 646 597 585 644 658 614 564 578 584 598 596 629 625 626 668 656 597 567 560 558 574 587 707 613 817 1001
1311 1241 1064 877 861 847 753 653 580 508 404 355 348 424 436 462 457 447 457 466 494 579 644 643 632 598 579 566 526 489 466 441 427 451 468 457 432 394 379 462 273 419

ECMWFNIL_con_mucape_117.txt.gz
CAPE
2663 2620 2556 2632 2750 2671 2743 2728 2415 2427 3024 2658 2538 2634 2943 3152 3435 3554 3648 3854 4061 3791 3941 4128 4129 3972 3531 3980 4450 4125 4060 3891 3825 3616 3799 3733 3291 3068 2789 3045 3273 3314
2660 2706 2915 2696 3192 3251 3104 2754 2763 2729 3180 3507 3066 3073 3400 3560 3423 3546 3749 3797 3834 3714 4023 3795 3746 3707 3766 3482 4146 3999 4074 3988 3880 3408 3688 3601 3355 3086 3006 3194 3174 3530
2422 2590 2472 2482 2112 2372 2014 2451 2800 2878 2608 2592 2971 3648 3132 3326 3244 3846 3921 3759 3472 3351 3801 3957 3699 3850 3624 3696 4092 3823 3548 3970 3535 3360 3612 3622 3456 3157 2994 2644 2817 3123
2560 2363 2064 1967 1936 2055 2198 2676 2900 2892 2817 3030 2979 2780 2971 2772 3134 3433 3838 3921 3716 3706 3478 3457 3456 3317 3617 3757 4105 3726 3596 3785 3115 3525 3512 3598 3491 3245 2930 2986 2979 3138
2412 2440 2271 2189 2243 2404 2470 2407 2158 2494 2619 2676 2772 3176 3414 3515 3420 2896 3247 3431 3826 3513 3547 3705 3730 3504 3972 3987 4013 3645 3475 3242 3194 3801 3705 3616 3497 3356 2852 2965 3189 3028
2718 2758 2860 2672 2831 2864 2386 2367 2580 2530 2621 2454 2767 2632 2723 3231 3050 2856 2870 2843 2675 2736 2746 2795 3058 3094 3259 3677 3869 3531 3272 3194 3132 3619 3750 3739 3295 2874 2766 2961 3200 3134
2533 2712 2578 2636 2633 2658 2628 2604 2687 2851 2545 2445 2831 2824 2795 2922 3144 3177 3286 3117 2827 2846 2610 2860 3458 3348 3287 3616 3865 3933 3880 3851 3649 3739 3627 3439 3713 3327 3066 3186 3664 3588
2469 2620 2608 2732 2502 2565 2675 2532 2645 2899 2922 3025 2774 2936 3120 2933 3162 2973 3068 3196 3025 3067 3205 3046 3505 3996 3291 3233 3411 3567 3493 3318 3467 3851 3847 3465 3554 3538 3292 3232 3385 3799
2827 2860 2733 2684 2420 2344 2228 2078 2308 2559 2819 2786 2500 2453 2940 2873 2816 2789 3216 3488 3322 3338 3639 3303 3754 3366 3262 3474 3502 3569 3499 3173 3167 3460 3645 3528 3438 3476 3181 3038 3187 3439
3067 2959 2625 2495 2352 2340 2191 2003 1898 2146 2554 2509 2397 2398 2415 2869 2886 2822 3211 3732 3529 3639 3784 3547 3506 3311 3076 3155 3587 3486 3402 3557 3519 3536 3409 3378 3456 3444 3243 3399 3364 3568
3084 2976 2734 2876 2882 2632 2251 2034 1924 1996 2259 2354 2263 2172 2217 2340 2968 3151 3310 3468 3027 3201 3467 3590 3396 3309 3471 3003 3067 3074 3355 3112 3213 3495 3528 3556 3444 3524 3389 3526 3489 3430
2907 2878 2889 3085 3206 3139 2892 2211 2125 2135 2184 2320 2217 2144 2307 2266 2367 2696 2893 3364 3356 3144 3114 3334 3463 3502 3530 3432 2831 2810 3077 3078 3087 3424 3366 3515 3516 3332 3380 3422 3375 3465
2863 2851 2839 2924 3294 3295 3337 2910 2407 2189 2099 2094 2183 2133 2134 2110 2124 2516 2919 2963 3257 3149 2828 3054 3274 3067 3419 3536 3239 2983 3104 3221 2841 3155 3327 3300 3415 3200 2998 3142 3196 3312
3029 3001 3172 3285 3514 3597 3588 3303 2816 2308 2262 2172 2220 2117 1959 1914 1988 2037 2304 2516 2557 2740 2830 2869 3138 3038 3208 3277 3078 2936 2912 2980 3166 2888 2698 2820 3456 3606 3155 3054 3564 3272
3257 3310 3524 3591 3589 3615 3570 3589 3390 2907 2728 2651 2585 2324 1824 1787 1862 1859 1959 2087 2116 2353 2581 2540 2309 2548 2694 2952 3045 3237 3076 2806 2817 2963 2894 2946 3176 2718 2916 3570 3938 3503
3383 3371 3382 3491 3514 3550 3558 3542 3318 3102 2752 2809 2642 2536 2512 2516 2416 2311 2058 1898 1865 2060 2085 2014 1854 2120 2363 2244 2064 2291 2677 2738 2631 2861 3046 3030 3288 3370 2795 3006 3223 3586
3274 3289 3331 3382 3456 3472 3510 3445 3258 3106 2974 3048 2946 2677 2617 2732 2595 2350 2054 1649 1495 1423 1522 1530 1640 1323 1257 1026 1048 1208 1951 2460 2906 3133 3343 3420 3295 3561 3567 2893 2919 3152
2283 2648 2778 2988 3261 3269 3280 3172 3005 2944 2992 3063 2946 2766 3041 2328 2157 1974 1905 1648 1359 1428 1310 1388 1142 565 555 561 730 848 1057 1783 2596 3031 3042 3139 3326 3250 3159 2978 3005 2999
1402 1871 2204 2309 2801 2913 2949 2872 2877 2918 2082 2266 1769 1769 1701 1609 1421 2050 2062 1882 1685 1966 1701 1149 769 697 621 808 766 876 932 1070 1469 2158 2514 2730 2959 3220 3320 3295 3406 3263
978 1192 1184 1321 1500 1665 1525 2020 1859 1881 1778 1583 1589 1466 1460 1170 947 2139 2284 2344 1881 1851 1677 962 921 916 869 819 755 696 738 886 1293 1497 1623 1783 2044 2250 2261 2403 2614 2752
1048 1004 854 1070 1226 1063 825 1120 1336 1188 1354 1297 1289 1546 1939 2175 2278 2360 2470 2251 1888 1503 1210 1090 1026 912 803 712 670 642 615 620 1142 1387 1559 1861 2080 2223 2369 2383 2545 2515
831 796 718 1227 1256 950 562 796 976 1090 1237 1080 1010 1143 1172 1124 1109 1400 1805 1941 1724 1498 1266 1052 999 898 830 770 767 801 806 757 699 899 1114 1262 1463 1938 2055 2162 2261 2348
604 668 896 807 738 994 884 935 1196 1326 1360 1179 1124 1123 1135 1066 1147 1292 1428 1163 1099 1081 1040 1002 974 941 952 952 958 886 720 702 752 806 904 1161 1146 1386 1482 1547 1650 1743
651 765 820 992 844 674 776 997 1077 1047 1001 1035 1048 996 1027 1049 1032 1069 1118 1150 1159 1155 1124 1093 1034 971 884 853 759 671 519 455 465 540 603 948 940 947 1057 1105 1182 1284
710 794 768 741 641 761 801 749 859 755 821 883 793 833 870 803 785 767 767 746 717 666 582 506 487 487 477 480 472 444 412 396 379 383 425 461 467 468 441 416 491 464
773 790 797 550 439 526 581 497 501 481 534 489 445 392 413 418 389 397 402 407 402 379 376 362 362 373 371 359 352 344 344 348 366 383 376 354 340 326 331 329 348 366

ECMWFNIL_con_mucape_120.txt.gz
CAPE
1969 2078 2403 2401 2438 2431 2600 2630 2357 2411 2750 2361 2381 2564 2486 2808 2561 2544 3288 3564 3800 3720 4109 4187 3957 3917 3309 3767 4597 4132 3769 3903 3790 3248 3510 3626 3360 3105 2306 2592 2870 2618
2103 2152 2143 2315 2504 2775 2761 2581 2700 2638 2808 3040 2774 2759 3010 3147 2963 3081 3424 3609 3561 3421 4048 4018 3956 3652 3422 3380 4699 4037 4360 4218 3902 2962 3197 3748 3755 3150 2804 2979 2963 3060
2370 2255 2266 2180 2314 2716 2258 2463 2577 2573 2502 2551 2630 2902 2877 2890 2835 3211 3438 3367 3259 2998 3634 4352 3760 3592 3488 3802 4301 3763 3461 4726 4011 2985 3369 3803 3418 3078 3258 2549 2391 2557
2455 2284 2192 1852 1974 2166 2378 2487 2618 2339 2526 2532 2597 2671 2410 2448 2651 3122 3544 3334 3449 3503 3409 3604 3719 3366 3419 3553 4450 3747 3481 4118 3313 3675 3594 3543 3257 3052 3064 2870 2506 2282
2238 2141 2050 2072 2022 2316 2456 2378 2378 2395 2283 2400 2450 2620 2958 2811 2924 2748 3041 3457 3679 3484 3521 3352 3512 3168 3482 3750 4058 3622 3248 3188 3100 3565 3611 3459 3599 2942 2751 2496 2737 2555
2128 2133 2168 2031 2307 2620 2420 2352 2322 2201 2311 2208 2389 2528 2612 2840 2627 2635 2668 2794 2769 2729 2620 2797 3005 2764 2759 3252 3790 3542 3107 2850 2734 3893 3707 3756 3458 3202 2626 2700 3244 3185
1972 2065 1930 1868 2071 2271 2426 2353 2350 2311 2141 2179 2496 2513 2497 2524 2691 2673 2855 2700 2488 2648 2446 2707 3346 3328 2844 3105 3569 4205 3761 3075 3444 4060 4348 3261 3438 3595 3228 2867 3091 3906
2032 1886 1842 1754 1791 2157 2058 1891 2199 2374 2434 2551 2490 2702 2618 2453 2682 2580 2641 2713 2701 2772 2867 2805 3274 3749 3159 2855 3333 3552 3438 3021 2943 4062 4487 3202 2831 3191 3392 2602 2684 3496
2178 1968 1904 1703 1695 1872 1766 1572 1870 2088 2454 2558 2310 2274 2585 2420 2494 2324 2602 3173 2993 3052 3528 3264 3503 3312 3099 3101 3155 3443 3566 3369 2651 2733 3290 3228 3245 3665 3375 3227 2917 3052
2217 2036 1785 1790 1724 1858 1846 1762 1594 1900 2218 2276 2260 2067 2086 2395 2259 2370 2832 3340 3358 3417 3597 3519 3435 3242 2930 2828 3244 3343 3296 3574 3528 3433 3292 3316 3413 3209 2896 2798 2679 2865
2244 2226 1923 2018 1937 2053 1951 1718 1487 1562 2048 2122 2013 1911 1974 2240 2429 2522 2937 3691 2951 2938 3231 3462 3328 3224 3143 2748 2628 2872 3206 3245 3298 3523 3635 3660 3416 3305 3486 3410 2875 2696
2212 2210 2189 2089 2332 2245 2199 1998 1551 1320 1623 1993 1960 2037 2170 2125 2458 2602 2623 3222 3102 2792 2737 3074 3242 3353 3269 3136 2537 2371 2499 2794 3043 3233 3163 3210 3153 3026 3110 3198 3092 3079
2212 2259 2322 2263 2464 2536 2384 2180 1894 1563 1484 1736 1918 1923 1972 1889 1984 2405 2585 2859 3180 2968 2534 2584 2888 2725 3227 3511 3013 2738 2692 2767 2561 2721 2764 2621 2852 2787 2630 2660 2640 2706
2732 2415 2723 2812 2872 2990 2966 2443 1828 1764 1921 1786 2006 2053 1842 1700 1778 1887 2234 2514 2579 2618 2687 2629 2876 2807 2913 3162 3032 2347 2236 2288 2395 2362 2167 2174 2434 2679 2626 2521 2655 2687
3630 3231 3398 3705 3600 3678 3525 3059 2405 1763 1904 2164 2188 2127 1744 1595 1624 1670 1820 1885 1985 2216 2361 2257 1901 1967 1933 2144 2452 2338 2335 1921 1609 1641 1442 1667 1476 1870 2194 2489 2825 2778
4352 4105 4156 4469 4451 4419 4145 3387 2659 2015 1829 2147 2268 2070 2010 1928 2013 2036 1930 1958 1975 2117 2166 1837 1740 1669 1304 1628 1684 2241 2090 2218 2159 2275 1996 1900 2238 1990 1224 1955 1990 2490
4161 4292 4235 4405 3997 3985 4354 3876 3272 3111 2534 2748 2683 2578 2434 2639 2336 2271 2071 1871 1792 1757 1695 1610 1135 1374 1251 695 790 457 1617 2134 2255 2688 3306 3385 3345 3085 2298 2601 1953 1761
3488 3688 3386 2721 2319 2537 2186 3782 4186 3824 3945 3832 3270 2708 3366 2951 2618 2835 3169 2540 1921 1881 1665 1292 1143 1218 780 543 432 553 468 1594 1738 1694 1861 2204 2417 2917 2880 2462 2151 1892
3589 3156 2490 2085 2053 1572 2280 2318 3361 3945 3819 3330 3167 3198 3455 3366 3364 2649 1913 2301 2233 2441 2003 1483 986 1026 818 752 658 608 569 765 1700 2047 2008 1735 1842 2276 2802 3194 3538 3425
3135 2849 2026 1876 2112 1600 1782 2127 2733 2844 3018 2561 2569 2993 3041 3213 2861 2644 3096 3040 2966 2973 2752 1408 1128 850 817 782 735 656 622 560 1719 2468 2330 2148 2419 2501 2306 2444 3016 3284
2238 2329 1967 1434 1339 1402 1569 1607 1808 2582 2799 2619 2438 2660 2360 1948 2010 2884 3183 3332 3109 2602 2254 1088 868 797 691 762 774 757 712 654 1667 2105 2222 2214 2380 2570 2874 2928 3125 3212
1662 1648 1389 1295 949 890 928 1127 1164 1445 1984 1581 1713 1988 1880 2036 1574 2200 3044 2935 2650 2428 2242 1359 1150 863 815 847 880 865 788 717 1531 1913 1986 2064 2156 2287 1553 1513 2285 2623
955 901 1172 1101 685 467 469 603 714 679 1316 1877 1891 1880 2015 1888 1724 2362 2588 2529 2473 2283 2019 1326 1085 874 786 810 829 801 795 835 1307 1442 1650 1790 1690 1663 1181 1169 1600 2077
846 905 1159 1107 438 403 380 589 601 762 1322 1651 1753 1877 1759 1884 2065 1750 1233 1150 1041 985 977 921 897 922 962 978 931 874 802 738 680 946 924 984 1113 1167 1214 1114 1117 834
688 617 610 470 407 364 390 421 621 764 947 953 975 925 887 871 840 884 772 788 827 897 941 970 908 803 681 555 454 376 318 260 241 241 324 238 228 256 265 276 252 208
641 569 426 314 442 452 398 464 585 632 689 658 648 622 500 570 730 788 794 717 647 587 558 514 445 374 328 270 210 180 156 152 142 149 155 150 140 152 173 188 203 188